[[{"header":{"parameterUnit":"m.s-1","parameterCategory":1,"la1":30.6,"la2":28.766,"lo1":-90.7593,"lo2":-88.6598,"dy":0.0162,"dx":0.0183,"nx":116,"ny":114,"refTime":"2024-06-04T06:00:00:Z","depth":0,"parameterNumber":2,"parameterNumberName":"U-component_of_WINDS"},"data":[0.0,0.0,0.0,0.0,0.0,0.0,0.0,0.0,0.0,0.0,0.0,0.0,0.0,0.0,0.0,0.0,0.0,0.0,0.0,0.0,0.0,0.0,0.0,0.0,0.0,0.0,0.0,0.0,0.0,0.0,0.0,0.0,0.0,0.0,0.0,0.0,0.0,0.0,0.0,0.0,0.0,0.0,0.0,0.0,0.0,0.0,0.0,0.0,0.0,0.0,0.0,0.0,0.0,0.0,0.0,0.0,0.0,0.0,0.0,0.0,0.0,0.0,0.0,0.0,0.0,0.0,0.0,0.0,0.0,0.0,0.0,0.0,0.0,0.0,0.0,0.0,0.0,0.0,0.0,0.0,0.0,0.0,0.0,0.0,0.0,0.0,0.0,0.0,0.0,0.0,0.0,0.0,0.0,0.0,0.0,0.0,0.0,0.0,0.0,0.0,0.0,0.0,0.0,0.0,0.0,0.0,0.0,0.0,0.0,0.0,0.0,0.0,0.0,0.0,0.0,0.0,0.0,0.0,0.0,0.0,0.0,0.0,0.0,0.0,0.0,0.0,0.0,0.0,0.0,0.0,0.0,0.0,0.0,0.0,0.0,0.0,0.0,0.0,0.0,0.0,0.0,0.0,0.0,0.0,0.0,0.0,0.0,0.0,0.0,0.0,0.0,0.0,0.0,0.0,0.0,0.0,0.0,0.0,0.0,0.0,0.0,0.0,0.0,0.0,0.0,0.0,0.0,0.0,0.0,0.0,0.0,0.0,0.0,0.0,0.0,0.0,0.0,0.0,0.0,0.0,0.0,0.0,0.0,0.0,0.0,0.0,0.0,0.0,0.0,0.0,0.0,0.0,0.0,0.0,0.0,0.0,0.0,0.0,0.0,0.0,0.0,0.0,0.0,0.0,0.0,0.0,0.0,0.0,0.0,0.0,0.0,0.0,0.0,0.0,0.0,0.0,0.0,0.0,0.0,0.0,0.0,0.0,0.0,0.0,0.0,0.0,0.0,0.0,0.0,0.0,0.0,0.0,0.0,0.0,0.0,0.0,0.0,0.0,0.0,0.0,0.0,0.0,0.0,0.0,0.0,0.0,0.0,0.0,0.0,0.0,0.0,0.0,0.0,0.0,0.0,0.0,0.0,0.0,0.0,0.0,0.0,0.0,0.0,0.0,0.0,0.0,0.0,0.0,0.0,0.0,0.0,0.0,0.0,0.0,0.0,0.0,0.0,0.0,0.0,0.0,0.0,0.0,0.0,0.0,0.0,0.0,0.0,0.0,0.0,0.0,0.0,0.0,0.0,0.0,0.0,0.0,0.0,0.0,0.0,0.0,0.0,0.0,0.0,0.0,0.0,0.0,0.0,0.0,0.0,0.0,0.0,0.0,0.0,0.0,0.0,0.0,0.0,0.0,0.0,0.0,0.0,0.0,0.0,0.0,0.0,0.0,0.0,0.0,0.0,0.0,0.0,0.0,0.0,0.0,0.0,0.0,0.0,0.0,0.0,0.0,0.0,0.0,0.0,0.0,0.0,0.0,0.0,0.0,0.0,0.0,0.0,0.0,0.0,0.0,0.0,0.0,0.0,0.0,0.0,0.0,0.0,0.0,0.0,0.0,0.0,0.0,0.0,0.0,0.0,0.0,0.0,0.0,0.0,0.0,0.0,0.0,0.0,0.0,0.0,0.0,0.0,0.0,0.0,0.0,0.0,0.0,0.0,0.0,0.0,0.0,0.0,0.0,0.0,0.0,0.0,0.0,0.0,0.0,0.0,0.0,0.0,0.0,0.0,0.0,0.0,0.0,0.0,0.0,0.0,0.0,0.0,0.0,0.0,0.0,0.0,0.0,0.0,0.0,0.0,0.0,0.0,0.0,0.0,0.0,0.0,0.0,0.0,0.0,0.0,0.0,0.0,0.0,0.0,0.0,0.0,0.0,0.0,0.0,0.0,0.0,0.0,0.0,0.0,0.0,0.0,0.0,0.0,0.0,0.0,0.0,0.0,0.0,0.0,0.0,0.0,0.0,0.0,0.0,0.0,0.0,0.0,0.0,0.0,0.0,0.0,0.0,0.0,0.0,0.0,0.0,0.0,0.0,0.0,0.0,0.0,0.0,0.0,0.0,0.0,0.0,0.0,0.0,0.0,0.0,0.0,0.0,0.0,0.0,0.0,0.0,0.0,0.0,0.0,0.0,0.0,0.0,0.0,0.0,0.0,0.0,0.0,0.0,0.0,0.0,0.0,0.0,0.0,0.0,0.0,0.0,0.0,0.0,0.0,0.0,0.0,0.0,0.0,0.0,0.0,0.0,0.0,0.0,0.0,0.0,0.0,0.0,0.0,0.0,0.0,0.0,0.0,0.0,0.0,0.0,0.0,0.0,0.0,0.0,0.0,0.0,0.0,0.0,0.0,0.0,0.0,0.0,0.0,0.0,0.0,0.0,0.0,0.0,0.0,0.0,0.0,0.0,0.0,0.0,0.0,0.0,0.0,0.0,0.0,0.0,0.0,0.0,0.0,0.0,0.0,0.0,0.0,0.0,0.0,0.0,0.0,0.0,0.0,0.0,0.0,0.0,0.0,0.0,0.0,0.0,0.0,0.0,0.0,0.0,0.0,0.0,0.0,0.0,0.0,0.0,0.0,0.0,0.0,0.0,0.0,0.0,0.0,0.0,0.0,0.0,0.0,0.0,0.0,0.0,0.0,0.0,0.0,0.0,0.0,0.0,0.0,0.0,0.0,0.0,0.0,0.0,0.0,0.0,0.0,0.0,0.0,0.0,0.0,0.0,0.0,0.0,0.0,0.0,0.0,0.0,0.0,0.0,0.0,0.0,0.0,0.0,0.0,0.0,0.0,0.0,0.0,0.0,0.0,0.0,0.0,0.0,0.0,0.0,0.0,0.0,0.0,0.0,0.0,0.0,0.0,0.0,0.0,0.0,0.0,0.0,0.0,0.0,0.0,0.0,0.0,0.0,0.0,0.0,0.0,0.0,0.0,0.0,0.0,0.0,0.0,0.0,0.0,0.0,0.0,0.0,0.0,0.0,0.0,0.0,0.0,0.0,0.0,0.0,0.0,0.0,0.0,0.0,0.0,0.0,0.0,0.0,0.0,0.0,0.0,0.0,0.0,0.0,0.0,0.0,0.0,0.0,0.0,0.0,0.0,0.0,0.0,0.0,0.0,0.0,0.0,0.0,0.0,0.0,0.0,0.0,0.0,0.0,0.0,0.0,0.0,0.0,0.0,0.0,0.0,0.0,0.0,0.0,0.0,0.0,0.0,0.0,0.0,0.0,0.0,0.0,0.0,0.0,0.0,0.0,0.0,0.0,0.0,0.0,0.0,0.0,0.0,0.0,0.0,0.0,0.0,0.0,0.0,0.0,0.0,0.0,0.0,0.0,0.0,0.0,0.0,0.0,0.0,0.0,0.0,0.0,0.0,0.0,0.0,0.0,0.0,0.0,0.0,0.0,0.0,0.0,0.0,0.0,0.0,0.0,0.0,0.0,0.0,0.0,0.0,0.0,0.0,0.0,0.0,0.0,0.0,0.0,0.0,0.0,0.0,0.0,0.0,0.0,0.0,0.0,0.0,0.0,0.0,0.0,0.0,0.0,0.0,0.0,0.0,0.0,0.0,0.0,0.0,0.0,0.0,0.0,0.0,0.0,0.0,0.0,0.0,0.0,0.0,0.0,0.0,0.0,0.0,0.0,0.0,0.0,0.0,0.0,0.0,0.0,0.0,0.0,0.0,0.0,0.0,0.0,0.0,0.0,0.0,0.0,0.0,0.0,0.0,0.0,0.0,0.0,0.0,0.0,0.0,0.0,0.0,0.0,0.0,0.0,0.0,0.0,0.0,0.0,0.0,0.0,0.0,0.0,0.0,0.0,0.0,0.0,0.0,0.0,0.0,0.0,0.0,0.0,0.0,0.0,0.0,0.0,0.0,0.0,0.0,0.0,0.0,0.0,0.0,0.0,0.0,0.0,0.0,0.0,0.0,0.0,0.0,0.0,0.0,0.0,0.0,0.0,0.0,0.0,0.0,0.0,0.0,0.0,0.0,0.0,0.0,0.0,0.0,0.0,0.0,0.0,0.0,0.0,0.0,0.0,0.0,0.0,0.0,0.0,0.0,0.0,0.0,0.0,0.0,0.0,0.0,0.0,0.0,0.0,0.0,0.0,0.0,0.0,0.0,0.0,0.0,0.0,0.0,0.0,0.0,0.0,0.0,0.0,0.0,0.0,0.0,0.0,0.0,0.0,0.0,0.0,0.0,0.0,0.0,0.0,0.0,0.0,0.0,0.0,0.0,0.0,0.0,0.0,0.0,0.0,0.0,0.0,0.0,0.0,0.0,0.0,0.0,0.0,0.0,0.0,0.0,0.0,0.0,0.0,0.0,0.0,0.0,0.0,0.0,0.0,0.0,0.0,0.0,0.0,0.0,0.0,0.0,0.0,0.0,0.0,0.0,0.0,0.0,0.0,0.0,0.0,0.0,0.0,0.0,0.0,0.0,0.0,0.0,0.0,0.0,0.0,0.0,0.0,0.0,0.0,0.0,0.0,0.0,0.0,0.0,0.0,0.0,0.0,0.0,0.0,0.0,0.0,0.0,0.0,0.0,0.0,0.0,0.0,0.0,0.0,0.0,0.0,0.0,0.0,0.0,0.0,0.0,0.0,0.0,0.0,0.0,0.0,0.0,0.0,0.0,0.0,0.0,0.0,0.0,0.0,0.0,0.0,0.0,0.0,0.0,0.0,0.0,0.0,0.0,0.0,0.0,0.0,0.0,0.0,0.0,0.0,0.0,0.0,0.0,0.0,0.0,0.0,0.0,0.0,0.0,0.0,0.0,0.0,0.0,0.0,0.0,0.0,0.0,0.0,0.0,0.0,0.0,0.0,0.0,0.0,0.0,0.0,0.0,0.0,0.0,0.0,0.0,0.0,0.0,0.0,0.0,0.0,0.0,0.0,0.0,0.0,0.0,0.0,0.0,0.0,0.0,0.0,0.0,0.0,0.0,0.0,0.0,0.0,0.0,0.0,0.0,0.0,0.0,0.0,0.0,0.0,0.0,0.0,0.0,0.0,0.0,0.0,0.0,0.0,0.0,0.0,0.0,0.0,0.0,0.0,0.0,0.0,0.0,0.0,0.0,0.0,0.0,0.0,0.0,0.0,0.0,0.0,0.0,0.0,0.0,0.0,0.0,0.0,0.0,0.0,0.0,0.0,0.0,0.0,0.0,0.0,0.0,0.0,0.0,0.0,0.0,0.0,0.0,0.0,0.0,0.0,0.0,0.0,0.0,0.0,0.0,0.0,0.0,0.0,0.0,0.0,0.0,0.0,0.0,0.0,0.0,0.0,0.0,0.0,0.0,0.0,0.0,0.0,0.0,0.0,0.0,0.0,0.0,0.0,0.0,0.0,0.0,0.0,0.0,0.0,0.0,0.0,0.0,0.0,0.0,0.0,0.0,0.0,0.0,0.0,0.0,0.0,0.0,0.0,0.0,0.0,0.0,0.0,0.0,0.0,0.0,0.0,0.0,0.0,0.0,0.0,0.0,0.0,0.0,0.0,0.0,0.0,0.0,0.0,0.0,0.0,0.0,0.0,0.0,0.0,0.0,0.0,0.0,0.0,0.0,0.0,0.0,0.0,0.0,0.0,0.0,0.0,0.0,0.0,0.0,0.0,0.0,0.0,0.0,0.0,0.0,0.0,0.0,0.0,0.0,0.0,0.0,0.0,0.0,0.0,0.0,0.0,0.0,0.0,0.0,0.0,0.0,0.0,0.0,0.0,0.0,0.0,0.0,0.0,0.0,0.0,0.0,0.0,0.0,0.0,0.0,0.0,0.0,0.0,0.0,0.0,0.0,0.0,0.0,0.0,0.0,0.0,0.0,0.0,0.0,0.0,0.0,0.0,0.0,0.0,0.0,0.0,0.0,0.0,0.0,0.0,0.0,0.0,0.0,0.0,0.0,0.0,0.0,0.0,0.0,0.0,0.0,0.0,0.0,0.0,0.0,0.0,0.0,0.0,0.0,0.0,0.0,0.0,0.0,0.0,0.0,0.0,0.0,0.0,0.0,0.0,0.0,0.0,0.0,0.0,0.0,0.0,0.0,0.0,-0.0058,0.0458,0.0,0.0,0.0,0.0,0.0,0.0,0.0,0.0,0.0,0.0,0.0,0.0,0.0,0.0,0.0,0.0,0.0,0.0,0.0,0.0,0.0,0.0,0.0,1.39,1.4455,1.5303,1.561,1.5795,1.5844,0.0,0.0,0.0,0.0,0.0,1.2773,1.2341,1.1774,1.1129,1.0687,1.0171,0.9657,1.0039,1.0281,1.0351,0.0,0.0,0.0,0.0,0.0,0.0,0.0,0.0,0.0,0.0,0.0,0.0,0.0,0.0,0.0,0.0,0.0,0.0,0.0,0.0,0.0,0.0,0.0,0.0,0.0,0.0,0.0,0.0,0.0,0.0,0.0,0.0,0.0,0.0,0.0,0.0,0.0,0.0,0.0,0.0,0.0,0.0,0.0,0.0,0.0,0.0,0.0,0.0,0.0,0.0,0.0,0.0,0.0,0.0,0.0,0.0,0.0,0.0,0.0,0.0,0.0,0.0,0.0,0.0,0.0,0.0,0.0,0.0,0.0,0.0,-0.156,-0.0886,0.0,0.0,0.0,0.0,0.0,0.0,0.0,0.0,0.0,0.0,0.0,0.0,0.0,0.0,0.0,0.0,0.0,0.0,0.0,0.0,0.0,1.1832,1.3457,1.4024,1.4542,1.5085,1.554,1.5614,1.5108,1.5108,0.0,0.0,0.0,1.3144,1.222,1.1758,1.1256,1.073,1.0124,0.958,0.9151,0.9302,0.9504,0.9705,0.9322,0.0,0.0,0.0,0.0,0.0,0.0,0.0,0.0,0.0,0.0,0.0,0.0,0.0,0.0,0.0,0.0,0.0,0.0,0.0,0.0,0.0,0.0,0.0,0.0,0.0,0.0,0.0,0.0,0.0,0.0,0.0,0.0,0.0,0.0,0.0,0.0,0.0,0.0,0.0,0.0,0.0,0.0,0.0,0.0,0.0,0.0,0.0,0.0,0.0,0.0,0.0,0.0,0.0,0.0,0.0,0.0,0.0,0.0,0.0,0.0,0.0,0.0,0.0,-0.416,-0.4282,-0.4568,-0.447,-0.447,-0.4574,-0.3115,-0.239,-0.2256,-0.2207,0.0,0.0,0.0,0.0,0.0,0.0,0.0,0.0,0.0,0.0,0.0,0.0,0.0,0.0,0.0,0.0,0.0,0.0,0.0,1.242,1.4012,1.4253,1.4687,1.56,1.5756,1.5614,1.5108,1.5108,0.0,0.0,1.3622,1.3117,1.2155,1.2057,1.1509,1.0463,0.9548,0.8952,0.8594,0.8591,0.86,0.8619,0.8567,0.8515,0.8495,0.0,0.0,0.0,0.0,0.0,0.0,0.0,0.0,0.0,0.0,0.0,0.0,0.0,0.0,0.0,0.0,0.0,0.0,0.0,0.0,0.0,0.0,0.0,0.0,0.0,0.0,0.0,0.0,0.0,0.0,0.0,0.0,0.0,0.0,0.0,0.0,0.0,0.0,0.0,0.0,0.0,0.4922,0.4673,0.0,0.0,0.0,0.0,0.0,0.0,0.0,0.0,0.0,0.0,0.0,0.0,0.0,-0.3969,-0.401,-0.4299,-0.4727,-0.5299,-0.5435,-0.5825,-0.6362,-0.5876,-0.5664,-0.5601,-0.4773,0.0,-0.3491,-0.3097,0.0,0.0,0.0,0.0,0.0,0.0,0.0,0.0,0.0,0.0,0.0,0.0,0.0,0.0,0.0,0.0,0.0,0.0,0.0,0.0,0.0,1.4147,1.4631,1.5277,1.5434,1.5239,1.4709,1.4383,1.3952,1.3238,1.29,1.2559,1.2126,1.1469,1.0651,0.9629,0.9234,0.8774,0.8206,0.812,0.7978,0.7835,0.7388,0.7503,0.7984,0.7606,0.0,0.0,0.0,0.0,0.0,0.0,0.0,0.0,0.0,0.0,0.0,0.0,0.0,0.0,0.0,0.0,0.0,0.0,0.0,0.0,0.0,0.0,0.0,0.0,0.0,0.0,0.0,0.0,0.0,0.0,0.0,0.0,0.0,0.0,0.0,0.0,0.0,0.0,0.0,0.4336,0.2905,0.2177,0.1292,0.0235,0.0,0.0,0.0,0.0,0.0,0.0,0.0,0.0,0.0,-0.5173,-0.5306,-0.5403,-0.5403,-0.5536,-0.5803,-0.615,-0.6291,-0.651,-0.6819,-0.6572,-0.6494,-0.6552,-0.5978,-0.5603,-0.535,-0.4446,-0.3851,-0.3551,0.0,0.0,0.0,0.0,-0.2265,-0.2006,0.0,0.0,0.0,0.0,0.0,0.0,0.0,0.0,0.0,0.0,0.0,0.0,1.3397,1.3996,1.4447,1.4844,1.4947,1.4732,1.4059,1.3757,1.3309,1.2551,1.2267,1.1968,1.1669,1.0702,0.9791,0.8885,0.8854,0.8452,0.7747,0.7436,0.717,0.6996,0.6269,0.6479,0.7289,0.681,0.6498,0.0,0.0,0.0,0.0,0.0,0.0,0.0,0.0,0.0,0.0,0.0,0.0,0.0,0.0,0.0,0.0,0.0,0.0,0.0,0.0,0.0,0.0,0.0,0.0,0.0,0.0,0.0,0.0,0.0,0.0,0.0,0.0,0.0,0.0,0.0,0.0,0.0,0.0,0.2677,0.1408,0.0235,-0.0423,-0.1389,0.0,0.0,0.0,0.0,0.0,0.0,-0.5381,-0.6147,-0.6569,-0.6662,-0.6778,-0.6801,-0.6801,-0.6734,-0.6773,-0.6913,-0.6913,-0.693,-0.7073,-0.7073,-0.7138,-0.7265,-0.6876,-0.6675,-0.6605,-0.5547,-0.4749,-0.4284,-0.4217,-0.382,-0.336,-0.3226,-0.3226,-0.3159,0.0,0.0,0.0,0.0,0.0,0.0,0.0,0.0,0.0,0.0,0.0,1.3231,1.347,1.3865,1.42,1.4423,1.4553,1.4205,1.3217,1.3568,1.3121,1.1564,1.1874,1.1569,1.0506,0.9925,0.9307,0.8607,0.8257,0.7716,0.7008,0.619,0.5862,0.5963,0.544,0.565,0.6263,0.566,0.5382,0.5374,0.0,0.0,0.0,0.0,0.0,0.0,0.0,0.0,0.0,0.0,0.0,0.0,0.0,0.0,0.0,0.0,0.0,0.0,0.0,0.0,0.0,0.0,0.0,0.0,0.0,0.0,0.0,0.0,0.0,0.0,0.0,0.0,0.0,0.0,0.0,0.0,0.0,0.0,0.0,-0.0352,-0.1481,0.0,0.0,0.0,0.0,-0.5175,-0.6378,-0.6868,-0.6357,-0.7645,-0.8058,-0.7354,-0.769,-0.7933,-0.7933,-0.758,-0.7432,-0.7442,-0.7442,-0.7447,-0.7456,-0.7456,-0.7456,-0.7461,-0.7456,-0.7134,-0.6675,-0.6086,-0.5554,-0.502,-0.4691,-0.4225,-0.3692,-0.336,-0.3226,-0.3226,0.0,0.0,0.0,0.0,0.0,1.1708,1.2038,1.2132,1.2316,1.28,1.2931,1.2969,1.3034,1.3618,1.3976,1.3937,1.385,1.3569,1.3178,1.2936,1.2443,1.1556,1.1505,1.0998,0.9925,0.9718,0.9153,0.82,0.7967,0.7296,0.6329,0.5721,0.5481,0.5471,0.4864,0.4733,0.501,0.5229,0.5277,0.5281,0.4897,0.5007,0.0,0.0,0.0,0.0,0.0,0.0,0.0,0.0,0.0,0.0,0.0,0.0,0.0,0.0,0.0,0.0,0.0,0.0,0.0,0.0,0.0,0.0,0.0,0.0,0.0,0.0,0.0,0.0,0.0,0.0,0.0,0.0,0.0,0.0,0.0,0.0,0.0,-0.1432,-0.2657,0.0,-0.436,-0.5171,-0.5988,-0.6579,-0.7057,-0.7545,-0.8066,-0.8552,-0.881,-0.8725,-0.8444,-0.8297,-0.8297,-0.7807,-0.7521,-0.7521,-0.7521,-0.7521,-0.7521,-0.7521,-0.7521,-0.7521,-0.7521,-0.7199,-0.6683,-0.6609,-0.5981,-0.5087,-0.4957,-0.4625,-0.4097,-0.3964,-0.3897,-0.3907,0.0,0.0,0.0,0.0,1.1795,1.2312,1.2188,1.2435,1.268,1.2881,1.3069,1.3138,1.3047,1.3476,1.37,1.352,1.3249,1.2996,1.2726,1.233,1.1881,1.1343,1.1083,1.049,0.9614,0.9614,0.9052,0.7914,0.7762,0.7105,0.5906,0.5405,0.525,0.5349,0.4522,0.432,0.4634,0.4907,0.4897,0.4677,0.4353,0.4515,0.4941,0.0,0.0,0.0,0.0,0.0,0.0,0.0,0.0,0.0,0.0,0.0,0.0,0.0,0.0,0.0,0.0,0.0,0.0,0.0,0.0,0.0,0.0,0.0,0.0,0.0,0.0,0.0,0.0,0.0,0.0,0.0,0.0,0.0,0.0,-0.0196,-0.117,-0.2764,-0.3687,-0.4498,-0.5432,-0.6026,-0.6613,-0.7282,-0.7767,-0.8259,-0.8805,-0.9501,-0.9837,-0.9837,-0.939,-0.9069,-0.8812,-0.8166,-0.7717,-0.7521,-0.7521,-0.7521,-0.7521,-0.7521,-0.7521,-0.7521,-0.7521,-0.7064,-0.6428,-0.6607,-0.5927,-0.4889,-0.5094,-0.4827,-0.4352,-0.4314,-0.43,-0.4322,0.0,0.0,0.0,1.1168,1.1851,1.2481,1.2695,1.3,1.3216,1.3285,1.3656,1.3802,1.3547,1.3581,1.3459,1.3141,1.2849,1.2431,1.1867,1.179,1.1527,1.0893,1.0573,1.0138,0.9614,0.9614,0.8997,0.7719,0.7719,0.7013,0.568,0.5231,0.5179,0.5424,0.4405,0.4437,0.5273,0.4732,0.419,0.3638,0.3638,0.4024,0.4463,0.0,0.0,0.0,0.0,0.0,0.0,0.0,0.0,0.0,0.0,0.0,0.0,0.0,0.0,0.0,0.0,0.0,0.0,0.0,0.0,0.0,0.0,0.0,0.0,0.0,0.0,0.0,0.0,0.0,0.0,0.0,0.0,0.0,-0.0871,-0.0739,-0.1527,-0.4193,-0.454,-0.4957,-0.624,-0.6707,-0.7012,-0.7204,-0.8479,-0.9058,-0.8554,-1.0478,-1.1199,-1.0498,-1.0441,-1.0123,-0.9466,-0.8823,-0.8172,-0.7521,-0.7521,-0.7521,-0.7521,-0.7531,-0.7531,-0.7521,-0.7466,-0.6876,-0.5903,-0.6056,-0.5438,-0.4544,-0.5098,-0.4957,-0.4455,-0.4344,-0.4306,-0.4344,0.0,0.0,1.1682,1.2306,1.271,1.3019,1.3032,1.316,1.3216,1.3285,1.3689,1.3967,1.3934,1.3769,1.3615,1.3459,1.2734,1.2252,1.224,1.1995,1.1837,1.1766,1.0898,1.0352,1.019,0.9821,0.8997,0.7773,0.7719,0.7053,0.575,0.5226,0.5108,0.5325,0.4796,0.4829,0.5202,0.5116,0.5007,0.4842,0.4842,0.4952,0.5062,0.0,0.0,0.0,0.0,0.0,0.0,0.0,0.0,0.0,0.0,0.0,0.0,0.0,0.0,0.0,0.0,0.0,0.0,0.0,0.0,0.0,0.0,0.0,0.0,0.0,0.0,0.0,0.0,0.0,0.0,0.0,0.0837,0.0333,-0.0201,-0.0403,-0.1072,-0.2659,-0.3737,-0.4535,-0.4957,-0.6183,-0.7204,-0.7847,-0.8425,-0.8871,-0.9198,-0.9888,-1.0189,-0.9993,-0.9653,-0.9327,-0.9025,-0.8358,-0.7812,-0.7521,-0.7521,-0.7521,-0.7526,-0.7617,-0.7607,-0.7466,-0.7221,-0.6672,-0.5903,-0.5655,-0.5154,-0.4665,-0.4714,-0.4607,-0.4455,-0.4344,-0.4343,-0.443,0.0,1.2027,1.2511,1.2843,1.333,1.3568,1.3251,1.3467,1.3635,1.3589,1.3954,1.4246,1.4388,1.3883,1.3572,1.3622,1.2696,1.2198,1.238,1.2214,1.2001,1.1823,1.1309,1.0854,1.0482,0.9898,0.9076,0.7963,0.7642,0.6997,0.6068,0.5632,0.558,0.5843,0.5471,0.5529,0.5981,0.5779,0.5823,0.6046,0.6046,0.5882,0.566,0.5386,0.5605,0.6046,0.6154,0.6426,0.6804,0.7085,0.0,0.0,0.0,0.0,0.0,0.0,0.0,0.0,0.0,0.0,0.0,0.0,0.0,0.0,0.0,0.0,0.0,0.0,0.0,0.0,0.0,0.0,0.0,0.0,0.0785,0.0202,-0.1143,-0.1209,-0.1611,-0.2954,-0.4018,-0.4882,-0.5279,-0.6404,-0.733,-0.7847,-0.8296,-0.8683,-0.9069,-0.9563,-0.9832,-0.9832,-0.9616,-0.9339,-0.8933,-0.8429,-0.8053,-0.766,-0.7564,-0.7569,-0.7664,-0.7725,-0.7758,-0.7725,-0.7298,-0.6737,-0.6101,-0.557,-0.5123,-0.4716,0.0,0.0,0.0,0.0,-0.4383,-0.4517,0.0,1.2758,1.3418,1.3156,1.3781,1.4092,1.3421,1.3934,1.4322,1.4098,1.4429,1.4725,1.4839,1.4045,1.3552,1.3795,1.2896,1.2401,0.0,0.0,1.2365,1.1747,1.194,1.1651,1.0771,1.0055,0.9249,0.8329,0.7655,0.7102,0.6647,0.6332,0.6448,0.6837,0.637,0.6545,0.7187,0.6696,0.675,0.7241,0.7241,0.6864,0.6263,0.5769,0.6258,0.7079,0.6642,0.6864,0.7419,0.7419,0.0,0.0,0.0,0.0,0.0,0.0,0.0,0.0,0.0,0.0,0.0,0.0,0.0,0.0,0.0,0.0,0.0,0.0,0.0,0.0,0.0,0.0,0.0,0.0,0.0927,0.0067,-0.256,-0.2487,-0.2614,-0.402,-0.4749,-0.5477,-0.6152,-0.6937,-0.7396,-0.7456,-0.8062,-0.8414,-0.8435,-0.9186,0.0,0.0,0.0,-0.9656,-0.9064,-0.8896,-0.8511,-0.7848,-0.7588,-0.7583,-0.7747,-0.7725,-0.7757,-0.7904,-0.7301,-0.6793,-0.6259,-0.5614,-0.5105,-0.4822,-0.4716,-0.4737,-0.4698,-0.442,-0.4418,-0.4465,0.0,1.3479,1.3706,1.4329,1.4365,1.4254,1.4124,1.468,1.4922,1.4475,1.5202,1.5644,1.525,1.4788,1.4498,1.4424,1.3956,1.3698,0.0,0.0,1.4046,1.3521,1.314,1.256,1.166,1.0785,0.9882,0.9002,0.8485,0.801,0.7547,0.7446,0.7527,0.7753,0.7652,0.7798,0.8156,0.8049,0.8043,0.8156,0.8156,0.767,0.6972,0.7182,0.7396,0.7616,0.7883,0.815,0.8309,0.8209,0.8262,0.8362,0.8421,0.8321,0.0,0.0,0.0,0.0,0.0,0.0,0.0,0.0,0.0,0.0,0.0,0.0,0.0,0.0,0.0,0.0,0.0,0.0,0.0,0.0452,0.0595,0.0134,-0.1277,-0.2554,-0.3293,-0.3424,-0.402,-0.4752,-0.5286,-0.6083,-0.6811,-0.7199,-0.7688,-0.7991,-0.8156,-0.8517,-0.8714,-0.8882,-0.9103,-0.9062,-0.8806,-0.8865,-0.8764,-0.8283,-0.7735,0.0,-0.7328,-0.704,-0.6813,-0.6733,-0.6468,-0.6126,-0.568,-0.5167,-0.4889,-0.483,-0.4809,-0.4738,-0.4648,-0.4536,-0.4395,-0.4368,1.4218,1.4254,1.429,1.4721,1.4651,1.4589,1.4727,1.5233,1.5561,1.546,1.6075,1.6407,1.6218,1.5681,1.5384,1.5499,1.5154,0.0,0.0,1.4991,1.4915,1.4479,1.3852,1.3236,1.2667,1.1606,1.0742,1.0116,0.9549,0.9003,0.856,0.8359,0.8234,0.8216,0.8216,0.8293,0.8427,0.8521,0.8626,0.8626,0.8626,0.8408,0.8131,0.8243,0.8349,0.8501,0.8718,0.8883,0.8995,0.8942,0.8995,0.9145,0.9361,0.9152,0.8976,0.0,0.0,0.0,0.0,0.0,0.0,0.0,0.0,0.0,0.0,0.0,0.0,0.0,0.0,0.3534,0.2513,0.0,0.0065,0.0197,0.04,-0.0,-0.1411,-0.2958,-0.3837,-0.356,-0.4223,-0.4849,-0.519,-0.5805,-0.6376,-0.6668,-0.6896,-0.7099,-0.7211,-0.7467,-0.761,-0.7698,-0.7974,-0.8028,-0.7848,-0.7936,-0.7812,-0.7633,-0.7239,-0.7044,-0.7044,-0.6906,-0.6823,-0.6756,-0.6354,-0.6093,-0.588,-0.526,-0.4991,-0.4937,-0.4865,-0.4836,-0.4743,-0.4538,-0.4449,-0.4324,1.4713,1.4839,1.4839,1.4808,1.4907,1.5049,1.527,1.5851,1.6349,1.6473,1.6853,1.7104,1.7087,1.6532,1.6259,1.6584,0.0,0.0,0.0,1.5891,1.574,1.5209,1.4641,1.4122,1.3606,1.2496,1.1734,1.1372,1.0626,1.0106,0.9748,0.9452,0.9192,0.9033,0.8981,0.8981,0.9033,0.9235,0.9287,0.9242,0.9242,0.9347,0.9496,0.9399,0.934,0.934,0.9444,0.9503,0.9621,0.9621,0.9673,0.9829,1.03,1.0043,0.9739,1.0493,0.9753,0.0,0.0,0.0,0.0,0.0,0.0,0.0,0.0,0.5578,0.4904,0.4278,0.4153,0.3736,0.2536,0.1046,-0.0,-0.0,0.0203,-0.0203,-0.1882,-0.3364,-0.4177,-0.3961,-0.4512,-0.5051,-0.5332,-0.5713,-0.6061,-0.619,-0.6332,-0.6423,-0.6482,-0.671,-0.6809,-0.6842,-0.7093,-0.7166,-0.7123,-0.7071,-0.7071,-0.7038,-0.6756,-0.6665,-0.6753,-0.6704,-0.6702,-0.6812,-0.6319,-0.6155,-0.6068,-0.5555,-0.4992,-0.4496,-0.4501,-0.4644,-0.4786,-0.4643,-0.4502,-0.4361,0.0,1.4902,1.4871,1.4808,1.5258,1.5604,1.5641,1.6788,1.747,1.6915,1.7448,1.7662,1.7179,1.7015,1.7063,1.7357,0.0,0.0,1.7518,1.753,1.7188,1.6373,1.6244,1.562,1.44,1.351,1.2863,1.2609,1.1743,1.1334,1.1347,1.1197,1.1173,1.1258,1.1107,1.1107,1.1258,1.1258,1.1074,1.0744,1.0744,1.0753,1.0761,1.1065,1.0592,0.9762,1.0198,1.036,1.036,1.036,1.0411,1.0411,1.047,1.0419,1.0379,1.0447,1.0137,0.9679,0.9322,0.87,0.8366,0.908,0.8382,0.7411,0.0,0.6157,0.5435,0.5042,0.4599,0.4231,0.4072,0.1802,-0.0,-0.0,-0.0,-0.0416,-0.1891,-0.3372,-0.4252,-0.4236,-0.4458,-0.4778,-0.5337,-0.553,-0.5828,-0.6367,-0.663,-0.6874,-0.6896,-0.7042,-0.7191,-0.7425,-0.7466,-0.7473,-0.7458,-0.7595,-0.7595,-0.7458,-0.6851,-0.6531,-0.6338,-0.5881,-0.5686,-0.57,-0.5623,-0.5626,-0.562,-0.5434,-0.4367,-0.2758,-0.2759,-0.3675,-0.4984,-0.4928,-0.4932,-0.4484,0.0,1.5344,1.5355,1.5672,1.5816,1.6127,1.6852,1.7548,1.7971,1.7998,1.8264,1.8372,1.8129,1.81,1.8178,1.8361,0.0,0.0,1.8212,1.8226,1.7935,1.7271,1.7008,1.6604,1.6022,1.5107,1.4575,1.4391,1.3779,1.3279,1.2946,1.2898,1.2561,1.2033,1.1994,1.1846,1.1616,1.1765,1.1908,1.197,1.197,1.2216,1.2588,1.2588,1.2235,1.1696,1.1395,1.1217,0.0,0.0,1.0871,1.0769,1.0922,1.0972,1.0996,1.0982,1.0508,0.9811,0.9279,0.9002,0.8907,0.9192,0.8757,0.8127,0.7538,0.6753,0.6022,0.5477,0.4843,0.4439,0.4422,0.3466,0.202,0.0276,-0.0,-0.0208,-0.081,-0.2831,-0.4006,-0.309,-0.3859,-0.4564,-0.4975,-0.5168,-0.5381,-0.5769,-0.5966,-0.6065,-0.6145,-0.6201,-0.6257,-0.6316,-0.6396,-0.6402,-0.6319,-0.6461,-0.6461,-0.6319,-0.6072,-0.584,-0.5794,-0.56,-0.5543,-0.5633,-0.5639,-0.5034,-0.4091,-0.5152,-0.5074,-0.421,-0.3004,-0.3524,-0.4981,-0.4986,-0.3771,-0.1885,0.0,1.5946,1.6144,1.677,1.6895,1.7121,1.7784,1.8122,1.8432,1.8954,1.9011,1.9049,1.9147,1.9035,1.9087,1.9302,1.9339,0.0,0.0,1.8884,1.8602,1.8159,1.7733,1.745,1.7286,1.6494,1.6053,1.5935,1.5531,1.5016,1.4391,1.4471,1.4122,1.3367,1.3443,1.332,1.3016,1.3214,1.3411,1.3594,1.3459,1.3652,1.4038,1.3771,1.3609,1.3365,1.2651,1.2121,0.0,1.1778,1.1575,1.1353,1.1453,1.1477,1.1472,1.1637,1.1145,1.0447,1.0089,0.9774,0.957,0.959,0.9365,0.8908,0.8004,0.7499,0.6873,0.5844,0.5329,0.4909,0.4683,0.464,0.3854,0.17,0.0996,0.0497,0.007,-0.1798,-0.2861,-0.216,-0.3367,-0.4232,-0.4042,-0.4696,-0.5238,-0.5407,-0.545,-0.5408,-0.5289,-0.5497,-0.5513,-0.5336,-0.5601,-0.5678,-0.5556,-0.5559,-0.5542,-0.5507,-0.542,-0.5466,-0.5471,-0.4962,-0.4794,-0.4969,-0.5485,-0.489,-0.3705,-0.403,-0.4148,-0.3974,-0.2417,-0.2592,-0.3628,-0.3589,-0.2116,-0.0,0.0,0.0,1.7286,1.8007,1.8747,1.8897,1.8021,1.851,1.9101,1.9406,1.9479,1.9639,2.003,1.9696,1.966,2.0104,2.0174,2.0174,2.0139,1.9839,1.9464,1.8999,1.8626,1.8226,1.7787,1.7286,1.7066,1.7066,1.6566,1.6127,1.5648,1.5972,1.6001,1.5833,1.6115,1.6397,1.6558,1.6558,1.6321,1.597,1.5431,1.5029,1.4653,1.443,1.4377,1.4314,1.3912,0.0,1.2418,1.2903,1.2748,1.2304,1.1995,1.1877,1.193,1.2267,1.2142,1.2011,1.2297,1.1526,1.0632,1.0854,1.0492,0.9736,0.8393,0.8317,0.8097,0.6394,0.6109,0.5909,0.5244,0.4905,0.4723,0.4681,0.3411,0.188,0.0226,-0.0074,-0.0592,-0.1943,-0.3372,-0.3756,-0.2331,-0.4187,-0.5462,-0.5459,-0.5654,-0.5409,-0.4868,-0.5401,-0.5458,-0.5006,-0.5468,-0.5689,-0.5656,-0.5662,-0.5606,-0.5401,-0.5398,-0.5396,-0.5312,-0.3697,-0.3022,-0.3106,-0.4895,-0.5667,-0.5325,-0.1685,-0.0169,-0.0169,-0.0084,-0.0084,-0.0169,-0.0173,-0.0086,-0.0,0.0,0.0,0.0,1.8998,1.9263,1.9329,1.9416,1.9652,1.9803,1.9889,1.9889,0.0,0.0,0.0,0.0,0.0,2.0208,2.0208,2.0208,2.007,1.9965,1.9793,1.9702,1.9543,1.9398,1.94,1.9309,1.9009,1.9031,1.88,1.8376,1.8464,1.8336,1.7961,1.8086,1.7784,1.7219,1.7219,1.7537,1.8058,1.7436,1.7598,1.7979,1.7164,1.6382,1.5785,0.0,0.0,1.2997,1.3077,1.2674,1.2154,1.2252,1.2274,1.223,1.1885,1.1726,1.1664,1.1736,1.1642,1.1569,1.1624,1.1289,1.0684,0.975,0.9377,0.8838,0.7748,0.7165,0.666,0.5967,0.5563,0.5344,0.5185,0.4854,0.4414,0.372,0.2918,0.17,-0.0,-0.065,-0.1078,-0.1369,-0.3806,-0.5073,-0.4068,-0.5092,-0.5102,-0.3897,-0.4463,-0.5025,-0.5479,-0.5588,-0.5085,-0.3821,-0.388,-0.381,-0.3779,-0.4708,-0.5162,-0.5002,-0.225,-0.0964,-0.1044,-0.1608,-0.1931,-0.1852,-0.0491,-0.0,-0.0,-0.0,0.1347,0.329,0.3315,0.2625,0.1517,0.0,0.0,0.0,0.0,0.0,0.0,0.0,0.0,0.0,0.0,0.0,0.0,0.0,0.0,0.0,0.0,0.0,2.0581,2.0581,0.0,2.0429,2.0429,2.0277,2.0316,2.0613,2.0767,2.0843,2.0846,2.1035,2.0886,2.0415,2.0812,2.0724,2.0161,2.0548,2.0301,1.9557,1.9557,1.9834,2.0207,1.9624,1.9678,1.9983,1.9078,1.81,0.0,0.0,0.0,1.4334,1.3932,1.3372,1.2821,1.2694,1.2769,1.2855,1.2386,1.2422,1.2496,1.241,1.2514,1.2562,1.2278,1.192,1.1549,1.076,1.0282,0.9701,0.8664,0.8017,0.744,0.6776,0.6148,0.5767,0.5855,0.5732,0.5677,0.5782,0.5012,0.4059,0.3101,0.2367,0.1711,0.0962,-0.0788,-0.229,-0.3217,-0.4275,-0.4259,-0.2741,-0.3099,-0.3712,-0.4483,-0.4595,-0.4457,-0.3908,-0.2555,-0.1859,-0.1843,-0.2768,-0.3222,-0.3144,-0.1021,0.0628,0.1805,0.1805,0.1412,0.0863,0.0877,0.0883,0.0884,0.0897,0.2216,0.4196,0.4819,0.4305,0.3128,0.0,0.0,0.0,0.0,0.0,0.0,0.0,0.0,0.0,0.0,0.0,0.0,0.0,0.0,0.0,0.0,0.0,0.0,0.0,0.0,0.0,2.0827,2.0494,2.0632,2.1332,2.1445,2.1802,2.2506,2.2521,2.2294,2.1877,2.2955,2.3035,2.2346,2.3409,2.3678,2.3303,2.3303,2.2963,2.2415,2.1831,2.1219,2.0677,2.0123,0.0,0.0,0.0,0.0,1.6384,1.5392,1.4745,1.4205,1.3353,1.3406,1.3746,1.3746,1.405,1.4355,1.4232,1.401,1.3589,1.2797,1.2573,1.2364,1.1376,1.1059,1.0627,0.9367,0.884,0.8382,0.7625,0.6733,0.6218,0.6683,0.6124,0.5779,0.6316,0.6238,0.6254,0.6976,0.546,0.4376,0.4281,0.4283,0.2314,-0.2497,-0.2982,-0.2514,-0.1386,-0.1299,-0.1544,-0.2103,-0.2436,-0.3494,-0.523,-0.1706,0.0161,0.0157,0.0157,0.0157,0.0157,0.0157,0.1885,0.4886,0.4964,0.4086,0.266,0.266,0.266,0.266,0.266,0.266,0.2826,0.4428,0.4967,0.4744,0.0,0.0,0.0,0.0,0.0,0.0,0.0,0.0,0.0,0.0,0.0,0.0,0.0,0.0,0.0,0.0,0.0,0.0,0.0,0.0,0.0,0.0,0.0,2.1919,2.2128,2.3154,2.3633,0.0,0.0,2.4068,2.3641,2.3907,2.377,2.3275,2.354,2.347,2.3125,2.3125,2.3348,2.3567,0.0,2.2613,2.2356,0.0,0.0,0.0,0.0,0.0,1.8059,1.6602,1.5837,1.536,1.4707,1.4375,1.4228,1.4228,1.4324,1.4402,1.4345,1.4466,1.4468,1.3914,1.3752,1.3476,1.2401,1.2288,1.2093,1.1134,1.0482,0.9873,0.9108,0.8341,0.7633,0.6995,0.7015,0.6902,0.6433,0.6621,0.6536,0.5897,0.5518,0.5066,0.4376,0.4226,0.3838,0.288,0.1996,0.147,0.1557,0.1791,0.1856,0.1678,0.132,0.0897,0.0405,0.1354,0.189,0.1879,0.1879,0.1879,0.1879,0.1879,0.2506,0.3686,0.4878,0.5034,0.4396,0.4396,0.4396,0.4396,0.4396,0.4392,0.4389,0.4818,0.4969,0.4951,0.0,0.0,0.0,0.0,0.0,0.0,0.0,0.0,0.0,0.0,0.0,0.0,0.0,0.0,0.0,0.0,0.0,0.0,0.0,0.0,0.0,0.0,0.0,2.2539,2.2863,2.4256,2.4874,0.0,0.0,0.0,0.0,2.5186,2.5082,2.4606,2.4925,2.4732,2.4158,2.4158,0.0,0.0,0.0,0.0,0.0,0.0,0.0,0.0,0.0,0.0,0.0,1.7922,1.6813,1.5858,1.57,1.534,1.4996,1.5198,1.5265,1.5239,1.5011,1.5129,1.5079,1.4369,1.4189,1.4001,1.313,1.2811,1.2609,1.2123,1.1182,1.0451,1.0214,0.9267,0.8495,0.8343,0.8277,0.8122,0.7956,0.7837,0.7489,0.6861,0.6514,0.6051,0.5468,0.5402,0.5432,0.5644,0.4612,0.3742,0.3451,0.3662,0.3704,0.3585,0.3217,0.3277,0.3597,0.3628,0.3684,0.3843,0.3843,0.3841,0.3839,0.3682,0.3761,0.4153,0.4948,0.5185,0.5026,0.5026,0.5023,0.5101,0.5023,0.5021,0.5093,0.5015,0.5018,0.5023,0.0,0.0,0.0,0.0,0.0,0.0,0.0,0.0,0.0,0.0,0.0,0.0,0.0,0.0,0.0,0.0,0.0,0.0,0.0,0.0,0.0,0.0,2.2005,2.2685,2.3351,2.4644,2.5373,2.5454,0.0,0.0,0.0,0.0,0.0,0.0,0.0,0.0,0.0,0.0,0.0,0.0,0.0,0.0,0.0,0.0,0.0,0.0,0.0,0.0,0.0,0.0,1.789,1.6347,1.6611,1.6342,1.5977,1.6389,1.6425,1.6316,1.5904,1.5798,1.5556,1.4606,1.4428,1.424,1.3821,1.3164,1.272,1.2728,1.163,1.0767,1.1092,0.9928,0.9209,1.0021,0.9666,0.9367,0.9866,0.9231,0.8715,0.8715,0.7906,0.7407,0.7279,0.7247,0.7168,0.7008,0.5924,0.5136,0.4872,0.4771,0.4639,0.4384,0.4151,0.4314,0.5026,0.5029,0.5266,0.5587,0.5587,0.5581,0.5575,0.5185,0.5182,0.5491,0.5174,0.5093,0.5093,0.5093,0.5168,0.5321,0.509,0.5093,0.5246,0.5112,0.504,0.5134,0.0,0.0,0.0,0.0,0.0,0.0,0.0,0.0,0.0,0.0,2.1309,2.1309,0.0,0.0,0.0,0.0,0.0,0.0,0.0,0.0,0.0,0.0,2.2005,2.2458,2.2588,2.3414,2.4126,2.4677,2.4806,0.0,0.0,0.0,0.0,0.0,0.0,0.0,0.0,0.0,0.0,0.0,0.0,0.0,0.0,0.0,0.0,0.0,0.0,0.0,0.0,0.0,1.9514,1.8372,1.7812,1.7353,1.6912,1.6894,1.6663,1.6374,1.6316,1.6259,1.6144,1.5556,1.5439,1.5323,1.4771,1.424,1.3914,1.3934,1.3243,1.2458,1.1873,1.1481,1.1073,1.0259,1.015,1.0192,0.9947,0.9749,0.9662,0.9662,0.9343,0.9065,0.903,0.8888,0.8629,0.8511,0.7701,0.6893,0.6231,0.588,0.5497,0.5085,0.5087,0.5087,0.5246,0.5246,0.5404,0.5565,0.5565,0.5565,0.5562,0.5326,0.5479,0.5789,0.5559,0.5559,0.5709,0.5709,0.5553,0.5321,0.5243,0.5168,0.5104,0.5286,0.5402,0.558,0.0,0.0,0.0,0.0,0.0,0.0,0.0,2.0629,2.1179,2.0839,2.1098,2.1309,2.1309,2.1309,2.1309,0.0,0.0,0.0,0.0,0.0,0.0,0.0,0.0,2.2394,2.2394,2.3835,2.4547,2.4482,0.0,2.5422,2.5033,2.5438,2.5277,2.4702,2.5086,2.5187,2.5025,0.0,0.0,2.4164,2.4926,2.469,0.0,0.0,0.0,0.0,0.0,0.0,0.0,0.0,2.0789,1.9768,1.9062,1.8283,1.7634,1.7513,1.7158,1.674,1.6488,1.6384,1.6316,1.5798,1.5672,1.5566,1.5048,1.456,1.4168,1.4219,1.3588,1.3005,1.281,1.2629,1.2324,1.1532,1.16,1.1547,1.1231,1.0709,1.0494,1.0611,0.9999,0.9489,0.9381,0.9185,0.8904,0.8782,0.8453,0.7836,0.7062,0.6447,0.598,0.5814,0.5738,0.5735,0.5577,0.5577,0.5623,0.5789,0.5789,0.5789,0.5712,0.5556,0.5556,0.5789,0.5938,0.617,0.6328,0.6703,0.6777,0.663,0.6623,0.6673,0.6838,0.699,0.7152,0.733,0.0,0.0,0.0,0.0,0.0,0.0,0.0,2.0273,2.0953,2.0564,2.0985,2.1309,2.1309,2.1309,2.1309,0.0,0.0,0.0,0.0,0.0,0.0,0.0,0.0,2.2167,2.2167,0.0,0.0,2.4272,2.5584,0.0,0.0,0.0,0.0,0.0,2.5341,2.5394,2.5036,2.4942,2.4502,0.0,0.0,2.5003,0.0,0.0,0.0,0.0,0.0,0.0,0.0,0.0,2.1933,2.1059,2.0163,1.9137,1.8251,1.8135,1.7754,1.7324,1.6853,1.6751,1.6616,1.6001,1.5938,1.5826,1.5216,1.4798,1.4505,1.4514,1.4038,1.3593,1.367,1.3502,1.3346,1.3029,1.301,1.2935,1.2562,1.2016,1.1539,1.1558,1.0642,0.9985,0.9887,0.9597,0.9403,0.9316,0.9192,0.8716,0.7791,0.7211,0.6823,0.6788,0.6827,0.676,0.6596,0.6561,0.6565,0.6602,0.6493,0.6475,0.6475,0.6325,0.6251,0.6251,0.67,0.693,0.7099,0.7693,0.7923,0.7931,0.7842,0.8112,0.8528,0.8568,0.8788,0.9069,0.0,0.0,0.0,0.0,0.0,0.0,0.0,1.9868,2.0596,2.1147,2.1276,2.1309,2.1309,2.1309,2.1309,0.0,0.0,0.0,0.0,0.0,0.0,0.0,0.0,0.0,0.0,0.0,0.0,2.3594,2.4321,0.0,0.0,0.0,0.0,0.0,0.0,2.5578,2.5486,2.5075,0.0,0.0,0.0,0.0,0.0,0.0,0.0,0.0,0.0,2.4867,2.4651,2.3528,2.3043,2.2708,2.1028,1.9784,1.8869,1.8769,1.8383,1.8038,1.7929,1.7929,1.7718,1.6688,1.6732,1.6789,1.5867,1.5561,1.5555,1.5561,1.5359,1.4997,1.4258,1.4285,1.4301,1.3828,1.4029,1.4023,1.3479,1.3585,1.3425,1.2699,1.2011,1.1703,1.168,1.1443,1.1283,1.126,1.075,0.9968,0.8646,0.8723,0.8746,0.8598,0.8783,0.8882,0.8878,0.8693,0.8589,0.8816,0.8558,0.847,0.847,0.8232,0.8232,0.8394,0.8304,0.8309,0.847,0.8385,0.838,0.8304,0.8156,0.8276,0.8546,0.8806,0.916,0.9531,0.0,0.0,0.0,0.0,0.0,0.0,1.8032,1.9625,2.0694,2.0111,2.0774,2.1309,2.1309,2.1309,2.1309,2.1309,0.0,0.0,0.0,0.0,0.0,0.0,0.0,0.0,0.0,0.0,2.3381,2.4078,2.4806,0.0,0.0,0.0,0.0,0.0,0.0,2.5195,2.5546,2.4912,0.0,0.0,0.0,0.0,0.0,0.0,0.0,0.0,0.0,0.0,2.421,2.3362,2.2877,2.2498,2.176,2.1059,2.022,1.9215,1.8767,1.8536,1.8201,1.8093,1.7993,1.7583,1.762,1.7534,1.6768,1.6374,1.6114,1.5742,1.5557,1.5438,1.5396,1.5375,1.528,1.4852,1.4639,1.4389,1.4066,1.4163,1.4056,1.3497,1.3681,1.3346,1.2237,1.2393,1.2315,1.1769,1.1535,1.1181,1.0667,0.9787,0.9328,0.937,0.946,0.9502,0.9502,0.9417,0.9313,0.9346,0.9061,0.8883,0.8714,0.8512,0.8456,0.8537,0.8912,0.9145,0.9296,0.9674,0.975,0.969,0.9914,1.011,1.0423,1.0822,1.1138,1.1442,0.0,0.0,0.0,0.0,0.0,1.8389,1.7821,1.9398,2.0467,1.9884,2.0677,2.1309,2.1309,2.1503,2.1633,2.1633,2.1908,0.0,0.0,0.0,0.0,0.0,0.0,0.0,0.0,0.0,2.4048,2.4482,2.5243,2.5341,0.0,0.0,2.5324,2.4822,0.0,0.0,0.0,0.0,0.0,0.0,0.0,0.0,0.0,0.0,0.0,0.0,0.0,0.0,0.0,0.0,0.0,2.2636,2.2309,0.0,0.0,1.9888,1.9448,1.9344,1.8738,1.8578,1.8543,1.823,1.8274,1.8185,1.7434,1.6944,1.6618,1.6384,1.6145,1.6059,1.6534,1.6478,1.6237,1.6044,1.5672,1.5259,1.5027,1.497,1.4765,1.4483,1.4681,1.4387,1.3192,1.3507,1.358,1.2949,1.2956,1.2956,1.2956,1.1875,1.1018,1.0465,1.0531,1.0567,1.0567,1.0501,1.0383,1.0305,1.0077,0.9889,0.9711,0.9416,0.9316,0.9316,0.9857,1.0051,1.0051,1.0582,1.0738,1.0692,1.1041,1.1376,1.1715,1.2134,1.2481,1.2705,0.0,0.0,0.0,0.0,0.0,0.0,1.8973,1.92,1.9735,2.1115,2.1309,2.1309,2.1309,2.1956,2.2377,2.2377,2.173,0.0,0.0,0.0,0.0,0.0,0.0,0.0,0.0,0.0,2.4482,2.4482,2.5243,2.5616,2.56,2.5616,2.5616,2.56,0.0,0.0,0.0,0.0,0.0,0.0,0.0,0.0,0.0,0.0,0.0,0.0,0.0,0.0,0.0,0.0,0.0,0.0,0.0,0.0,0.0,0.0,2.056,2.0459,1.9952,1.9798,1.9519,1.8529,1.8654,1.8694,1.7633,1.7272,1.7334,1.7761,1.7358,1.7054,1.7512,1.7456,1.7417,1.7417,1.7235,1.6978,1.6439,1.6186,1.5916,1.544,1.4823,1.4545,1.494,1.4962,1.5102,1.5357,1.5387,1.5387,1.5387,1.5387,1.4414,1.2318,1.2566,1.2699,1.2699,1.2445,1.2312,1.2306,1.196,1.1834,1.1828,1.157,1.145,1.1432,1.1232,1.1111,1.1037,1.0887,1.0887,1.1067,1.1189,1.1455,1.1956,1.2216,1.2481,1.2705,0.0,0.0,0.0,0.0,0.0,0.0,0.0,1.9301,2.0111,2.0564,2.1034,2.1309,2.1309,2.1956,2.2588,2.3124,2.2928,0.0,0.0,0.0,0.0,0.0,0.0,0.0,0.0,0.0,2.4742,2.526,2.5503,2.5616,2.5616,2.5616,2.5616,2.56,2.5082,2.513,0.0,0.0,0.0,0.0,0.0,0.0,0.0,0.0,0.0,0.0,0.0,0.0,0.0,0.0,0.0,0.0,0.0,0.0,0.0,0.0,0.0,2.0459,1.9952,1.9798,1.9709,1.938,1.9416,1.9377,1.8678,1.8486,1.8313,1.7978,1.7755,1.7703,1.8058,1.7803,1.7765,1.8311,1.8085,1.7779,1.7787,1.7674,1.7341,1.6413,1.5613,1.536,1.611,1.5636,1.5277,1.5387,1.5394,1.5394,1.5394,1.5394,1.4993,1.4021,1.3625,1.3341,1.3252,1.2597,1.2403,1.2578,1.2312,1.2192,1.2174,1.1733,1.1534,1.1516,1.1232,1.1111,1.1111,1.1037,1.1037,1.1154,1.154,1.1768,1.1974,1.2415,1.2632,1.2705,0.0,0.0,0.0,0.0,0.0,0.0,0.0,1.905,1.9981,2.0256,2.0888,2.1309,2.1309,2.1585,2.2261,2.3381,2.3202,0.0,0.0,0.0,0.0,0.0,0.0,0.0,2.3497,2.4418,2.5001,2.5195,2.5195,2.5195,2.5195,2.5195,2.5341,2.56,2.513,2.5179,0.0,0.0,0.0,0.0,0.0,0.0,0.0,0.0,0.0,0.0,0.0,0.0,0.0,0.0,0.0,0.0,0.0,0.0,0.0,0.0,2.1175,2.0746,2.0003,1.9798,1.9798,1.9798,1.9798,1.9709,1.9379,1.9125,1.8875,1.8348,1.8228,1.8206,1.8349,1.8298,1.8357,1.8881,1.8645,1.849,1.8807,1.8586,1.8082,1.7128,1.6627,1.6577,1.6927,1.6635,1.6386,1.6386,1.6386,1.6324,1.6199,1.6191,1.6036,1.5599,1.4801,1.422,1.4001,1.3639,1.3541,1.3711,1.3535,1.345,1.343,1.3047,1.2602,1.2353,1.2259,1.2009,0.0,1.2084,1.2153,1.2287,1.287,1.2866,1.2687,1.3464,1.3294,1.279,0.0,0.0,0.0,0.0,0.0,0.0,0.0,1.8503,1.9353,2.0162,2.0778,2.115,2.1214,2.1006,2.1545,2.328,0.0,0.0,0.0,0.0,0.0,0.0,0.0,0.0,2.3513,2.4887,2.5276,2.4563,2.4515,2.4482,2.4482,2.4434,2.477,2.5535,2.5535,2.553,0.0,0.0,0.0,0.0,0.0,0.0,0.0,0.0,0.0,0.0,0.0,0.0,0.0,0.0,0.0,0.0,0.0,0.0,0.0,0.0,0.0,0.0,0.0,1.9798,1.9798,1.9798,1.9798,1.9798,1.9798,1.9379,0.0,1.891,1.8825,1.8663,1.8585,1.8887,1.9208,1.9239,1.9127,1.9123,1.9479,1.8883,1.8234,1.7735,1.7897,1.7966,1.7579,1.7792,1.798,1.7963,1.7963,1.78,1.7449,1.7432,1.7261,1.6893,1.5997,1.5375,1.4896,1.5204,1.5372,1.5394,1.5394,1.5394,1.5379,1.5124,1.4574,1.3831,1.3944,1.3596,1.2912,1.3651,1.4035,1.4116,1.4705,1.4472,1.3899,1.5029,1.43,1.3124,0.0,0.0,0.0,0.0,0.0,0.0,0.0,0.0,0.0,0.0,1.9815,1.9952,2.04,2.0895,2.1548,0.0,0.0,0.0,0.0,0.0,0.0,0.0,0.0,0.0,2.3513,2.4887,2.5535,2.5341,2.45,2.4264,2.4482,2.3667,2.3795,2.4758,2.4758,2.4847,0.0,0.0,0.0,0.0,0.0,0.0,0.0,0.0,0.0,0.0,2.228,2.1888,0.0,0.0,0.0,0.0,0.0,0.0,0.0,0.0,2.0497,2.0093,1.985,0.0,1.9798,1.9798,1.9798,1.9798,0.0,1.9709,1.9599,1.9487,0.0,2.0018,1.9868,2.0266,2.0607,2.0398,2.0347,2.0159,1.9551,1.9182,1.9114,1.9334,1.9009,1.8602,1.8193,1.7857,1.7483,1.7201,1.7184,1.7141,1.7055,1.7047,1.6876,1.6499,1.6815,1.6596,1.5785,1.5292,1.522,1.5394,1.5394,1.5394,1.5379,1.5124,1.4889,1.4714,1.4558,1.4304,1.4127,1.4048,1.416,1.4473,1.455,1.4598,1.4772,1.527,1.5144,1.4803,0.0,0.0,0.0,0.0,0.0,0.0,0.0,0.0,0.0,0.0,0.0,1.9412,1.9749,2.0257,0.0,0.0,0.0,0.0,0.0,0.0,0.0,0.0,0.0,2.3574,2.3375,2.4627,2.4958,2.4319,2.3554,2.3317,2.3511,2.2745,2.3147,2.4482,2.4482,2.4583,0.0,0.0,0.0,0.0,0.0,0.0,0.0,0.0,0.0,0.0,2.1641,2.1307,0.0,2.1003,2.0878,2.0741,0.0,0.0,0.0,0.0,2.0351,2.0105,1.985,1.9987,2.02,2.02,2.02,2.02,2.02,0.0,0.0,0.0,0.0,0.0,2.0024,2.0373,2.0699,2.0479,2.0686,2.0589,1.9902,1.9506,1.9391,1.9582,1.9093,1.8755,1.8515,1.8203,1.7886,1.768,1.7428,1.7208,1.7042,1.6802,1.6559,1.6345,1.6739,1.6809,1.6505,1.6429,1.6435,1.655,1.655,1.655,1.6624,1.6427,1.6171,1.5825,1.589,1.5662,1.5334,1.5543,1.5729,1.5912,1.6,1.5927,1.5863,1.639,1.6057,1.5477,0.0,0.0,0.0,0.0,0.0,0.0,0.0,0.0,0.0,0.0,0.0,0.0,0.0,0.0,0.0,0.0,0.0,0.0,0.0,0.0,0.0,0.0,2.3281,2.3311,2.2932,2.3967,2.3989,2.2986,2.2366,2.2207,2.2473,2.1845,2.2417,2.4015,2.4241,2.4285,0.0,0.0,0.0,0.0,0.0,0.0,0.0,0.0,0.0,0.0,0.0,0.0,0.0,2.0712,2.0616,2.0508,2.0608,0.0,0.0,0.0,0.0,0.0,2.0029,2.0359,2.0747,2.0605,2.0539,2.0539,2.0539,0.0,0.0,0.0,0.0,0.0,0.0,2.0215,2.0504,2.0306,2.0523,2.0546,2.0189,1.9833,1.9545,1.9391,1.8984,1.8746,1.868,1.8533,1.8505,1.8448,1.7908,1.7542,1.7225,1.6766,1.6468,1.6315,1.6529,1.6746,1.6918,1.7603,1.798,1.804,1.804,1.804,1.804,1.804,1.7619,1.6927,1.7363,1.7158,1.6429,1.717,1.7501,1.7586,1.7843,1.7488,1.6952,1.77,1.7049,1.5974,0.0,0.0,0.0,0.0,0.0,0.0,0.0,0.0,0.0,0.0,0.0,0.0,0.0,0.0,0.0,0.0,0.0,0.0,0.0,0.0,0.0,2.1325,2.1576,2.1657,2.1568,2.2359,2.313,2.3808,2.2207,2.1916,2.2802,2.1183,2.0918,2.1848,2.2963,2.3264,2.292,0.0,0.0,0.0,2.3023,0.0,0.0,0.0,0.0,0.0,0.0,0.0,0.0,1.9391,1.8914,1.8398,1.8906,0.0,0.0,0.0,0.0,0.0,2.0341,2.0799,2.1095,2.0153,1.9936,1.9936,1.9936,0.0,0.0,0.0,0.0,0.0,2.0548,2.1324,2.1795,2.1188,2.0579,2.0148,1.9882,1.9764,1.9887,2.0186,1.9733,1.9265,1.8901,1.8366,1.7939,1.7599,1.7492,1.7404,1.7338,1.726,1.7051,1.6553,1.7303,1.747,1.6918,1.7338,1.7723,1.804,1.804,1.804,1.804,1.804,1.7951,1.7789,1.7891,1.7865,1.7679,1.7525,1.7655,1.792,1.7655,1.7669,1.7789,1.7951,1.7789,1.7627,0.0,0.0,0.0,0.0,0.0,0.0,0.0,0.0,0.0,0.0,0.0,0.0,0.0,0.0,0.0,0.0,0.0,0.0,0.0,0.0,2.0509,2.0509,2.0256,2.0438,2.1117,2.1704,2.2072,2.2163,2.1152,2.0916,2.1416,2.0992,2.0767,2.0767,2.2086,2.257,2.2419,2.2813,0.0,0.0,0.0,0.0,0.0,0.0,0.0,0.0,0.0,0.0,0.0,0.0,1.8822,1.8556,1.8838,0.0,0.0,0.0,0.0,0.0,2.0127,2.074,2.1276,2.0799,2.0489,2.0275,2.0275,2.0024,0.0,0.0,0.0,2.0182,2.0212,2.0814,2.1174,2.0738,1.9788,1.9336,1.9723,1.9323,1.9272,1.9986,1.9633,1.9191,1.9056,1.8753,1.8536,1.8337,1.8056,1.7862,1.7862,1.7588,1.7304,1.7028,1.7413,1.7754,1.7868,1.8058,1.8071,1.804,1.804,1.804,1.804,1.804,1.804,1.804,1.804,1.804,1.8023,1.7843,1.7877,1.8014,1.7843,1.7877,1.804,1.804,1.804,1.804,0.0,0.0,0.0,0.0,0.0,0.0,0.0,0.0,0.0,0.0,0.0,0.0,0.0,0.0,0.0,0.0,0.0,0.0,0.0,0.0,1.987,1.987,1.9377,1.9566,2.0524,2.0912,2.0929,2.0609,2.0224,2.0035,2.01,2.0737,2.071,2.0233,2.1569,2.2161,2.2167,2.248,2.2933,0.0,0.0,0.0,0.0,0.0,0.0,0.0,0.0,0.0,0.0,0.0,0.0,0.0,0.0,0.0,0.0,1.859,1.9339,2.0288,2.0105,2.0718,2.1356,2.1356,0.0,2.0821,2.0729,2.0321,1.9952,1.985,1.9798,1.978,1.9775,2.0077,2.0311,2.0214,1.92,1.8689,1.9391,1.8827,1.8682,1.9567,1.9349,1.9075,1.9075,1.9075,1.9075,1.9075,1.8741,1.8472,1.8472,1.8056,1.7716,1.7579,1.7716,1.8002,1.8531,1.8781,1.8722,1.8425,1.8425,1.8345,1.8193,1.8193,1.8121,1.804,1.804,1.804,1.804,1.804,1.804,1.804,1.804,1.804,1.804,1.804,1.804,1.804,0.0,0.0,0.0,0.0,0.0,0.0,0.0,0.0,0.0,0.0,0.0,0.0,0.0,0.0,0.0,0.0,0.0,0.0,0.0,0.0,1.9174,1.9174,1.913,1.9145,1.9232,1.9269,1.9759,2.0693,2.0049,1.9735,1.9726,2.0053,2.0152,2.0152,2.1435,2.2003,2.2047,2.2643,2.2889,2.2933,0.0,0.0,0.0,0.0,0.0,0.0,0.0,0.0,0.0,0.0,0.0,0.0,0.0,0.0,1.7896,1.7855,1.8943,2.0229,2.0777,2.1083,2.1195,2.1195,2.1272,2.1242,2.0725,2.0586,2.0409,1.9901,1.9798,1.9811,1.9809,1.9846,1.9951,2.0312,1.9432,1.8639,1.8541,1.8423,1.8568,1.9065,1.9085,1.9075,1.9075,1.9075,1.9075,1.9075,1.9065,1.9075,1.9075,1.8998,1.8731,1.8269,1.8731,1.8682,1.8024,1.8981,1.9529,1.9747,1.9747,1.9441,1.8922,1.8922,1.8603,1.804,1.804,1.804,1.804,1.804,1.804,1.804,1.804,1.804,1.804,1.804,1.804,1.804,0.0,0.0,0.0,0.0,0.0,0.0,0.0,0.0,0.0,0.0,0.0,0.0,0.0,0.0,0.0,0.0,0.0,0.0,0.0,1.9101,1.9101,1.9101,1.9101,1.9101,1.9101,1.9101,1.9293,1.97,1.9427,1.9325,1.9325,1.9438,1.9478,1.9522,2.0422,2.0814,2.0857,2.1467,2.1728,2.1757,2.2178,0.0,0.0,0.0,0.0,0.0,0.0,0.0,0.0,0.0,1.7787,1.7747,1.7639,1.7679,1.776,1.7516,1.8508,1.9662,1.9628,2.0642,2.1599,2.1198,2.1725,0.0,0.0,2.0312,2.0459,1.9901,1.9798,1.9808,1.9731,1.9116,1.8792,1.9182,1.8603,1.8175,1.8383,1.8382,1.8547,1.9013,1.9075,1.9075,1.9075,1.9075,1.9075,1.9075,1.9075,1.9075,1.9075,1.9075,1.9008,1.8808,1.9008,1.909,1.9113,1.9494,2.0021,2.0677,2.0169,1.9747,1.9529,1.9529,1.9441,1.9204,1.9204,1.8975,1.8603,1.8603,1.8603,1.8674,1.9054,1.8975,1.8603,1.8603,1.8362,1.804,0.0,0.0,0.0,0.0,0.0,0.0,0.0,0.0,0.0,0.0,0.0,0.0,0.0,0.0,0.0,0.0,0.0,0.0,1.8418,1.8446,1.8494,1.8693,1.8707,1.8745,1.8898,1.8898,1.8988,1.9101,1.9101,1.9101,1.9101,1.9319,1.942,1.9449,2.0088,2.0378,2.0407,2.0814,2.1003,2.1032,2.1369,2.0838,0.0,0.0,0.0,0.0,0.0,0.0,0.0,0.0,1.7503,1.7585,1.7421,1.7503,1.7598,1.7434,1.8262,1.9169,1.9251,2.0358,2.1313,2.0713,0.0,0.0,1.9846,1.9991,2.0345,1.9484,1.9573,1.9812,1.9976,1.9132,1.854,1.8877,1.8262,1.7885,1.8319,1.8382,1.8547,1.9013,1.9075,1.9075,1.9075,1.9075,1.9075,1.9075,1.9075,1.9075,1.9075,1.9075,1.9075,1.9075,1.9075,1.922,1.9609,1.9754,2.0141,2.0907,2.043,2.0246,2.0216,2.0216,2.006,1.9904,1.9904,1.9678,1.9301,1.9301,1.9301,1.9301,1.9756,1.9678,1.9301,1.9301,1.8984,1.8576,0.0,0.0,0.0,0.0,0.0,0.0,0.0,0.0,0.0,0.0,0.0,0.0,0.0,0.0,0.0,0.0,0.0,0.0,1.6943,1.6984,1.7256,1.776,1.7787,1.8028,1.8461,1.85,1.8707,1.9101,1.9101,1.9101,1.9116,1.9783,2.0088,2.0117,2.0712,2.0973,2.0973,2.0973,2.0973,2.0947,2.0543,1.9992,0.0,0.0,0.0,0.0,0.0,0.0,0.0,0.0,1.682,1.7115,1.665,1.682,1.7282,1.7679,1.8221,1.893,1.999,2.0287,2.0158,1.9724,0.0,0.0,1.9067,1.9704,2.0134,1.8554,1.905,1.9966,2.0545,2.0116,1.9598,1.9575,1.8555,1.7885,1.8383,1.8446,1.8622,1.909,1.9131,1.9142,1.9075,1.9075,1.9075,1.9131,1.9075,1.9075,1.9131,1.9075,1.9075,1.9075,1.9075,1.9075,1.9075,1.9588,1.9975,2.0431,2.0886,2.1043,2.0944,2.0944,2.0547,1.9904,1.9904,1.9894,1.9904,1.9904,1.9904,1.9894,1.9904,1.9894,1.9904,1.9904,1.9904,1.9904,0.0,0.0,0.0,0.0,0.0,0.0,0.0,0.0,0.0,0.0,0.0,0.0,0.0,0.0,0.0,0.0,0.0,0.0,1.6418,1.6791,1.7066,1.7242,1.7611,1.7868,1.7988,1.7988,1.8383,1.9101,1.9101,1.9101,1.9101,1.9022,1.8953,1.8967,1.8819,1.8767,1.8767,1.8767,1.8767,1.8754,1.9114,1.8879,0.0,0.0,0.0,0.0,0.0,0.0,0.0,0.0,0.0,0.0,1.6552,1.6885,1.727,1.6978,1.7505,1.8256,1.848,1.8879,1.9182,1.8919,1.9502,1.9727,1.8049,1.9083,2.0107,1.8903,1.8955,1.9306,1.9447,1.9331,1.9318,1.969,1.932,1.9193,1.9733,2.0102,2.0189,1.9824,1.9781,1.9649,1.9142,1.9075,1.933,1.9781,1.9396,1.933,1.9781,1.933,1.9075,1.9075,1.9075,1.9075,1.9075,1.921,1.9665,2.042,2.0565,2.0968,2.1492,2.1492,2.1405,2.1252,2.1252,2.1011,2.0624,2.0624,2.0624,2.0624,2.1088,2.1011,2.0624,2.0624,2.0304,1.9904,0.0,0.0,0.0,0.0,0.0,0.0,0.0,0.0,0.0,0.0,0.0,0.0,0.0,0.0,0.0,0.0,0.0,0.0,0.0,1.5364,1.5735,1.5966,1.6475,1.6799,1.6941,1.734,1.7801,1.8316,1.8693,1.8936,1.9101,1.886,1.8669,1.85,1.8187,1.7948,1.7787,1.7787,1.7787,1.7828,1.807,1.792,1.7597,0.0,0.0,0.0,0.0,0.0,0.0,0.0,0.0,0.0,1.5944,0.0,1.6727,1.6554,1.7073,1.7764,1.7872,1.8158,1.8417,1.8151,1.8553,1.8816,1.798,1.8358,1.8824,1.8763,1.8695,1.8754,1.9213,1.9282,1.9344,1.9696,1.9808,1.9961,2.032,2.0802,2.0864,2.0281,2.0373,2.0278,1.9641,1.9803,2.0042,2.0484,2.0096,2.0096,2.0484,1.9846,1.9649,1.9911,1.9396,1.9198,1.9518,1.9198,1.953,2.042,2.042,2.0907,2.1807,2.1807,2.1807,2.1807,2.1807,2.1568,2.1252,2.1252,2.1252,2.1252,2.1655,2.1568,2.1252,2.1252,2.1011,2.0615,0.0,0.0,0.0,0.0,0.0,0.0,0.0,0.0,0.0,0.0,0.0,0.0,0.0,0.0,0.0,0.0,0.0,0.0,0.0,0.0,1.3841,1.4301,1.4809,1.5254,1.5628,1.6506,1.6941,1.697,1.7961,1.863,1.8988,1.8936,1.8693,1.8305,1.8252,1.7974,1.753,1.7558,1.7558,1.7517,1.7164,1.7011,1.6964,1.6539,0.0,0.0,0.0,0.0,0.0,0.0,0.0,0.0,1.5108,1.5435,1.5893,1.6312,1.6854,1.7408,1.7821,1.7896,1.7808,1.7479,1.7644,1.8057,1.8515,1.7594,1.6991,1.8394,1.8401,1.8438,1.9425,1.9658,1.9718,1.9794,2.0147,2.0502,2.0488,2.0927,2.1077,2.0565,2.0911,2.1014,2.043,2.0797,2.1123,2.1187,2.1123,2.1123,2.1187,2.0549,2.0484,2.106,1.9911,1.9584,2.0161,1.9584,1.9724,2.0623,2.0563,2.098,2.1883,2.1807,2.1807,2.1807,2.1807,2.1807,2.1807,2.1807,2.1807,2.1807,2.1807,2.1807,2.1807,2.1807,2.1807,2.1807,0.0,0.0,0.0,0.0,0.0,0.0,0.0,0.0,0.0,0.0,0.0,0.0,0.0,0.0,0.0,0.0,0.0,0.0,0.0,0.0,1.3638,1.3753,1.4626,1.5142,1.522,1.5433,1.5664,1.6009,1.7286,1.7988,1.8068,1.776,1.738,1.6925,1.6544,1.6126,1.57,1.568,1.5688,1.5664,1.5569,1.5531,1.5525,1.5448,1.533,0.0,0.0,0.0,0.0,0.0,0.0,0.0,1.5108,1.5453,1.5904,1.5953,1.6353,1.6864,1.7243,1.7085,1.6913,1.717,1.7297,1.7466,1.7909,1.776,1.7693,1.8393,1.8549,1.8682,1.8963,1.968,2.0293,2.0435,2.1259,2.1851,2.1885,2.2357,2.2396,2.1773,2.1794,2.1631,2.0974,2.1003,2.1313,2.1865,2.1376,2.1313,2.1865,2.125,2.0933,2.1123,2.0805,2.0741,2.0869,2.0741,2.116,2.2127,2.1538,2.1776,2.2703,2.2111,2.1807,2.1807,2.1807,2.1807,2.1807,2.1807,2.1807,2.1807,2.1807,2.1807,2.1807,2.1807,2.1807,2.1807,0.0,0.0,0.0,0.0,0.0,0.0,0.0,0.0,0.0,0.0,0.0,0.0,0.0,0.0,0.0,0.0,0.0,0.0,0.0,1.1971,1.2647,1.3055,1.3584,1.3931,1.4107,1.4351,1.4652,1.5084,1.6027,1.6714,1.7149,1.6912,1.6574,1.6133,1.5874,1.5492,1.5106,1.5106,1.5095,1.5116,1.5101,1.4981,1.4846,1.5017,1.4708,1.4253,1.4617,0.0,0.0,0.0,0.0,0.0,0.0,0.0,1.4882,1.4857,1.5519,1.6272,1.6485,1.6509,1.6565,1.682,1.7031,1.7323,1.772,1.7948,1.8266,1.8707,1.8516,1.8437,1.8933,1.9584,2.0134,2.0505,2.1523,2.2286,2.2283,2.2732,2.2799,2.1938,2.2249,2.2238,2.1368,2.1776,2.2187,2.2555,2.2249,2.2187,2.2555,2.1928,2.1741,2.2063,2.1439,2.125,2.1553,2.1545,2.1847,2.2604,2.2443,2.2831,2.3486,2.2317,2.1807,2.1807,2.1807,2.1807,2.1807,2.1807,2.1807,2.1807,2.1807,2.1807,2.1807,2.1807,2.1807,2.1807,0.0,0.0,0.0,0.0,0.0,0.0,0.0,0.0,0.0,0.0,0.0,0.0,0.0,0.0,0.0,0.0,0.0,0.0,0.0,1.0517,1.1351,1.2231,1.2325,1.2501,1.2929,1.3351,1.3742,1.4093,1.4455,1.5039,1.5712,1.604,1.5922,1.5472,1.5473,1.5254,1.4857,1.4835,1.4823,1.4846,1.4763,1.4563,1.4266,1.454,1.3994,1.3179,1.3841,1.3382,1.2569,1.319,0.0,0.0,0.0,0.0,1.3589,1.3779,1.4595,1.5466,1.5656,1.602,1.638,1.638,1.6808,1.7282,1.7639,1.8108,1.8592,1.8936,1.8461,1.8328,1.9293,1.9654,2.0001,2.0481,2.1559,2.238,2.2431,2.2858,2.2799,2.2033,2.2631,2.2774,2.1857,2.2598,2.3078,2.3078,2.3078,2.3078,2.3078,2.2555,2.2555,2.3065,2.2002,2.169,2.2298,2.2143,2.2355,2.2826,2.3351,2.3768,2.4047,2.2745,2.2166,2.2166,2.2025,2.2101,2.2166,2.2025,2.2025,2.1949,2.1873,2.1807,2.1807,2.1807,2.1807,2.1807,0.0,0.0,0.0,0.0,0.0,0.0,0.0,0.0,0.0,0.0,1.1319,1.1019,1.0687,1.0312,0.0,0.0,0.0,0.0,0.8835,0.0,0.0,1.1348,1.1594,1.199,1.2569,1.2618,1.2715,1.2764,1.2813,1.289,1.3064,1.456,1.5017,1.455,1.4574,1.4286,1.3779,1.38,1.38,1.3789,1.3408,1.3236,1.3145,1.2919,1.2723,1.259,1.2735,1.2618,1.2529,1.2618,1.2578,0.0,0.0,0.0,1.2803,1.3589,1.3909,1.4236,1.5006,1.5534,1.5876,1.5876,1.6539,1.7199,1.7282,1.7908,1.85,1.8592,1.8745,1.9194,2.0007,2.0528,2.0898,2.1213,2.2173,2.2962,2.3053,2.3065,2.3254,2.367,2.3395,2.3015,2.2924,2.305,2.3078,2.3078,2.3078,2.3078,2.3078,2.3005,2.3005,2.3078,2.2944,2.2884,2.2944,2.2946,2.3207,2.384,2.4183,2.4284,2.412,2.3902,2.3756,2.3756,2.3128,2.3202,2.3756,2.3128,2.2852,2.2777,2.2101,2.1807,2.1807,2.1807,2.1807,2.1807,0.0,0.0,0.0,0.0,0.0,0.0,0.0,0.0,0.0,0.0,0.0,1.0128,0.9806,0.9509,0.0,0.0,0.0,0.0,0.7538,0.8077,0.0,0.9642,1.0033,1.0475,1.0957,1.1005,1.1103,1.1297,1.1424,1.1647,1.203,1.2899,1.332,1.3365,1.334,1.3189,1.2972,1.2972,1.2847,1.2645,1.2454,1.2243,1.2061,1.2136,1.1808,1.1434,1.2215,1.1968,1.146,1.2224,1.2175,1.1877,1.2076,0.0,0.0,0.0,1.3246,1.4003,1.4869,1.5232,1.549,1.5744,1.6095,1.6539,1.706,1.7516,1.7828,1.8068,1.8461,1.9069,2.0012,2.0647,2.1167,2.1631,2.2417,2.3107,2.3539,2.3587,2.3676,2.4062,2.3864,2.3533,2.3199,2.3115,2.3078,2.3078,2.3078,2.3078,2.3078,2.3078,2.3078,2.3078,2.3078,2.3078,2.3078,2.3452,2.4054,2.4895,2.5041,2.5196,2.5429,2.5004,2.4564,2.4108,2.3768,2.3768,2.4036,2.3768,2.335,2.2927,2.2628,2.2187,2.1807,2.1807,2.1807,2.1807,0.0,0.0,0.0,0.0,0.0,0.0,0.0,0.0,0.0,0.0,0.0,0.0,0.8956,0.0,0.0,0.0,0.0,0.0,0.6191,0.0,0.0,0.0,0.0,0.8665,0.9197,0.9335,0.9529,0.9819,1.0132,1.057,1.0971,1.1142,1.1408,1.1795,1.2128,1.234,1.2464,1.2205,1.1955,1.1794,1.1556,1.1304,1.1056,1.1243,1.0869,1.0332,1.1368,1.1099,1.0344,1.141,1.136,1.0905,1.1209,1.141,0.0,0.0,0.0,1.3637,1.4351,1.4717,1.5016,1.5379,1.5718,1.6134,1.6705,1.7018,1.7323,1.772,1.8187,1.8829,1.9893,2.0596,2.122,2.1888,2.2527,2.3126,2.3801,2.392,2.3989,2.4271,2.4319,2.4121,2.3502,2.3509,2.3471,2.3138,2.3258,2.3365,2.3365,2.3198,2.3198,2.3365,2.3198,2.3078,2.3078,2.3703,2.4469,2.5398,2.5536,2.59,2.6465,2.5886,2.53,2.4696,2.448,2.4552,2.4696,2.448,2.4059,2.357,2.335,2.2905,2.2392,2.2176,2.2101,2.2111,0.0,0.0,0.0,0.0,0.0,0.0,0.0,0.0,0.0,0.0,0.0,0.0,0.7908,0.7189,0.6803,0.7058,0.0,0.0,0.0,0.0,0.0,0.0,0.0,0.0,0.7491,0.8101,0.831,0.8205,0.8955,0.9279,0.9308,0.9343,0.9475,0.9784,1.1103,1.194,1.2438,1.136,1.1174,1.1539,1.0659,1.0286,1.0219,0.9851,0.9695,0.968,0.9732,0.9718,0.9666,0.9718,0.9718,0.9718,0.9718,1.0087,1.0549,0.0,0.0,0.0,1.3016,1.3744,1.4461,1.4482,1.5499,1.6368,1.5953,1.6582,1.7323,1.772,1.8187,1.8829,1.9893,2.0596,2.122,2.1888,2.2527,2.312,2.38,2.3914,2.4142,2.4801,2.4915,2.4724,2.4137,2.4553,2.4381,2.3185,2.3721,2.4073,2.4073,2.3424,2.3365,2.4002,2.3424,2.3078,2.3078,2.3703,2.4293,2.487,2.536,2.59,2.6533,2.6452,2.6383,2.6314,2.5594,2.5664,2.6314,2.5523,2.5229,2.5087,2.4348,2.4047,2.3902,2.3202,2.2927,2.2852,0.0,0.0,0.0,0.0,0.0,0.0,0.0,0.0,0.0,0.0,0.0,0.0,0.0,0.6252,0.6159,0.5874,0.4854,0.0,0.0,0.0,0.0,0.0,0.0,0.0,0.5794,0.5917,0.6167,0.6486,0.6764,0.7142,0.7653,0.7817,0.8078,0.8544,0.9593,1.0257,1.0609,1.0214,1.001,0.9903,0.9562,0.9242,0.8883,0.8757,0.8366,0.7972,0.837,0.8528,0.8534,0.8901,0.928,0.9614,0.9614,0.9718,1.002,1.0771,1.1275,1.1692,1.2452,1.291,1.3391,1.4188,1.4774,1.5448,1.6527,1.6776,1.6967,1.7777,1.7976,1.8256,1.8928,2.0131,2.122,2.1888,2.2178,2.2701,2.3746,2.3923,2.4296,2.5343,2.5554,2.5481,2.5272,2.5077,2.4781,2.4323,2.4553,2.4509,2.4118,2.3884,2.3826,2.4073,2.3424,2.3078,2.3078,2.3339,2.3904,2.482,2.5008,2.5573,2.6533,2.6533,2.6533,2.6452,2.6176,2.6245,2.6465,2.6164,2.5746,2.5241,2.5004,2.4564,2.4047,2.3829,2.3423,2.2927,0.0,0.0,0.0,0.0,0.0,0.0,0.0,0.0,0.0,0.621,0.0,0.0,0.0,0.0,0.4946,0.3554,0.231,0.1203,0.0401,0.0489,0.0,0.0,0.0,0.0,0.0,0.4063,0.4413,0.4948,0.5133,0.5621,0.6357,0.6519,0.6838,0.7272,0.7791,0.8377,0.9025,0.8612,0.8417,0.8318,0.8139,0.7991,0.7817,0.7629,0.7307,0.7058,0.725,0.7304,0.7368,0.7735,0.8112,0.8495,0.8718,0.9033,0.9503,1.0312,1.0517,1.072,1.1751,1.21,1.2516,1.3631,1.4265,1.4956,1.6237,1.6509,1.674,1.7771,1.7765,1.7811,1.8611,1.9689,2.0649,2.1236,2.1888,2.2541,2.3165,2.3804,2.4515,2.5357,2.5916,2.6111,2.5893,2.5701,2.5412,2.5007,2.5189,2.5147,2.4751,2.4523,2.4292,2.4131,2.3662,2.3318,2.3078,2.3326,2.3891,2.482,2.4996,2.5561,2.6533,2.6533,2.6533,2.6533,2.6533,2.6533,2.6533,2.6533,2.6176,2.5664,2.5664,2.537,2.4838,2.4636,2.4215,2.3717,0.0,0.0,0.0,0.0,0.0,0.0,0.0,0.0,0.5153,0.4822,0.0,0.0,0.0,0.0,0.0,0.0179,-0.1121,-0.1661,-0.1478,-0.1254,0.0,0.0,0.0,0.0,0.1712,0.256,0.3199,0.351,0.4241,0.4839,0.5319,0.5428,0.565,0.5919,0.565,0.6339,0.7688,0.662,0.6513,0.6919,0.6401,0.6513,0.6988,0.6375,0.6534,0.6972,0.6372,0.6154,0.6154,0.6154,0.6209,0.6317,0.6864,0.7824,0.8883,0.9399,0.9562,0.9762,0.0,0.0,0.0,1.2739,1.3977,1.5029,1.5018,1.5709,1.6642,1.7749,1.7538,1.7574,1.9003,1.9335,1.9567,1.9998,2.1628,2.2627,2.2077,2.3601,2.4742,2.4785,2.5966,2.6539,2.6002,2.6447,2.6326,2.5133,2.5605,2.5893,2.5893,2.5356,2.4738,2.4118,2.4118,2.3839,2.3125,2.369,2.4255,2.482,2.5335,2.5887,2.6533,2.6533,2.6533,2.6533,2.6533,2.6533,2.6533,2.6533,2.6533,2.6533,2.6533,2.6533,2.6383,2.5594,2.5312,2.5158,0.0,0.0,0.0,0.0,0.0,0.457,0.457,0.436,0.4192,0.0,0.0,0.0,0.1336,0.1141,0.014,-0.2057,-0.2439,-0.2551,-0.2469,-0.2422,-0.2018,-0.1163,-0.111,-0.0649,0.0246,0.0818,0.1382,0.192,0.322,0.3799,0.3604,0.3497,0.3946,0.4899,0.4154,0.4035,0.4447,0.5553,0.6196,0.6425,0.6251,0.6023,0.5786,0.5605,0.5386,0.5171,0.5011,0.5226,0.555,0.555,0.5823,0.6209,0.6372,0.6966,0.7664,0.8224,0.8705,0.9138,0.9806,0.0,0.0,0.0,0.0,0.0,1.5351,1.5329,1.551,1.7526,1.7552,1.7581,1.8595,1.9494,2.0028,1.9704,2.0713,2.1641,2.196,2.2846,2.3757,2.467,2.556,2.6191,2.651,2.6674,2.6674,2.6326,2.6447,2.634,2.5893,2.5715,2.537,2.4794,2.5147,2.509,2.4496,2.4217,2.4516,2.5421,2.514,2.5536,2.6533,2.6533,2.6533,2.6533,2.6533,2.6533,2.6533,2.6533,2.6533,2.6533,2.6533,2.6533,2.6452,2.6245,2.5816,2.5241,0.0,0.0,0.0,0.4296,0.398,0.3708,0.3737,0.3569,0.3128,0.0,0.0,0.0,-0.1736,-0.1866,-0.2361,-0.3671,-0.357,-0.3413,-0.3318,-0.3182,-0.2826,-0.2237,-0.2028,-0.1606,-0.0952,-0.0572,-0.0,0.0871,0.1733,0.2289,0.2437,0.2338,0.2681,0.3502,0.2989,0.2678,0.2576,0.3735,0.4421,0.4746,0.4746,0.4805,0.4912,0.4659,0.4714,0.4787,0.457,0.468,0.4952,0.4952,0.5332,0.5823,0.5823,0.6263,0.6858,0.7385,0.7812,0.8249,0.9033,0.951,1.0,1.1125,0.0,0.0,1.437,1.4453,1.4728,1.6714,1.6696,1.6776,1.8065,1.8887,1.9344,1.9139,2.0062,2.0895,2.129,2.2474,2.3609,2.441,2.5286,2.6054,2.6721,2.6779,2.6779,2.6779,2.6779,2.6674,2.6286,2.6286,2.5988,2.537,2.5715,2.5605,2.5007,2.4624,2.4813,2.5357,2.5242,2.5521,2.6101,2.642,2.6533,2.6533,2.6533,2.6533,2.6533,2.6533,2.6533,2.6533,2.6533,2.6533,2.6533,2.6533,2.6164,2.5804,0.0,0.0,0.3604,0.3932,0.3303,0.2706,0.2593,0.2526,0.1864,0.0,-0.0585,-0.175,-0.4275,-0.4372,-0.4394,-0.4689,-0.44,-0.4122,-0.3962,-0.3626,-0.3306,-0.3031,-0.2558,-0.2207,-0.1998,-0.1775,-0.1115,-0.0,-0.0,0.0601,0.1648,0.1542,0.164,0.1887,0.2003,0.1877,0.1638,0.1671,0.2012,0.2496,0.2662,0.3279,0.4184,0.3674,0.4113,0.4948,0.4457,0.4349,0.4405,0.446,0.4846,0.5226,0.5226,0.5622,0.6242,0.6737,0.696,0.7225,0.8287,0.8639,0.899,1.0394,1.1075,0.0,1.2716,1.3221,1.3936,1.5463,1.5405,1.5569,1.7368,1.7835,1.8062,1.8414,1.9514,2.0321,2.0394,2.224,2.3736,2.3977,2.4912,2.5813,2.6534,2.6606,2.6606,2.6674,2.6779,2.6779,2.6779,2.6779,2.6553,2.6002,2.6002,2.5715,2.5189,2.5133,2.5091,2.5103,2.5511,2.5691,2.5744,2.6269,2.6533,2.6533,2.6533,2.6533,2.6533,2.6533,2.6533,2.6533,2.6533,2.6533,2.6533,2.6533,2.6533,2.6533,0.0,0.2486,0.1886,0.1949,0.1794,0.1383,0.0551,0.0297,0.0148,-0.015,-0.2093,-0.3821,-0.4724,-0.4688,-0.4643,-0.4715,-0.4488,-0.4293,-0.4172,-0.395,-0.3792,-0.3704,-0.3566,-0.3415,-0.3259,-0.3221,-0.2694,-0.1779,-0.1311,-0.0495,0.0673,-0.014,-0.0183,0.0414,0.0805,0.0857,0.0712,0.0963,0.1121,0.1343,0.2298,0.2807,0.303,0.2905,0.3012,0.3178,0.307,0.3347,0.3849,0.4349,0.457,0.468,0.468,0.5158,0.5726,0.5661,0.6002,0.6511,0.7023,0.7477,0.7966,0.8692,0.9416,0.0,1.1502,1.1786,1.2201,1.3863,1.4501,1.5052,1.6158,1.6983,1.7533,1.7623,1.8856,1.9959,2.0368,2.124,2.2248,2.3259,2.3543,2.4157,2.5246,2.5356,2.5536,2.6056,2.65,2.6779,2.6779,2.6779,2.6727,2.6621,2.6621,2.6568,2.6447,2.5988,2.5911,2.6351,2.5927,2.5895,2.6323,2.646,2.6533,2.6533,2.6533,2.6533,2.6533,2.6533,2.6533,2.6533,2.6533,2.6533,2.6533,2.6533,2.6533,2.6533,0.2789,0.2509,0.1486,-0.0732,-0.1094,-0.107,-0.1003,-0.1544,-0.2088,-0.2319,-0.3653,-0.4722,-0.5214,-0.5205,-0.5169,-0.5284,-0.5195,-0.5022,-0.479,-0.45,-0.428,-0.4148,-0.3875,-0.3707,-0.3707,-0.3574,-0.3299,-0.2925,-0.2559,-0.1947,-0.1256,-0.1235,-0.0794,-0.0,0.0233,0.0366,0.0407,0.0734,0.0896,0.0954,0.1572,0.1967,0.2247,0.2242,0.2462,0.2681,0.2681,0.2903,0.3236,0.3849,0.4018,0.4033,0.4439,0.4798,0.5104,0.5357,0.5616,0.591,0.6321,0.6874,0.7464,0.8037,0.8758,0.0,0.0,1.069,1.1114,1.2767,1.324,1.3724,1.4959,1.5807,1.6417,1.666,1.7938,1.8964,1.922,2.0723,2.2042,2.2697,2.3285,2.3974,2.4925,2.5007,2.5245,2.5839,2.6447,2.6779,2.6779,2.6779,2.6779,2.6779,2.6779,2.6779,2.6779,2.65,2.6321,2.6301,2.6202,2.6104,2.6102,2.64,2.6533,2.6533,2.6533,2.6533,2.6533,2.6533,2.6533,2.6533,2.6533,2.6533,2.6533,2.6533,2.6533,2.6533,0.2203,0.2339,0.1117,-0.2794,-0.3529,-0.3266,-0.2258,-0.2929,-0.3844,-0.4501,-0.4853,-0.5234,-0.5677,-0.5732,-0.5779,-0.5934,-0.5935,-0.5765,-0.5429,-0.5132,-0.4857,-0.466,-0.4047,-0.3777,-0.387,-0.3585,-0.3439,-0.3515,-0.3369,-0.3164,-0.2897,-0.2117,-0.1307,-0.0547,-0.0187,0.0137,0.0368,0.0725,0.0886,0.0785,0.0898,0.1178,0.1628,0.1628,0.1905,0.2347,0.2458,0.2514,0.2625,0.3236,0.3408,0.3485,0.4267,0.449,0.4656,0.5128,0.5224,0.5348,0.5731,0.6228,0.6841,0.7565,0.824,0.8832,0.0,0.0,0.0,1.1647,1.1922,1.2338,1.3659,1.4439,1.5038,1.5502,1.6754,1.7673,1.7662,2.0014,2.1812,2.2027,2.2929,2.3787,2.4557,2.4851,2.5133,2.555,2.634,2.6727,2.6621,2.6727,2.6779,2.6779,2.6779,2.6779,2.6779,2.6779,2.6568,2.6071,2.6356,2.6256,2.5861,2.6225,2.642,2.6533,2.6533,2.6533,2.6533,2.6533,2.6533,2.6533,2.6533,2.6533,2.6533,2.6533,2.6533,2.6533,0.0314,0.0335,-0.0348,-0.2612,-0.33,-0.3484,-0.3176,-0.3387,-0.3883,-0.4732,-0.5234,-0.5677,-0.6064,-0.6119,-0.6168,-0.614,-0.602,-0.5887,-0.584,-0.562,-0.5513,-0.5441,-0.4718,-0.4274,-0.4146,-0.3637,-0.3354,-0.3259,-0.3246,-0.3142,-0.3097,-0.2967,-0.2773,-0.2501,-0.0768,-0.0,0.0099,0.065,0.0739,0.0505,0.0785,0.0954,0.101,0.101,0.1065,0.1177,0.1734,0.1902,0.2014,0.2625,0.3016,0.3357,0.3644,0.4188,0.4711,0.4422,0.4367,0.4448,0.4863,0.4882,0.5136,0.6493,0.7007,0.7483,0.8657,0.0,0.9487,1.0082,0.0,1.1486,1.2075,0.0,0.0,1.3951,1.5285,1.6191,1.6105,1.825,2.0109,2.073,2.1275,2.2061,2.3182,2.4337,2.4794,2.435,2.5879,2.6568,2.6002,2.65,2.6779,2.6779,2.6779,2.6779,2.6779,2.6779,2.6779,2.6674,2.6145,2.6094,2.6512,2.5974,2.5975,2.6533,2.6533,2.6533,2.6533,2.6533,2.6533,2.6533,2.6533,2.6533,2.6533,2.6533,2.6533,2.6533,-0.0852,-0.1486,-0.2301,-0.2886,-0.3354,-0.3553,-0.3372,-0.3938,-0.4463,-0.4842,-0.5508,-0.6009,-0.6178,-0.6178,-0.6178,-0.6178,-0.6147,-0.6043,-0.5916,-0.5831,-0.5731,-0.5613,-0.4812,-0.4424,-0.4453,-0.3685,-0.3338,-0.343,-0.3289,-0.3168,-0.3171,-0.3172,-0.3153,-0.3063,-0.1482,-0.051,-0.0,0.026,0.0373,0.0449,0.0785,0.0898,0.0898,0.0785,0.0785,0.0954,0.1177,0.1288,0.1288,0.1564,0.1789,0.2021,0.2851,0.3655,0.4268,0.4296,0.4341,0.4368,0.4492,0.4702,0.5083,0.5731,0.6532,0.7286,0.7908,0.852,0.9137,0.9697,0.0,0.0,0.0,0.0,0.0,0.0,1.4087,1.4811,1.4744,1.6527,1.8319,1.982,2.0733,2.1566,2.2408,2.3682,2.435,2.4118,2.5133,2.5646,2.537,2.5934,2.6286,2.6286,2.6621,2.6779,2.6779,2.6779,2.6779,2.6794,2.6133,2.5909,2.6121,2.5756,2.5724,2.5975,2.6382,2.6533,2.6533,2.6533,2.6533,2.6533,2.6533,2.6533,2.6533,2.6533,2.6164,2.5804,-0.1682,-0.2587,-0.3363,-0.3164,-0.337,-0.3517,-0.346,-0.4283,-0.4897,-0.4897,-0.5673,-0.6178,-0.6178,-0.6178,-0.6178,-0.6178,-0.6225,-0.6246,-0.6091,-0.6081,-0.5958,-0.571,-0.4934,-0.4485,-0.4449,-0.3673,-0.3357,-0.3534,-0.3357,-0.327,-0.327,-0.327,-0.3273,-0.3284,-0.2376,-0.1281,-0.0,-0.0,0.0112,0.0336,0.0729,0.0842,0.0729,0.0729,0.0785,0.0898,0.0898,0.0898,0.0897,0.0783,0.1008,0.1408,0.2123,0.3087,0.3974,0.4177,0.4244,0.4301,0.4232,0.4492,0.4876,0.5222,0.6004,0.6818,0.7145,0.7717,0.8366,0.9005,0.9172,0.0,0.0,0.0,1.1191,1.2134,0.0,1.3536,1.3777,1.5047,1.6763,1.878,2.0245,2.1376,2.2039,2.3135,2.3813,2.3839,2.4567,2.4951,2.4738,2.5314,2.5715,2.5893,2.634,2.6621,2.6779,2.6779,2.6727,2.6568,2.591,2.5567,2.5534,2.5435,2.546,2.5624,2.6214,2.6533,2.6533,2.6533,2.6533,2.6533,2.6533,2.6533,2.6533,2.6533,2.6107,2.5594,-0.2213,-0.2569,-0.3008,-0.3245,-0.3307,-0.3401,-0.3561,-0.4349,-0.4897,-0.4897,-0.5673,-0.6178,-0.6178,-0.6178,-0.6178,-0.6178,-0.6351,-0.6459,-0.6454,-0.6454,-0.6278,-0.5923,-0.5135,-0.4491,-0.4138,-0.3661,-0.34,-0.3406,-0.34,-0.3395,-0.3395,-0.3395,-0.3345,-0.3305,-0.3468,-0.2233,-0.0,-0.0,-0.0,0.0056,0.0673,0.0729,0.0449,0.0785,0.0898,0.0898,0.0898,0.0898,0.0842,0.0505,0.1178,0.2079,0.1681,0.2693,0.4039,0.3854,0.3903,0.3971,0.3914,0.3857,0.4085,0.5039,0.5301,0.5488,0.6229,0.6465,0.6662,0.7391,0.7957,0.8458,0.9256,0.973,1.0309,1.1169,1.1677,0.0,0.0,1.4074,1.5362,1.7359,1.9651,2.1376,2.2039,2.2701,2.3075,2.3138,2.4266,2.4738,2.4176,2.4681,2.5314,2.5893,2.5893,2.6233,2.6779,2.6779,2.65,2.5893,2.5328,2.5003,2.4949,2.4887,2.5121,2.5624,2.6214,2.6533,2.6533,2.6533,2.6533,2.6533,2.6533,2.6533,2.6533,2.6533,2.6452,2.6314,-0.3346,-0.3452,-0.3504,-0.3563,-0.3604,-0.3812,-0.4385,-0.4791,-0.5066,-0.5171,-0.5563,-0.5791,-0.5791,-0.5791,-0.5949,-0.636,-0.6314,-0.622,-0.6116,-0.6354,-0.6187,-0.5377,-0.5254,-0.4916,-0.431,-0.3782,-0.3523,-0.3523,-0.3441,-0.34,-0.3403,-0.3485,-0.3479,-0.3358,-0.3536,-0.314,-0.2293,-0.0672,-0.0,-0.0,0.0224,0.0224,0.0168,0.028,0.0561,0.0898,0.0898,0.0898,0.0842,0.028,0.0393,0.1009,0.2411,0.3281,0.3775,0.38,0.3837,0.3898,0.3901,0.3846,0.3938,0.4356,0.4775,0.5171,0.5549,0.5979,0.6382,0.6702,0.7205,0.779,0.8447,0.9122,0.9731,1.0325,1.0822,1.1283,0.0,1.2877,1.4264,1.5442,1.8103,1.9983,2.0296,2.1144,2.1916,2.2433,2.2834,2.3195,2.3424,2.406,2.4681,2.5314,2.5715,2.6002,2.6233,2.6233,2.5879,2.5314,2.4681,2.4398,2.4387,2.4696,2.4921,2.5134,2.6063,2.6176,2.5734,2.6314,2.6176,2.5746,2.6314,2.6164,2.5734,2.6119,2.5968,2.537,-0.3739,-0.3849,-0.3836,-0.3789,-0.3856,-0.4025,-0.4501,-0.4739,-0.4904,-0.5007,-0.523,-0.5344,-0.5344,-0.5401,-0.5599,-0.5944,-0.5962,-0.5957,-0.6083,-0.603,-0.581,-0.5291,-0.5099,-0.4779,-0.4219,-0.3897,-0.3689,-0.3645,-0.3564,-0.3507,-0.3468,-0.3547,-0.3542,-0.3471,-0.3558,-0.3596,-0.3477,-0.1962,-0.0785,-0.0,-0.0,-0.0,-0.0,-0.0,0.0224,0.0617,0.0842,0.0898,0.0785,0.0224,-0.0,0.0336,0.2354,0.3281,0.3613,0.3735,0.3812,0.384,0.3901,0.3846,0.3859,0.4001,0.43,0.4661,0.4825,0.5189,0.5594,0.6153,0.6707,0.7357,0.8042,0.8766,0.9377,0.9799,1.0174,1.0469,0.0,1.2148,1.3285,1.3907,1.667,1.8596,1.8965,2.0056,2.0996,2.1678,2.199,2.2298,2.2689,2.3352,2.406,2.4681,2.509,2.537,2.5605,2.5591,2.5258,2.4681,2.4292,2.3956,2.3747,2.4279,2.4632,2.487,2.5762,2.584,2.5312,2.5886,2.5594,2.4933,2.5441,2.5358,2.4933,2.5535,2.5016,2.3891,-0.3409,-0.3788,-0.4056,-0.4039,-0.4063,-0.4033,-0.4089,-0.4301,-0.4519,-0.4519,-0.4736,-0.4842,-0.4842,-0.4989,-0.5096,-0.5104,-0.5299,-0.564,-0.6253,-0.564,-0.5287,-0.543,-0.4765,-0.4226,-0.3812,-0.3873,-0.3871,-0.3804,-0.3809,-0.3754,-0.3585,-0.3585,-0.3583,-0.3527,-0.3599,-0.3607,-0.361,-0.3498,-0.2079,-0.0,-0.0,-0.0,-0.0,-0.0,-0.0,0.0056,0.0673,0.0842,0.0785,0.0168,0.0056,0.0393,0.1457,0.2638,0.3645,0.3757,0.3812,0.3837,0.3887,0.3838,0.384,0.3898,0.387,0.3904,0.4083,0.4105,0.448,0.5683,0.64,0.7074,0.7991,0.8727,0.9253,0.9568,0.9594,0.991,1.0742,1.1755,1.256,1.2736,1.5341,1.735,1.8035,1.9211,2.0257,2.0962,2.1655,2.2039,2.2039,2.2689,2.3365,2.4002,2.406,2.4408,2.4951,2.4951,2.4624,2.406,2.406,2.3721,2.309,2.3728,2.4293,2.4781,2.5306,2.5425,2.5158,2.5241,2.4791,2.4047,2.412,2.4036,2.412,2.4707,2.3672,2.2103,-0.3659,-0.4228,-0.4643,-0.4679,-0.4568,-0.4629,-0.4908,-0.4811,-0.4629,-0.4677,-0.4508,-0.4398,-0.4398,-0.4478,-0.4786,-0.5255,-0.531,-0.5293,-0.5153,-0.5257,-0.4991,-0.4271,-0.4515,-0.4389,-0.3823,-0.3876,-0.3895,-0.3801,-0.3828,-0.3754,-0.3585,-0.3585,-0.3135,-0.2296,-0.3225,-0.3574,-0.348,-0.1708,-0.0561,-0.0,-0.0,-0.0,-0.0,-0.0,-0.0,-0.0,0.0168,0.0224,0.0224,0.0056,0.1178,0.2599,0.2134,0.2803,0.3765,0.3815,0.3812,0.3801,0.3689,0.3713,0.3818,0.3792,0.3868,0.3883,0.3912,0.4215,0.459,0.4996,0.6072,0.7015,0.7599,0.8373,0.9053,0.93,0.9668,1.0196,1.0981,1.1511,1.1897,1.2191,1.3933,1.5407,1.621,1.7288,1.8462,1.9602,2.0705,2.1376,2.1376,2.2445,2.3173,2.3301,2.3813,2.4176,2.435,2.435,2.4002,2.3365,2.3365,2.3245,2.309,2.3728,2.3951,2.3935,2.456,2.4319,2.3644,2.4204,2.3986,2.335,2.3913,2.3599,2.2947,2.3599,2.3095,2.208,-0.3662,-0.4418,-0.5009,-0.5009,-0.4645,-0.4526,-0.4922,-0.4673,-0.4426,-0.4298,-0.412,-0.4047,-0.4047,-0.416,-0.4427,-0.481,-0.482,-0.4787,-0.4848,-0.4796,-0.4561,-0.4192,-0.427,-0.413,-0.3826,-0.3374,-0.3435,-0.4045,-0.3873,-0.3784,-0.361,-0.361,-0.3266,-0.2581,-0.2194,-0.2041,-0.1911,-0.0571,-0.0,-0.0,-0.0,0.0741,0.0,0.1871,0.1461,0.0932,0.0805,0.1135,0.1519,0.1083,0.1834,0.2947,0.2975,0.3425,0.3906,0.3835,0.3795,0.3798,0.3732,0.3727,0.3749,0.3798,0.3806,0.3945,0.4359,0.4697,0.5005,0.5498,0.6424,0.725,0.7554,0.8377,0.9093,0.933,0.9789,1.0329,1.0946,1.1384,1.1764,1.2204,1.3028,1.3773,1.4407,1.6039,1.738,1.8137,1.9403,2.025,2.0398,2.1479,2.2089,2.2053,2.2822,2.3088,2.2786,2.3088,2.2907,2.2199,2.2113,2.2113,2.2199,2.2501,2.2786,2.3167,2.3393,2.3324,2.3001,2.3327,2.3117,2.2478,2.282,2.2521,2.1928,2.2209,2.1993,2.1492,-0.3482,-0.4367,-0.4967,-0.4967,-0.4475,-0.4105,-0.4349,-0.4232,-0.405,-0.3893,-0.386,-0.3818,-0.3834,-0.3979,-0.4118,-0.4118,-0.4132,-0.437,-0.4923,-0.4282,-0.4073,-0.4578,-0.4056,-0.3818,-0.3748,-0.2668,-0.2587,-0.3753,-0.3719,-0.3668,-0.3602,-0.3618,-0.3436,-0.3012,-0.0916,0.0185,0.0546,0.0585,0.0461,0.0288,0.0288,0.1783,0.4061,0.425,0.3475,0.2388,0.215,0.2739,0.3496,0.263,0.2359,0.2558,0.3732,0.4072,0.4067,0.392,0.3835,0.3809,0.3793,0.3727,0.3632,0.3787,0.3882,0.4186,0.4981,0.529,0.5689,0.656,0.7183,0.7604,0.7836,0.8608,0.9287,0.954,0.993,1.0325,1.0798,1.1257,1.1847,1.2458,1.2599,0.0,1.2959,1.5173,1.6703,1.6769,1.8158,1.9126,1.942,2.0322,2.076,2.0632,2.1467,2.1604,2.106,2.1616,2.1616,2.106,2.0835,2.0846,2.106,2.0835,2.1368,2.2389,2.2184,2.2346,2.2777,2.2596,2.2231,2.1731,2.1502,2.1282,2.1128,2.0906,2.0741,2.0712,-0.3005,-0.3851,-0.4452,-0.4452,-0.4285,-0.4132,-0.3924,-0.3682,-0.3696,-0.4065,-0.4036,-0.403,-0.4137,-0.4096,-0.4118,-0.4118,-0.4211,-0.4301,-0.4282,-0.4152,-0.4038,-0.3983,-0.3837,-0.3727,-0.3642,-0.247,-0.1467,-0.077,-0.1869,-0.2797,-0.3605,-0.3578,-0.2538,-0.059,-0.0188,0.1298,0.3515,0.3558,0.2821,0.1703,0.1703,0.2038,0.2645,0.384,0.4118,0.3883,0.374,0.3782,0.3819,0.3626,0.3659,0.3798,0.4005,0.4005,0.3917,0.3814,0.3829,0.3793,0.364,0.3724,0.3785,0.3807,0.4302,0.482,0.4992,0.586,0.6639,0.6842,0.732,0.7894,0.827,0.8834,0.9287,0.954,0.965,0.9922,1.0405,1.1198,1.1892,1.2448,1.2994,1.3263,1.3001,1.468,1.5836,1.6122,1.8226,1.9225,1.8731,1.9955,2.0386,1.9814,2.0515,2.0782,2.0666,2.0782,2.0782,2.0666,2.0655,2.0655,2.0666,2.0655,2.0853,2.1226,2.1156,2.1281,2.1502,2.1502,2.1425,2.1282,2.1061,2.0984,2.0906,2.0731,2.0644,2.0644,-0.2433,-0.3187,-0.3751,-0.3751,-0.3472,-0.3345,-0.3668,-0.2816,-0.2484,-0.3483,-0.3661,-0.3781,-0.4088,-0.4204,-0.4211,-0.4211,-0.4268,-0.4278,-0.4224,-0.4226,-0.4138,-0.4086,-0.3837,-0.3695,-0.3585,-0.1809,-0.0612,-0.0,-0.0682,-0.1251,-0.1731,-0.1758,-0.1129,0.0062,0.1557,0.3006,0.4274,0.4327,0.3909,0.3232,0.3232,0.3228,0.3288,0.403,0.4298,0.4254,0.4124,0.4077,0.4113,0.3996,0.4055,0.4099,0.4099,0.4034,0.3993,0.3867,0.3812,0.3785,0.3615,0.3623,0.3809,0.4287,0.4733,0.5251,0.6103,0.6778,0.7255,0.7512,0.7796,0.8091,0.8452,0.8894,0.9244,0.9367,0.9497,0.9879,1.0536,1.1153,1.1827,1.2673,1.3199,1.3301,1.2804,1.3974,1.4816,1.4982,1.6243,1.7007,1.7051,1.7775,1.8247,1.8287,1.9058,1.9465,1.9507,1.989,1.989,1.9507,1.9431,1.9431,1.9507,1.9431,1.9619,2.0009,2.0185,2.047,2.0893,2.1115,2.1128,2.1061,2.0906,2.0829,2.0731,2.0644,2.0566,2.0566,-0.1624,-0.2367,-0.2969,-0.2748,-0.2625,-0.2779,-0.3314,-0.1965,-0.1367,-0.2859,-0.3301,-0.3747,-0.4223,-0.4246,-0.4303,-0.4303,-0.403,-0.383,-0.3837,-0.3825,-0.3963,-0.4268,-0.3922,-0.3447,-0.286,-0.0988,0.0314,0.0935,0.0316,-0.0,-0.0,-0.0,0.0391,0.1175,0.3418,0.4411,0.4411,0.4381,0.4367,0.4367,0.43,0.43,0.43,0.43,0.43,0.4287,0.4191,0.4219,0.4287,0.4189,0.4156,0.4151,0.4126,0.4118,0.4075,0.3854,0.3792,0.3767,0.3651,0.3733,0.4005,0.4743,0.5182,0.577,0.7113,0.7558,0.7802,0.8201,0.8289,0.8285,0.8479,0.8813,0.9077,0.9125,0.9297,0.9766,1.0604,1.1121,1.1779,1.2774,1.3192,1.3214,1.2775,1.3363,1.3823,1.3979,1.4488,1.5043,1.5641,1.5877,1.6219,1.6793,1.7444,1.7862,1.792,1.8489,1.8489,1.792,1.7774,1.7774,1.792,1.7774,1.8133,1.8718,1.8923,1.9442,2.0098,2.043,2.0411,2.0264,2.0508,2.0498,2.0333,2.0566,2.0566,2.0566,-0.014,-0.1463,-0.228,-0.1144,-0.2165,-0.3061,-0.28,-0.1438,-0.1027,-0.2628,-0.367,-0.4437,-0.4691,-0.4442,-0.4314,-0.4314,-0.309,-0.2281,-0.2281,-0.2275,-0.2913,-0.4215,-0.4266,-0.2985,-0.0369,-0.013,0.1255,0.387,0.1287,-0.0,-0.0,-0.0,0.1613,0.4532,0.4818,0.4895,0.4754,0.4587,0.4503,0.4503,0.4367,0.43,0.43,0.43,0.43,0.43,0.4287,0.4289,0.43,0.4287,0.4284,0.4265,0.4153,0.4118,0.4091,0.3958,0.3917,0.3892,0.3829,0.4143,0.45,0.4643,0.5695,0.6773,0.7063,0.7777,0.8441,0.8484,0.8479,0.8484,0.8511,0.8549,0.8646,0.8861,0.8983,0.9243,1.0007,1.0859,1.1706,1.2463,1.2855,1.3148,1.3382,1.2961,1.2873,1.3541,1.4592,1.5386,1.5649,1.5745,1.5745,1.5816,1.5877,1.5948,1.5956,1.6018,1.6018,1.5956,1.5956,1.5948,1.5956,1.5956,1.6355,1.7133,1.7168,1.7595,1.8266,1.8301,1.8318,1.8318,1.9134,1.946,1.9539,2.0333,2.0566,2.0566,0.1053,0.0637,0.0284,0.0759,-0.0553,-0.1532,-0.1407,-0.0839,-0.0622,-0.136,-0.1804,-0.2323,-0.3088,-0.3092,-0.3364,-0.4255,-0.3777,-0.2693,-0.0942,-0.0807,-0.1072,-0.1723,-0.1723,-0.0263,0.2937,0.3002,0.3042,0.3191,0.2802,0.2736,0.2991,0.3027,0.3193,0.3561,0.4453,0.4824,0.4775,0.4693,0.4637,0.464,0.4573,0.4506,0.4436,0.4436,0.437,0.43,0.43,0.43,0.43,0.43,0.43,0.4278,0.4156,0.4118,0.4094,0.391,0.4238,0.4527,0.4531,0.4995,0.5529,0.5885,0.6415,0.7075,0.7598,0.8038,0.8339,0.8484,0.8517,0.8517,0.8517,0.863,0.8711,0.8662,0.9031,0.9489,0.9932,1.0955,1.1847,1.2398,1.2987,1.3199,1.2936,1.2848,1.284,1.2906,1.3515,1.405,1.4394,1.441,1.4545,1.5029,1.5029,1.5242,1.5675,1.5675,1.5675,1.5675,1.5675,1.5675,1.5675,1.5675,1.6156,1.6884,1.6884,1.7304,1.7997,1.7997,1.7997,1.7997,1.8399,1.8487,1.8567,1.8877,1.9362,1.9854,0.2009,0.2034,0.2189,0.263,0.1723,0.0799,0.0436,0.0436,0.0434,0.0356,0.0349,-0.0068,-0.1345,-0.1478,-0.1883,-0.2969,-0.3059,-0.1835,0.1079,0.129,0.1087,0.0606,0.0605,0.1757,0.4238,0.4763,0.4399,0.3186,0.4077,0.4507,0.4482,0.4824,0.4338,0.3295,0.4369,0.4856,0.485,0.4728,0.4745,0.4725,0.4725,0.4655,0.4574,0.4571,0.4475,0.4404,0.4404,0.4404,0.4404,0.4404,0.4608,0.4716,0.4543,0.4517,0.4593,0.469,0.5101,0.5531,0.5483,0.5867,0.6415,0.6712,0.6968,0.728,0.7859,0.811,0.8283,0.8463,0.8517,0.8517,0.8517,0.8651,0.8705,0.8544,0.91,0.9598,0.9983,1.1049,1.1983,1.2451,1.3009,1.3206,1.284,1.2928,1.295,1.2819,1.3023,1.325,1.3484,1.3404,1.3554,1.4103,1.4103,1.4387,1.4882,1.4988,1.5037,1.5037,1.5037,1.5037,1.5046,1.5266,1.5642,1.6218,1.6346,1.673,1.7277,1.7277,1.7277,1.7277,1.7513,1.7594,1.7674,1.7917,1.8407,1.8975,0.2411,0.2414,0.285,0.4465,0.4525,0.3942,0.262,0.2475,0.2475,0.2474,0.2474,0.1855,0.0136,-0.0,-0.0,-0.0067,-0.0069,0.118,0.4064,0.4232,0.3608,0.215,0.2079,0.2244,0.2516,0.4175,0.4893,0.474,0.4935,0.4328,0.3121,0.438,0.4973,0.4965,0.5011,0.503,0.501,0.4857,0.4776,0.4771,0.4693,0.4693,0.4668,0.4667,0.472,0.472,0.472,0.472,0.472,0.472,0.5225,0.5816,0.5437,0.5447,0.5844,0.6531,0.674,0.6767,0.6647,0.6852,0.6983,0.6682,0.7206,0.7742,0.7453,0.7817,0.8283,0.8463,0.8517,0.8517,0.8517,0.8517,0.8517,0.8517,0.8958,0.946,0.9958,1.1049,1.1983,1.2451,1.2811,1.314,1.3455,1.3192,1.314,1.3455,1.3484,1.3492,1.3492,1.3192,1.3016,1.3016,1.3016,1.3016,1.3016,1.3331,1.3499,1.3499,1.3499,1.3499,1.3514,1.4234,1.4543,1.458,1.5145,1.5423,1.5423,1.5423,1.5423,1.5506,1.6378,1.6698,1.6854,1.7674,1.7997,1.8158,0.3912,0.4029,0.4122,0.4678,0.4795,0.4599,0.4058,0.4063,0.4194,0.4199,0.4189,0.399,0.3432,0.2419,0.1705,0.1705,0.1718,0.208,0.2988,0.4023,0.4388,0.3916,0.3843,0.3963,0.421,0.4702,0.4986,0.4906,0.4944,0.4814,0.4377,0.4833,0.4966,0.4985,0.4989,0.5036,0.5018,0.4937,0.4937,0.4937,0.4937,0.4859,0.4771,0.4775,0.472,0.4798,0.53,0.5516,0.5587,0.6154,0.6512,0.6777,0.7155,0.7015,0.671,0.6925,0.7351,0.7762,0.7693,0.8005,0.8234,0.7991,0.7857,0.7779,0.7704,0.7801,0.7978,0.8215,0.8264,0.8439,0.8924,0.9022,0.9145,0.9454,1.0128,1.0718,1.0848,1.1899,1.2647,1.2855,1.314,1.3294,1.3177,1.3272,1.3294,1.317,1.3367,1.3492,1.3492,1.3184,1.3009,1.3009,1.3009,1.3009,1.3009,1.3331,1.3492,1.3492,1.3492,1.3492,1.3506,1.3711,1.4048,1.4479,1.4684,1.5028,1.5431,1.5431,1.5431,1.5431,1.5748,1.5824,1.5824,1.6154,1.6624,1.718,0.4893,0.4857,0.4814,0.4595,0.4559,0.4652,0.4649,0.4657,0.4803,0.4925,0.4919,0.4911,0.4963,0.4047,0.342,0.3433,0.3455,0.3385,0.3352,0.4196,0.4722,0.4673,0.467,0.4798,0.4916,0.4919,0.4977,0.5018,0.5024,0.4977,0.5031,0.498,0.5027,0.5018,0.5018,0.5018,0.5018,0.5018,0.5018,0.5018,0.5335,0.5401,0.5381,0.5696,0.5822,0.5815,0.6334,0.6482,0.6555,0.7062,0.7432,0.7797,0.8243,0.8311,0.8147,0.8073,0.8341,0.8709,0.8709,0.8894,0.8915,0.8597,0.8291,0.8043,0.7951,0.793,0.8055,0.8544,0.8594,0.8828,0.9424,0.9588,0.9682,1.0097,1.0797,1.1366,1.1482,1.2336,1.3009,1.3009,1.3294,1.3411,1.3214,1.3375,1.3411,1.3206,1.3158,1.3193,1.3193,1.2926,1.2884,1.3001,1.2892,1.2884,1.3009,1.3107,1.3273,1.3492,1.3492,1.3492,1.3506,1.3748,1.4084,1.4479,1.4728,1.5057,1.5431,1.5431,1.5431,1.5431,1.5431,1.5431,1.5431,1.5431,1.5741,1.6221,0.5375,0.5215,0.5081,0.4584,0.4307,0.4315,0.4751,0.4535,0.4428,0.4758,0.4847,0.489,0.5004,0.5018,0.501,0.502,0.5027,0.4963,0.4846,0.4798,0.4806,0.4756,0.4751,0.473,0.4844,0.4847,0.4904,0.5018,0.5018,0.5018,0.5018,0.5018,0.5015,0.509,0.5093,0.5093,0.5171,0.5171,0.5171,0.5249,0.5973,0.6254,0.6346,0.7214,0.7536,0.754,0.754,0.7617,0.7617,0.7617,0.8156,0.878,0.878,0.9311,0.9879,0.9663,0.9604,0.9604,0.9604,0.9421,0.9125,0.8694,0.8565,0.8474,0.8272,0.8275,0.8459,0.9197,0.9308,0.9506,0.9983,1.011,1.0206,1.0554,1.1095,1.1556,1.184,1.2563,1.3038,1.3038,1.3287,1.347,1.3492,1.3477,1.347,1.3492,1.2973,1.2599,1.2599,1.2466,1.2557,1.2854,1.2571,1.2557,1.2861,1.2666,1.2826,1.3346,1.3346,1.3419,1.3441,1.415,1.445,1.4501,1.5123,1.5409,1.5431,1.5431,1.5431,1.5431,1.5431,1.5431,1.5431,1.5431,1.5431,1.5506,0.6256,0.6346,0.6429,0.629,0.5983,0.5679,0.5835,0.5307,0.4865,0.4972,0.4974,0.4985,0.5015,0.5018,0.4996,0.5021,0.4963,0.4966,0.4936,0.4961,0.4963,0.4931,0.4931,0.4944,0.4974,0.4974,0.4988,0.5018,0.5018,0.5018,0.5018,0.5018,0.5312,0.5899,0.5915,0.6311,0.693,0.693,0.693,0.6934,0.708,0.7208,0.7202,0.7399,0.7495,0.7617,0.8156,0.8394,0.8542,0.9155,0.9458,0.9614,0.9614,0.9765,0.9911,0.9852,0.9841,0.9841,0.9841,0.9669,0.9464,0.9357,0.905,0.8799,0.8748,0.8707,0.8904,0.9457,0.9593,0.9906,1.0795,1.1012,1.1245,1.1875,1.2341,1.2596,1.2675,1.3106,1.3382,1.3382,1.3228,1.3221,1.347,1.3265,1.3228,1.3477,1.2973,1.2599,1.2599,1.1886,1.1571,1.1637,1.1578,1.1578,1.1644,1.1786,1.2003,1.2157,1.2157,1.2378,1.2833,1.3223,1.3838,1.4494,1.4889,1.5196,1.5431,1.5431,1.5431,1.5431,1.5431,1.5431,1.5431,1.5431,1.5431,1.5423,0.7232,0.7224,0.7255,0.7057,0.6803,0.663,0.663,0.6261,0.5992,0.6063,0.6073,0.6096,0.616,0.6167,0.6167,0.6167,0.5476,0.5018,0.5018,0.5018,0.5018,0.5018,0.5018,0.5018,0.5018,0.5018,0.5168,0.5553,0.5935,0.6167,0.6167,0.6167,0.6384,0.682,0.6827,0.7065,0.7528,0.7503,0.7491,0.7499,0.7868,0.8086,0.8294,0.8667,0.8749,0.8841,0.9314,0.9326,0.9311,0.9771,0.9922,0.9922,0.9922,0.9922,0.9922,0.9922,0.9922,0.9922,0.9922,0.983,0.9786,0.9969,0.9715,0.9491,0.9801,0.987,0.9962,1.0345,1.0451,1.0672,1.1451,1.1645,1.186,1.2604,1.2892,1.306,1.3214,1.3382,1.344,1.3294,1.3119,1.3075,1.3258,1.3111,1.314,1.347,1.2973,1.2599,1.2599,1.156,1.1113,1.1405,1.1278,1.1272,1.1405,1.163,1.1558,1.126,1.1558,1.1926,1.2362,1.3042,1.3662,1.4294,1.4858,1.527,1.5431,1.5431,1.5431,1.5431,1.5431,1.5431,1.5431,1.5431,1.5431,1.5452,0.8093,0.7967,0.7862,0.7478,0.7338,0.7305,0.7305,0.7233,0.7215,0.7302,0.7323,0.7376,0.7524,0.7464,0.7464,0.7464,0.6167,0.5401,0.5401,0.5401,0.5401,0.5401,0.5401,0.5401,0.5401,0.5401,0.5705,0.6391,0.7157,0.7464,0.7464,0.7464,0.754,0.7693,0.7681,0.777,0.7944,0.7897,0.7969,0.7995,0.8699,0.9097,0.9419,1.0121,1.0338,1.0347,1.0347,1.0213,1.003,1.003,1.0008,0.9976,0.9976,0.9949,0.9922,0.9922,0.9997,1.0067,1.0067,1.0067,1.0243,1.0627,1.0539,1.0493,1.1076,1.1201,1.1259,1.1448,1.1459,1.1605,1.2043,1.2219,1.2453,1.306,1.3155,1.325,1.3536,1.3484,1.3323,1.3038,1.2921,1.2884,1.2928,1.2936,1.3067,1.3397,1.2945,1.2599,1.2599,1.1558,1.1111,1.1558,1.118,1.1174,1.1403,1.1409,1.1186,1.0663,1.1228,1.1665,1.1972,1.3014,1.3627,1.396,1.4946,1.5431,1.5431,1.5431,1.5431,1.5431,1.5431,1.5431,1.5431,1.5431,1.5431,1.5467,0.8477,0.8742,0.8948,0.8915,0.8661,0.8454,0.8454,0.7841,0.7466,0.7495,0.7499,0.7507,0.746,0.7464,0.7464,0.7464,0.7234,0.708,0.708,0.708,0.708,0.708,0.708,0.708,0.708,0.708,0.7157,0.731,0.7464,0.7464,0.7464,0.7464,0.7851,0.8546,0.8542,0.9029,0.9834,0.9901,0.9927,1.0168,1.0216,1.0354,1.0358,1.0484,1.0534,1.0579,1.0579,1.0557,1.0525,1.0525,1.0396,1.0239,1.0239,1.0089,0.9922,0.9922,1.0293,1.0663,1.0663,1.1037,1.1477,1.1508,1.1464,1.1516,1.185,1.1932,1.199,1.2241,1.2311,1.2398,1.2804,1.3082,1.3397,1.377,1.3828,1.385,1.3901,1.3433,1.3067,1.3016,1.2519,1.2292,1.257,1.2599,1.2731,1.306,1.2746,1.2599,1.2599,1.1929,1.1335,1.0962,1.0404,1.0104,1.0143,1.0143,1.0143,1.0073,1.0363,1.0784,1.1367,1.2574,1.3404,1.396,1.4946,1.5431,1.5431,1.5431,1.5431,1.5431,1.5431,1.5431,1.5431,1.5431,1.5431,1.5438,0.9109,0.9227,0.94,0.9561,0.9473,0.9311,0.9311,0.8998,0.8765,0.8765,0.8765,0.8765,0.8765,0.8765,0.8765,0.8765,0.8765,0.8765,0.8765,0.7999,0.7464,0.7464,0.7464,0.7464,0.7464,0.7927,0.8156,0.8156,0.8613,0.8765,0.877,0.8966,0.9115,0.9322,0.9642,0.9906,1.0304,1.0428,1.0541,1.0632,1.0562,1.0654,1.0832,1.0813,1.0797,1.0826,1.0826,1.074,1.0638,1.0638,1.0487,1.0372,1.0668,1.0571,1.0443,1.0738,1.0812,1.0887,1.1186,1.1484,1.1781,1.2077,1.215,1.2265,1.2718,1.2827,1.2813,1.2778,1.2782,1.2833,1.298,1.3272,1.3543,1.3697,1.3865,1.3923,1.374,1.3309,1.2943,1.2767,1.2328,1.2029,1.2248,1.2416,1.2658,1.2987,1.3014,1.3046,1.3046,1.2526,1.2077,1.1781,1.0513,0.9922,0.9922,0.9922,0.9986,1.0126,1.0239,1.0576,1.1139,1.2431,1.3207,1.3701,1.4859,1.5431,1.5431,1.5431,1.5431,1.5431,1.5431,1.5431,1.5431,1.5431,1.5431,1.5452,0.9502,0.9491,0.9567,0.9798,0.9884,0.9922,0.9922,0.9922,0.9922,0.9922,0.9922,0.9922,0.9922,0.9922,0.9922,0.9922,0.9922,0.9922,0.9922,0.8765,0.8075,0.8075,0.8075,0.8075,0.8075,0.8694,0.9008,0.9008,0.9614,0.9949,1.0013,1.0207,1.0218,1.0105,1.0471,1.0568,1.0466,1.0643,1.0751,1.0717,1.0717,1.0907,1.1069,1.1069,1.1069,1.1069,1.1069,1.1039,1.1046,1.1046,1.0967,1.0988,1.1384,1.1336,1.119,1.1577,1.1484,1.1335,1.1781,1.2003,1.2224,1.2673,1.2826,1.29,1.3419,1.3492,1.3426,1.3177,1.3126,1.3126,1.3126,1.3389,1.3609,1.3609,1.3821,1.3894,1.3645,1.3265,1.2884,1.2562,1.2233,1.1971,1.1971,1.2328,1.2658,1.2987,1.3309,1.3492,1.3492,1.3046,1.2746,1.2526,1.1037,1.0218,1.0218,0.9992,1.0046,1.0288,1.042,1.0665,1.1144,1.2609,1.3425,1.373,1.4922,1.5431,1.5431,1.5431,1.5431,1.5431,1.5431,1.5431,1.5431,1.5431,1.5474,1.5577,0.9276,0.9416,0.9577,0.9599,0.9776,0.9922,0.9922,0.9922,0.9922,0.9922,0.9922,0.9922,0.9922,0.9922,0.9922,0.9922,0.9922,0.9922,0.9922,0.9765,0.969,0.969,0.969,0.969,0.969,0.9765,0.9841,0.9841,0.9846,1.004,1.0266,1.0288,1.0396,1.0584,1.0616,1.0746,1.0934,1.095,1.109,1.1214,1.1214,1.1225,1.1322,1.1322,1.1322,1.1322,1.1322,1.1735,1.231,1.231,1.2547,1.2763,1.2504,1.2232,1.2043,1.1783,1.2077,1.2452,1.2526,1.2973,1.3346,1.3419,1.3419,1.3419,1.3492,1.3492,1.3484,1.3462,1.3455,1.3455,1.3455,1.3726,1.3945,1.3945,1.3967,1.3975,1.3953,1.3404,1.2884,1.2562,1.2233,1.1971,1.1971,1.2328,1.2658,1.2987,1.3309,1.3492,1.3492,1.3492,1.3119,1.2378,1.1632,1.126,1.126,1.0368,1.0035,1.0188,1.0726,1.1044,1.1377,1.3387,1.4294,1.4398,1.509,1.5431,1.5431,1.5431,1.5431,1.5431,1.5431,1.5431,1.5431,1.5431,1.5621,1.5884,1.0317,0.9944,0.9787,0.9787,0.9863,0.9922,0.9922,0.9922,0.9922,0.9922,0.9922,0.9922,0.9922,0.9922,0.9922,0.9922,0.9922,0.9922,0.9922,0.9922,0.9922,0.9922,0.9922,0.9922,0.9922,0.9922,0.9922,0.9922,0.9922,1.0051,1.0299,1.0439,1.0552,1.0649,1.0861,1.1042,1.0993,1.1149,1.1268,1.1262,1.1262,1.1262,1.1262,1.1262,1.1607,1.194,1.194,1.2454,1.3052,1.3052,1.3027,1.3016,1.3312,1.312,1.2761,1.2762,1.2973,1.3193,1.3193,1.3346,1.3492,1.3492,1.3492,1.3492,1.3492,1.3492,1.3492,1.3492,1.3492,1.3492,1.3492,1.3762,1.3916,1.3711,1.385,1.3916,1.3711,1.3294,1.2965,1.284,1.2533,1.2336,1.2336,1.2628,1.2877,1.3001,1.3309,1.3492,1.3492,1.3346,1.3193,1.29,1.2378,1.1855,1.1186,1.0812,1.0877,1.1288,1.1615,1.1962,1.2373,1.3749,1.4398,1.4482,1.509,1.5431,1.5431,1.5431,1.5431,1.5431,1.5431,1.5431,1.5452,1.5657,1.5811,1.5943,1.1186,1.0738,1.0443,1.0443,1.0443,1.0363,1.0218,1.0143,1.0143,0.9916,0.9922,0.9922,0.9922,0.9922,0.9922,0.9922,0.9922,0.9922,0.9922,0.9922,0.9922,0.9922,0.9922,0.9922,0.9922,0.9922,0.9922,0.9922,0.9997,1.0159,1.0406,1.0638,1.0783,1.0792,1.1118,1.1257,1.1112,1.1278,1.1262,1.1348,1.1521,1.1688,1.1688,1.186,1.2283,1.2711,1.2711,1.313,1.3724,1.3724,1.3761,1.3823,1.4137,1.3922,1.3529,1.3666,1.3653,1.3623,1.3521,1.3492,1.3492,1.3492,1.3492,1.3492,1.3492,1.3492,1.3492,1.3492,1.3492,1.3492,1.3492,1.3675,1.3755,1.3536,1.3682,1.3748,1.3528,1.3301,1.3126,1.3023,1.2811,1.2672,1.2672,1.2877,1.3045,1.3155,1.3367,1.3492,1.3492,1.3273,1.3119,1.3119,1.2746,1.215,1.1484,1.126,1.1383,1.184,1.2221,1.2669,1.3124,1.423,1.4741,1.4741,1.5173,1.5431,1.5431,1.5431,1.5489,1.5584,1.5584,1.5643,1.5752,1.5972,1.6126,1.6243,1.1706,1.1706,1.1706,1.1706,1.1706,1.1484,1.0887,1.0812,1.0588,0.9992,0.9922,0.9922,0.9922,0.9922,0.9922,0.9922,0.9922,0.9922,0.9922,0.9922,0.9922,0.9922,0.9922,0.9922,0.9922,0.9922,0.9922,0.9922,1.0175,1.0412,1.0643,1.0875,1.1117,1.1262,1.1354,1.1354,1.1354,1.1354,1.1348,1.1348,1.2112,1.2448,1.2448,1.3137,1.3398,1.3398,1.3398,1.3808,1.4398,1.4398,1.4831,1.5372,1.5043,1.4728,1.4406,1.4077,1.3982,1.3909,1.3587,1.3492,1.3492,1.3492,1.3492,1.3492,1.3492,1.3492,1.3492,1.3492,1.3492,1.3492,1.3492,1.3492,1.3492,1.3492,1.3492,1.3492,1.3492,1.3492,1.3375,1.3045,1.3009,1.3009,1.3009,1.3009,1.3148,1.347,1.3492,1.3492,1.3492,1.3119,1.29,1.29,1.2526,1.2305,1.2305,1.1484,1.1383,1.1834,1.2454,1.2982,1.3451,1.4824,1.5431,1.5431,1.5431,1.5431,1.5431,1.5431,1.5621,1.5913,1.5921,1.6104,1.6367,1.6374,1.6572,1.6857,1.2378,1.2305,1.2224,1.1781,1.1706,1.1632,1.1484,1.1409,1.1335,1.1186,1.1186,1.1037,1.0588,1.0513,1.0368,0.9922,0.9922,0.9922,0.9922,0.9922,0.9922,0.9922,0.9922,0.9922,0.9922,0.9922,1.0008,1.018,1.0256,1.0498,1.088,1.095,1.1117,1.1348,1.1854,1.2112,1.2112,1.254,1.2796,1.2796,1.3052,1.3137,1.3137,1.3307,1.373,1.4062,1.4062,1.4489,1.5082,1.5082,1.5257,1.5372,1.5043,1.4882,1.4692,1.4143,1.3982,1.3909,1.3587,1.3492,1.3492,1.3492,1.3492,1.3492,1.3492,1.3492,1.3492,1.3492,1.3492,1.3492,1.3492,1.3492,1.3492,1.3492,1.3492,1.3492,1.3492,1.3492,1.3455,1.336,1.3353,1.3353,1.3353,1.3353,1.3389,1.3484,1.3492,1.3492,1.3492,1.3273,1.3119,1.3119,1.2746,1.2621,1.2756,1.2461,1.2492,1.3022,1.3547,1.4097,1.4566,1.5173,1.5431,1.5431,1.5431,1.5431,1.5445,1.5679,1.5826,1.5935,1.6148,1.6287,1.6396,1.6623,1.6769,1.6887,1.3046,1.2973,1.2826,1.2452,1.2378,1.2305,1.2077,1.2077,1.2003,1.1706,1.1706,1.1558,1.1186,1.1186,1.1037,1.0663,1.0588,1.0588,1.0588,1.0588,1.0588,1.0588,1.0588,1.0368,0.9922,1.0019,1.0143,1.0293,1.0476,1.0713,1.0988,1.1411,1.1629,1.1774,1.2454,1.279,1.279,1.3222,1.3398,1.3392,1.373,1.3815,1.3808,1.4068,1.4405,1.4824,1.4824,1.5082,1.5431,1.5431,1.5431,1.5394,1.5196,1.5131,1.5006,1.4362,1.4172,1.4077,1.3623,1.3492,1.3492,1.3492,1.3492,1.3492,1.3492,1.3492,1.3492,1.3492,1.3492,1.3492,1.3492,1.3492,1.3492,1.3492,1.3492,1.3492,1.3492,1.3492,1.3492,1.3492,1.3492,1.3492,1.3492,1.3492,1.3492,1.3492,1.3492,1.3492,1.3492,1.3346,1.32,1.32,1.3019,1.2941,1.2961,1.329,1.3502,1.368,1.4195,1.4693,1.509,1.5347,1.5431,1.5431,1.5431,1.5504,1.5635,1.5833,1.6067,1.6309,1.6491,1.6638,1.6769,1.6967,1.704,1.7069,1.3492,1.3492,1.3492,1.3492,1.3492,1.3346,1.2753,1.2673,1.2452,1.1929,1.1855,1.1855,1.1781,1.1781,1.1781,1.1706,1.1706,1.1706,1.1706,1.1706,1.1706,1.1706,1.1706,1.1198,1.01,1.033,1.0466,1.051,1.0936,1.116,1.1271,1.2088,1.2448,1.2534,1.3222,1.3476,1.3476,1.3568,1.3568,1.3652,1.423,1.4482,1.4566,1.5173,1.5431,1.5431,1.5431,1.5431,1.5431,1.5431,1.5431,1.5431,1.5431,1.5431,1.5299,1.4655,1.4472,1.4326,1.3675,1.3492,1.3492,1.3492,1.3492,1.3492,1.3492,1.3492,1.3492,1.3492,1.3492,1.3492,1.3492,1.3492,1.3492,1.3492,1.3492,1.3492,1.3492,1.3492,1.3492,1.3492,1.3492,1.3492,1.3492,1.3492,1.3492,1.3492,1.3492,1.3492,1.3492,1.3346,1.32,1.32,1.3358,1.3293,1.3085,1.3905,1.4198,1.4035,1.4476,1.481,1.509,1.5347,1.5431,1.5431,1.546,1.5643,1.5921,1.5979,1.6338,1.6857,1.6887,1.7069,1.7326,1.7326,1.7326,1.7326,1.3492,1.3492,1.3492,1.3492,1.3492,1.3492,1.3346,1.3273,1.3273,1.3119,1.3119,1.29,1.2452,1.2378,1.2224,1.1706,1.1706,1.1706,1.1706,1.1706,1.1706,1.1706,1.1706,1.1733,1.1725,1.1794,1.1951,1.2369,1.2486,1.2659,1.288,1.3105,1.3137,1.3222,1.3893,1.4146,1.423,1.4748,1.5006,1.5006,1.509,1.5173,1.5173,1.5347,1.5431,1.5431,1.5431,1.5431,1.5431,1.5431,1.5431,1.5431,1.5431,1.5431,1.5299,1.4655,1.4472,1.4326,1.3675,1.3492,1.3492,1.3492,1.3492,1.3492,1.3492,1.3492,1.3492,1.3492,1.3492,1.3492,1.3492,1.3492,1.3492,1.3492,1.3492,1.3492,1.3492,1.3492,1.3492,1.3492,1.3492,1.3492,1.3492,1.3492,1.3492,1.3492,1.3492,1.3492,1.3492,1.3492,1.3419,1.3419,1.3582,1.371,1.3875,1.4337,1.4448,1.4204,1.4785,1.5108,1.5347,1.5347,1.5431,1.5445,1.5701,1.5848,1.595,1.6448,1.6733,1.6879,1.7128,1.7267,1.7326,1.7326,1.7326,1.7326,1.3492,1.3492,1.3492,1.3492,1.3492,1.3492,1.3492,1.3492,1.3492,1.3492,1.3492,1.3346,1.3046,1.3046,1.29,1.2599,1.2526,1.2526,1.2526,1.2526,1.2526,1.2526,1.2526,1.2811,1.3263,1.327,1.3173,1.3035,1.3093,1.3239,1.3398,1.373,1.3899,1.3899,1.4573,1.4915,1.4915,1.5257,1.5431,1.5431,1.5431,1.5431,1.5431,1.5431,1.5431,1.5431,1.5431,1.5431,1.5431,1.5431,1.5431,1.5431,1.5431,1.5431,1.5335,1.4838,1.4589,1.4362,1.3865,1.3616,1.3492,1.3492,1.3492,1.3492,1.3492,1.3492,1.3492,1.3492,1.3492,1.3492,1.3492,1.3492,1.3492,1.3492,1.3492,1.3492,1.3492,1.3492,1.3492,1.3492,1.3492,1.3492,1.3492,1.3492,1.3492,1.3492,1.3492,1.3492,1.3492,1.3638,1.3726,1.3726,1.411,1.4281,1.4359,1.4763,1.4839,1.4674,1.5094,1.5257,1.5431,1.5431,1.5511,1.5672,1.584,1.6089,1.6389,1.6718,1.6945,1.7099,1.7267,1.7326,1.7326,1.7326,1.7326,1.7326,1.3492,1.3492,1.3492,1.3492,1.3492,1.3492,1.3492,1.3492,1.3492,1.3492,1.3492,1.3492,1.3492,1.3492,1.3492,1.3492,1.3492,1.3492,1.3492,1.3492,1.3492,1.3492,1.3492,1.3777,1.437,1.4443,1.4158,1.3441,1.3613,1.373,1.3737,1.4314,1.4566,1.4566,1.5166,1.5431,1.5431,1.5431,1.5431,1.5431,1.5431,1.5431,1.5431,1.5431,1.5431,1.5431,1.5431,1.5431,1.5431,1.5431,1.5431,1.5431,1.5431,1.5431,1.5365,1.5043,1.4757,1.4465,1.4084,1.3784,1.3565,1.3506,1.3536,1.3579,1.3579,1.3536,1.3492,1.3492,1.3492,1.3492,1.3492,1.3492,1.3492,1.3492,1.3492,1.3492,1.3492,1.3492,1.3492,1.3492,1.3492,1.3492,1.3492,1.3492,1.3492,1.3492,1.3492,1.3492,1.3492,1.3806,1.3982,1.3982,1.4604,1.4779,1.461,1.518,1.5347,1.5173,1.5347,1.5431,1.5431,1.5431,1.5606,1.5921,1.5972,1.6323,1.6857,1.6916,1.7091,1.7326,1.7326,1.7326,1.7326,1.7326,1.7326,1.7326,1.3492,1.3492,1.3492,1.3492,1.3492,1.3492,1.3492,1.3492,1.3492,1.3492,1.3492,1.3492,1.3492,1.3492,1.3492,1.3492,1.3492,1.3492,1.3492,1.3492,1.3492,1.3492,1.3492,1.3667,1.404,1.4326,1.4678,1.5108,1.5068,1.509,1.509,1.5257,1.5257,1.5257,1.5347,1.5431,1.5431,1.5431,1.5431,1.5431,1.5431,1.5431,1.5431,1.5431,1.5431,1.5431,1.5431,1.5431,1.5431,1.5431,1.5431,1.5431,1.5431,1.5431,1.5365,1.5043,1.4911,1.475,1.4143,1.3953,1.385,1.3565,1.3704,1.3916,1.3916,1.3697,1.3492,1.3492,1.3492,1.3492,1.3492,1.3492,1.3492,1.3492,1.3492,1.3492,1.3492,1.3492,1.3492,1.3492,1.3492,1.3492,1.3492,1.3492,1.3492,1.3492,1.3492,1.3492,1.3492,1.3806,1.3982,1.3982,1.4604,1.486,1.486,1.518,1.5431,1.5347,1.5431,1.5431,1.5431,1.5431,1.5606,1.5935,1.6191,1.6513,1.6872,1.715,1.7289,1.7326,1.7326,1.7326,1.7326,1.7326,1.7326,1.7419,1.3492,1.3492,1.3492,1.3492,1.3492,1.3492,1.3492,1.3492,1.3492,1.3492,1.3492,1.3492,1.3492,1.3492,1.3492,1.3492,1.3492,1.3492,1.3492,1.3492,1.3492,1.3492,1.3492,1.3653,1.3975,1.4304,1.4692,1.516,1.5343,1.5431,1.5431,1.5431,1.5431,1.5431,1.5431,1.5431,1.5431,1.5431,1.5431,1.5431,1.5431,1.5431,1.5431,1.5431,1.5431,1.5431,1.5431,1.5431,1.5431,1.5431,1.5431,1.5431,1.5431,1.5431,1.5401,1.5255,1.5087,1.4874,1.4596,1.4384,1.4223,1.4077,1.415,1.4253,1.4253,1.4004,1.3821,1.4004,1.404,1.3982,1.3799,1.377,1.3704,1.3521,1.3492,1.3492,1.3492,1.3492,1.3492,1.3492,1.3492,1.3492,1.3492,1.3492,1.3492,1.3492,1.3667,1.377,1.377,1.4245,1.4516,1.4516,1.497,1.5211,1.5211,1.5357,1.5431,1.5431,1.5431,1.5526,1.5694,1.5511,1.5796,1.644,1.6389,1.7004,1.7942,1.8087,1.8149,1.8149,1.8149,1.7785,1.7326,1.7326,1.7326,1.7419]},{"header":{"parameterUnit":"m.s-1","parameterCategory":1,"la1":30.6,"la2":28.766,"lo1":-90.7593,"lo2":-88.6598,"dy":0.0162,"dx":0.0183,"nx":116,"ny":114,"refTime":"2024-06-04T06:00:00:Z","depth":0,"parameterNumber":3,"parameterNumberName":"V-component_of_WINDS"},"data":[0.0,0.0,0.0,0.0,0.0,0.0,0.0,0.0,0.0,0.0,0.0,0.0,0.0,0.0,0.0,0.0,0.0,0.0,0.0,0.0,0.0,0.0,0.0,0.0,0.0,0.0,0.0,0.0,0.0,0.0,0.0,0.0,0.0,0.0,0.0,0.0,0.0,0.0,0.0,0.0,0.0,0.0,0.0,0.0,0.0,0.0,0.0,0.0,0.0,0.0,0.0,0.0,0.0,0.0,0.0,0.0,0.0,0.0,0.0,0.0,0.0,0.0,0.0,0.0,0.0,0.0,0.0,0.0,0.0,0.0,0.0,0.0,0.0,0.0,0.0,0.0,0.0,0.0,0.0,0.0,0.0,0.0,0.0,0.0,0.0,0.0,0.0,0.0,0.0,0.0,0.0,0.0,0.0,0.0,0.0,0.0,0.0,0.0,0.0,0.0,0.0,0.0,0.0,0.0,0.0,0.0,0.0,0.0,0.0,0.0,0.0,0.0,0.0,0.0,0.0,0.0,0.0,0.0,0.0,0.0,0.0,0.0,0.0,0.0,0.0,0.0,0.0,0.0,0.0,0.0,0.0,0.0,0.0,0.0,0.0,0.0,0.0,0.0,0.0,0.0,0.0,0.0,0.0,0.0,0.0,0.0,0.0,0.0,0.0,0.0,0.0,0.0,0.0,0.0,0.0,0.0,0.0,0.0,0.0,0.0,0.0,0.0,0.0,0.0,0.0,0.0,0.0,0.0,0.0,0.0,0.0,0.0,0.0,0.0,0.0,0.0,0.0,0.0,0.0,0.0,0.0,0.0,0.0,0.0,0.0,0.0,0.0,0.0,0.0,0.0,0.0,0.0,0.0,0.0,0.0,0.0,0.0,0.0,0.0,0.0,0.0,0.0,0.0,0.0,0.0,0.0,0.0,0.0,0.0,0.0,0.0,0.0,0.0,0.0,0.0,0.0,0.0,0.0,0.0,0.0,0.0,0.0,0.0,0.0,0.0,0.0,0.0,0.0,0.0,0.0,0.0,0.0,0.0,0.0,0.0,0.0,0.0,0.0,0.0,0.0,0.0,0.0,0.0,0.0,0.0,0.0,0.0,0.0,0.0,0.0,0.0,0.0,0.0,0.0,0.0,0.0,0.0,0.0,0.0,0.0,0.0,0.0,0.0,0.0,0.0,0.0,0.0,0.0,0.0,0.0,0.0,0.0,0.0,0.0,0.0,0.0,0.0,0.0,0.0,0.0,0.0,0.0,0.0,0.0,0.0,0.0,0.0,0.0,0.0,0.0,0.0,0.0,0.0,0.0,0.0,0.0,0.0,0.0,0.0,0.0,0.0,0.0,0.0,0.0,0.0,0.0,0.0,0.0,0.0,0.0,0.0,0.0,0.0,0.0,0.0,0.0,0.0,0.0,0.0,0.0,0.0,0.0,0.0,0.0,0.0,0.0,0.0,0.0,0.0,0.0,0.0,0.0,0.0,0.0,0.0,0.0,0.0,0.0,0.0,0.0,0.0,0.0,0.0,0.0,0.0,0.0,0.0,0.0,0.0,0.0,0.0,0.0,0.0,0.0,0.0,0.0,0.0,0.0,0.0,0.0,0.0,0.0,0.0,0.0,0.0,0.0,0.0,0.0,0.0,0.0,0.0,0.0,0.0,0.0,0.0,0.0,0.0,0.0,0.0,0.0,0.0,0.0,0.0,0.0,0.0,0.0,0.0,0.0,0.0,0.0,0.0,0.0,0.0,0.0,0.0,0.0,0.0,0.0,0.0,0.0,0.0,0.0,0.0,0.0,0.0,0.0,0.0,0.0,0.0,0.0,0.0,0.0,0.0,0.0,0.0,0.0,0.0,0.0,0.0,0.0,0.0,0.0,0.0,0.0,0.0,0.0,0.0,0.0,0.0,0.0,0.0,0.0,0.0,0.0,0.0,0.0,0.0,0.0,0.0,0.0,0.0,0.0,0.0,0.0,0.0,0.0,0.0,0.0,0.0,0.0,0.0,0.0,0.0,0.0,0.0,0.0,0.0,0.0,0.0,0.0,0.0,0.0,0.0,0.0,0.0,0.0,0.0,0.0,0.0,0.0,0.0,0.0,0.0,0.0,0.0,0.0,0.0,0.0,0.0,0.0,0.0,0.0,0.0,0.0,0.0,0.0,0.0,0.0,0.0,0.0,0.0,0.0,0.0,0.0,0.0,0.0,0.0,0.0,0.0,0.0,0.0,0.0,0.0,0.0,0.0,0.0,0.0,0.0,0.0,0.0,0.0,0.0,0.0,0.0,0.0,0.0,0.0,0.0,0.0,0.0,0.0,0.0,0.0,0.0,0.0,0.0,0.0,0.0,0.0,0.0,0.0,0.0,0.0,0.0,0.0,0.0,0.0,0.0,0.0,0.0,0.0,0.0,0.0,0.0,0.0,0.0,0.0,0.0,0.0,0.0,0.0,0.0,0.0,0.0,0.0,0.0,0.0,0.0,0.0,0.0,0.0,0.0,0.0,0.0,0.0,0.0,0.0,0.0,0.0,0.0,0.0,0.0,0.0,0.0,0.0,0.0,0.0,0.0,0.0,0.0,0.0,0.0,0.0,0.0,0.0,0.0,0.0,0.0,0.0,0.0,0.0,0.0,0.0,0.0,0.0,0.0,0.0,0.0,0.0,0.0,0.0,0.0,0.0,0.0,0.0,0.0,0.0,0.0,0.0,0.0,0.0,0.0,0.0,0.0,0.0,0.0,0.0,0.0,0.0,0.0,0.0,0.0,0.0,0.0,0.0,0.0,0.0,0.0,0.0,0.0,0.0,0.0,0.0,0.0,0.0,0.0,0.0,0.0,0.0,0.0,0.0,0.0,0.0,0.0,0.0,0.0,0.0,0.0,0.0,0.0,0.0,0.0,0.0,0.0,0.0,0.0,0.0,0.0,0.0,0.0,0.0,0.0,0.0,0.0,0.0,0.0,0.0,0.0,0.0,0.0,0.0,0.0,0.0,0.0,0.0,0.0,0.0,0.0,0.0,0.0,0.0,0.0,0.0,0.0,0.0,0.0,0.0,0.0,0.0,0.0,0.0,0.0,0.0,0.0,0.0,0.0,0.0,0.0,0.0,0.0,0.0,0.0,0.0,0.0,0.0,0.0,0.0,0.0,0.0,0.0,0.0,0.0,0.0,0.0,0.0,0.0,0.0,0.0,0.0,0.0,0.0,0.0,0.0,0.0,0.0,0.0,0.0,0.0,0.0,0.0,0.0,0.0,0.0,0.0,0.0,0.0,0.0,0.0,0.0,0.0,0.0,0.0,0.0,0.0,0.0,0.0,0.0,0.0,0.0,0.0,0.0,0.0,0.0,0.0,0.0,0.0,0.0,0.0,0.0,0.0,0.0,0.0,0.0,0.0,0.0,0.0,0.0,0.0,0.0,0.0,0.0,0.0,0.0,0.0,0.0,0.0,0.0,0.0,0.0,0.0,0.0,0.0,0.0,0.0,0.0,0.0,0.0,0.0,0.0,0.0,0.0,0.0,0.0,0.0,0.0,0.0,0.0,0.0,0.0,0.0,0.0,0.0,0.0,0.0,0.0,0.0,0.0,0.0,0.0,0.0,0.0,0.0,0.0,0.0,0.0,0.0,0.0,0.0,0.0,0.0,0.0,0.0,0.0,0.0,0.0,0.0,0.0,0.0,0.0,0.0,0.0,0.0,0.0,0.0,0.0,0.0,0.0,0.0,0.0,0.0,0.0,0.0,0.0,0.0,0.0,0.0,0.0,0.0,0.0,0.0,0.0,0.0,0.0,0.0,0.0,0.0,0.0,0.0,0.0,0.0,0.0,0.0,0.0,0.0,0.0,0.0,0.0,0.0,0.0,0.0,0.0,0.0,0.0,0.0,0.0,0.0,0.0,0.0,0.0,0.0,0.0,0.0,0.0,0.0,0.0,0.0,0.0,0.0,0.0,0.0,0.0,0.0,0.0,0.0,0.0,0.0,0.0,0.0,0.0,0.0,0.0,0.0,0.0,0.0,0.0,0.0,0.0,0.0,0.0,0.0,0.0,0.0,0.0,0.0,0.0,0.0,0.0,0.0,0.0,0.0,0.0,0.0,0.0,0.0,0.0,0.0,0.0,0.0,0.0,0.0,0.0,0.0,0.0,0.0,0.0,0.0,0.0,0.0,0.0,0.0,0.0,0.0,0.0,0.0,0.0,0.0,0.0,0.0,0.0,0.0,0.0,0.0,0.0,0.0,0.0,0.0,0.0,0.0,0.0,0.0,0.0,0.0,0.0,0.0,0.0,0.0,0.0,0.0,0.0,0.0,0.0,0.0,0.0,0.0,0.0,0.0,0.0,0.0,0.0,0.0,0.0,0.0,0.0,0.0,0.0,0.0,0.0,0.0,0.0,0.0,0.0,0.0,0.0,0.0,0.0,0.0,0.0,0.0,0.0,0.0,0.0,0.0,0.0,0.0,0.0,0.0,0.0,0.0,0.0,0.0,0.0,0.0,0.0,0.0,0.0,0.0,0.0,0.0,0.0,0.0,0.0,0.0,0.0,0.0,0.0,0.0,0.0,0.0,0.0,0.0,0.0,0.0,0.0,0.0,0.0,0.0,0.0,0.0,0.0,0.0,0.0,0.0,0.0,0.0,0.0,0.0,0.0,0.0,0.0,0.0,0.0,0.0,0.0,0.0,0.0,0.0,0.0,0.0,0.0,0.0,0.0,0.0,0.0,0.0,0.0,0.0,0.0,0.0,0.0,0.0,0.0,0.0,0.0,0.0,0.0,0.0,0.0,0.0,0.0,0.0,0.0,0.0,0.0,0.0,0.0,0.0,0.0,0.0,0.0,0.0,0.0,0.0,0.0,0.0,0.0,0.0,0.0,0.0,0.0,0.0,0.0,0.0,0.0,0.0,0.0,0.0,0.0,0.0,0.0,0.0,0.0,0.0,0.0,0.0,0.0,0.0,0.0,0.0,0.0,0.0,0.0,0.0,0.0,0.0,0.0,0.0,0.0,0.0,0.0,0.0,0.0,0.0,0.0,0.0,0.0,0.0,0.0,0.0,0.0,0.0,0.0,0.0,0.0,0.0,0.0,0.0,0.0,0.0,0.0,0.0,0.0,0.0,0.0,0.0,0.0,0.0,0.0,0.0,0.0,0.0,0.0,0.0,0.0,0.0,0.0,0.0,0.0,0.0,0.0,0.0,0.0,0.0,0.0,0.0,0.0,0.0,0.0,0.0,0.0,0.0,0.0,0.0,0.0,0.0,0.0,0.0,0.0,0.0,0.0,0.0,0.0,0.0,0.0,0.0,0.0,0.0,0.0,0.0,0.0,0.0,0.0,0.0,0.0,0.0,0.0,0.0,0.0,0.0,0.0,0.0,0.0,0.0,0.0,0.0,0.0,0.0,0.0,0.0,0.0,0.0,0.0,0.0,0.0,0.0,0.0,0.0,0.0,0.0,0.0,0.0,0.0,0.0,0.0,0.0,0.0,0.0,0.0,0.0,0.0,0.0,0.0,0.0,0.0,0.0,0.0,0.0,0.0,0.0,0.0,0.0,0.0,0.0,0.0,0.0,0.0,0.0,0.0,0.0,0.0,0.0,0.0,0.0,0.0,0.0,0.0,0.0,0.0,0.0,0.0,0.0,0.0,0.0,0.0,0.0,0.0,0.0,0.0,0.0,0.0,0.0,0.0,0.0,0.0,0.0,0.0,0.0,0.0,0.0,0.0,0.0,0.0,0.0,0.0,0.0,0.0,0.0,0.0,0.0,0.0,0.0,0.0,0.0,0.0,0.0,0.0,0.0,0.0,0.0,0.0,0.0,0.0,0.0,0.0,0.0,0.0,0.0,0.0,0.0,0.0,0.0,0.0,0.0,0.0,0.0,0.0,0.0,0.0,0.0,0.0,0.0,0.0,0.0,0.0,0.0,0.0,0.0,0.0,0.0,0.0,0.0,0.0,0.0,0.0,0.0,0.0,0.0,0.0,0.0,0.0,0.0,0.0,0.0,0.0,0.0,0.0,0.0,0.0,0.0,0.0,0.0,0.0,0.0,0.0,0.0,0.0,0.0,0.0,0.0,0.0,0.0,0.0,0.0,0.0,0.0,0.0,0.0,0.0,0.0,0.0,0.0,-2.6562,-2.6226,0.0,0.0,0.0,0.0,0.0,0.0,0.0,0.0,0.0,0.0,0.0,0.0,0.0,0.0,0.0,0.0,0.0,0.0,0.0,0.0,0.0,0.0,0.0,-1.7319,-1.785,-1.8897,-1.9277,-1.968,-2.0189,0.0,0.0,0.0,0.0,0.0,-1.9207,-1.9464,-1.979,-2.0182,-1.9889,-2.0179,-2.0948,-2.0136,-1.975,-1.9779,0.0,0.0,0.0,0.0,0.0,0.0,0.0,0.0,0.0,0.0,0.0,0.0,0.0,0.0,0.0,0.0,0.0,0.0,0.0,0.0,0.0,0.0,0.0,0.0,0.0,0.0,0.0,0.0,0.0,0.0,0.0,0.0,0.0,0.0,0.0,0.0,0.0,0.0,0.0,0.0,0.0,0.0,0.0,0.0,0.0,0.0,0.0,0.0,0.0,0.0,0.0,0.0,0.0,0.0,0.0,0.0,0.0,0.0,0.0,0.0,0.0,0.0,0.0,0.0,0.0,0.0,0.0,0.0,0.0,0.0,-2.7475,-2.7056,0.0,0.0,0.0,0.0,0.0,0.0,0.0,0.0,0.0,0.0,0.0,0.0,0.0,0.0,0.0,0.0,0.0,0.0,0.0,0.0,0.0,-1.5145,-1.7147,-1.7869,-1.853,-1.9395,-1.998,-2.0441,-2.0794,-2.0794,0.0,0.0,0.0,-2.0435,-2.0137,-2.0365,-2.0624,-2.0947,-2.1225,-2.139,-2.1429,-2.2319,-2.2255,-2.1419,-2.1568,0.0,0.0,0.0,0.0,0.0,0.0,0.0,0.0,0.0,0.0,0.0,0.0,0.0,0.0,0.0,0.0,0.0,0.0,0.0,0.0,0.0,0.0,0.0,0.0,0.0,0.0,0.0,0.0,0.0,0.0,0.0,0.0,0.0,0.0,0.0,0.0,0.0,0.0,0.0,0.0,0.0,0.0,0.0,0.0,0.0,0.0,0.0,0.0,0.0,0.0,0.0,0.0,0.0,0.0,0.0,0.0,0.0,0.0,0.0,0.0,0.0,0.0,0.0,-2.7025,-2.7422,-2.8048,-2.8222,-2.8222,-2.8087,-2.8443,-2.8023,-2.7152,-2.8038,0.0,0.0,0.0,0.0,0.0,0.0,0.0,0.0,0.0,0.0,0.0,0.0,0.0,0.0,0.0,0.0,0.0,0.0,0.0,-1.5825,-1.7854,-1.8161,-1.8714,-2.0058,-2.0258,-2.0441,-2.0794,-2.0794,0.0,0.0,-2.1589,-2.1831,-2.227,-2.2323,-2.2588,-2.3092,-2.3485,-2.3321,-2.2684,-2.3602,-2.3952,-2.3841,-2.386,-2.3879,-2.3824,0.0,0.0,0.0,0.0,0.0,0.0,0.0,0.0,0.0,0.0,0.0,0.0,0.0,0.0,0.0,0.0,0.0,0.0,0.0,0.0,0.0,0.0,0.0,0.0,0.0,0.0,0.0,0.0,0.0,0.0,0.0,0.0,0.0,0.0,0.0,0.0,0.0,0.0,0.0,0.0,0.0,-2.5924,-2.5215,0.0,0.0,0.0,0.0,0.0,0.0,0.0,0.0,0.0,0.0,0.0,0.0,0.0,-2.656,-2.6436,-2.7142,-2.7507,-2.7581,-2.8291,-2.8632,-2.8698,-2.9538,-2.948,-2.8816,-2.9717,0.0,-2.7927,-2.8858,0.0,0.0,0.0,0.0,0.0,0.0,0.0,0.0,0.0,0.0,0.0,0.0,0.0,0.0,0.0,0.0,0.0,0.0,0.0,0.0,0.0,-1.7946,-1.8559,-1.9641,-1.9667,-2.004,-2.1007,-2.0734,-2.098,-2.2032,-2.2231,-2.2426,-2.2685,-2.3003,-2.3371,-2.3831,-2.3442,-2.3159,-2.3014,-2.3417,-2.3672,-2.3761,-2.4353,-2.4543,-2.4391,-2.4122,0.0,0.0,0.0,0.0,0.0,0.0,0.0,0.0,0.0,0.0,0.0,0.0,0.0,0.0,0.0,0.0,0.0,0.0,0.0,0.0,0.0,0.0,0.0,0.0,0.0,0.0,0.0,0.0,0.0,0.0,0.0,0.0,0.0,0.0,0.0,0.0,0.0,0.0,0.0,-2.6622,-2.7071,-2.6199,-2.6903,-2.6952,0.0,0.0,0.0,0.0,0.0,0.0,0.0,0.0,0.0,-2.6611,-2.6983,-2.7163,-2.7163,-2.7515,-2.7899,-2.8324,-2.8673,-2.9065,-2.9536,-2.9952,-2.9909,-2.9556,-3.0056,-2.987,-2.9221,-2.9748,-2.9752,-2.9455,0.0,0.0,0.0,0.0,-2.9601,-2.962,0.0,0.0,0.0,0.0,0.0,0.0,0.0,0.0,0.0,0.0,0.0,0.0,-1.707,-1.7517,-1.8082,-1.8914,-1.9131,-1.9639,-2.0649,-2.0687,-2.1094,-2.2071,-2.2476,-2.2747,-2.2902,-2.3348,-2.3638,-2.3764,-2.3066,-2.2758,-2.2822,-2.2885,-2.3092,-2.3431,-2.4241,-2.4611,-2.4607,-2.4764,-2.4464,0.0,0.0,0.0,0.0,0.0,0.0,0.0,0.0,0.0,0.0,0.0,0.0,0.0,0.0,0.0,0.0,0.0,0.0,0.0,0.0,0.0,0.0,0.0,0.0,0.0,0.0,0.0,0.0,0.0,0.0,0.0,0.0,0.0,0.0,0.0,0.0,0.0,0.0,-2.7801,-2.8031,-2.6913,-2.7712,-2.766,0.0,0.0,0.0,0.0,0.0,0.0,-2.6749,-2.6624,-2.6845,-2.7485,-2.7698,-2.7793,-2.7793,-2.8051,-2.8483,-2.9072,-2.9072,-2.9429,-3.0038,-3.0038,-3.0022,-2.9972,-3.0083,-3.0109,-3.0104,-3.0297,-3.0413,-3.0482,-3.0491,-3.0563,-3.0676,-3.069,-3.069,-3.0697,0.0,0.0,0.0,0.0,0.0,0.0,0.0,0.0,0.0,0.0,0.0,-1.605,-1.7087,-1.6894,-1.7074,-1.8051,-1.8966,-1.9374,-1.9142,-2.0695,-2.1623,-2.1635,-2.2332,-2.2952,-2.3458,-2.3667,-2.3476,-2.2867,-2.2996,-2.273,-2.2058,-2.2322,-2.2874,-2.3695,-2.38,-2.4233,-2.4888,-2.5012,-2.5053,-2.5015,0.0,0.0,0.0,0.0,0.0,0.0,0.0,0.0,0.0,0.0,0.0,0.0,0.0,0.0,0.0,0.0,0.0,0.0,0.0,0.0,0.0,0.0,0.0,0.0,0.0,0.0,0.0,0.0,0.0,0.0,0.0,0.0,0.0,0.0,0.0,0.0,0.0,0.0,0.0,-2.6912,-2.8262,0.0,0.0,0.0,0.0,-2.7585,-2.7352,-2.7294,-2.7537,-2.7107,-2.6987,-2.7207,-2.7966,-2.8365,-2.8365,-2.9309,-2.981,-2.9848,-2.9848,-2.9867,-2.9905,-2.9905,-2.9905,-2.9924,-2.9905,-3.0003,-3.0109,-3.0253,-3.0336,-3.0409,-3.0481,-3.0549,-3.0618,-3.0676,-3.069,-3.069,0.0,0.0,0.0,0.0,0.0,-1.4394,-1.4932,-1.4981,-1.5209,-1.5948,-1.5968,-1.6087,-1.646,-1.6668,-1.6955,-1.7365,-1.7807,-1.8338,-1.8908,-1.9825,-2.0709,-2.1506,-2.2459,-2.3188,-2.3667,-2.3753,-2.3537,-2.2996,-2.2498,-2.1964,-2.1367,-2.1538,-2.1782,-2.2147,-2.3386,-2.407,-2.4353,-2.4866,-2.5096,-2.5115,-2.5192,-2.5171,0.0,0.0,0.0,0.0,0.0,0.0,0.0,0.0,0.0,0.0,0.0,0.0,0.0,0.0,0.0,0.0,0.0,0.0,0.0,0.0,0.0,0.0,0.0,0.0,0.0,0.0,0.0,0.0,0.0,0.0,0.0,0.0,0.0,0.0,0.0,0.0,0.0,-2.8519,-2.8921,0.0,-2.7528,-2.7566,-2.758,-2.7405,-2.7286,-2.7439,-2.79,-2.7755,-2.7941,-2.854,-2.897,-2.9175,-2.9175,-2.9653,-2.9888,-2.9888,-2.9888,-2.9888,-2.9888,-2.9888,-2.9888,-2.9888,-2.9888,-2.9988,-3.0147,-3.0763,-3.0772,-3.0398,-3.0439,-3.0491,-3.0606,-3.0623,-3.0632,-3.0709,0.0,0.0,0.0,0.0,-1.45,-1.4935,-1.5461,-1.5288,-1.5314,-1.5907,-1.5854,-1.5797,-1.5898,-1.6203,-1.6473,-1.6621,-1.7111,-1.7644,-1.8175,-1.9448,-2.0475,-2.111,-2.2474,-2.3422,-2.3795,-2.3795,-2.3429,-2.2662,-2.2073,-2.139,-2.0596,-2.0713,-2.1055,-2.1654,-2.2997,-2.389,-2.4408,-2.4952,-2.5192,-2.5234,-2.5332,-2.5284,-2.5124,0.0,0.0,0.0,0.0,0.0,0.0,0.0,0.0,0.0,0.0,0.0,0.0,0.0,0.0,0.0,0.0,0.0,0.0,0.0,0.0,0.0,0.0,0.0,0.0,0.0,0.0,0.0,0.0,0.0,0.0,0.0,0.0,0.0,0.0,-2.9941,-2.9782,-2.9382,-2.9497,-2.9226,-2.8272,-2.8351,-2.836,-2.8156,-2.8005,-2.8108,-2.8577,-2.8394,-2.8569,-2.9188,-2.9334,-2.9435,-2.9513,-2.9698,-2.9839,-2.9888,-2.9888,-2.9888,-2.9888,-2.9888,-2.9888,-2.9888,-2.9888,-3.0,-3.0242,-3.1083,-3.122,-3.0865,-3.0852,-3.0914,-3.0965,-3.0694,-3.0598,-3.0752,0.0,0.0,0.0,-1.3977,-1.4505,-1.5074,-1.6031,-1.5911,-1.5681,-1.5623,-1.53,-1.5195,-1.5448,-1.5418,-1.5551,-1.5871,-1.6974,-1.7427,-1.6869,-1.9621,-2.1011,-2.0487,-2.2417,-2.3598,-2.3795,-2.3795,-2.3136,-2.1799,-2.1799,-2.1112,-1.9807,-1.987,-2.077,-2.2379,-2.2662,-2.365,-2.5077,-2.5224,-2.5379,-2.5484,-2.5484,-2.5406,-2.5313,0.0,0.0,0.0,0.0,0.0,0.0,0.0,0.0,0.0,0.0,0.0,0.0,0.0,0.0,0.0,0.0,0.0,0.0,0.0,0.0,0.0,0.0,0.0,0.0,0.0,0.0,0.0,0.0,0.0,0.0,0.0,0.0,0.0,-3.0691,-3.0792,-3.0411,-2.937,-2.9931,-3.0023,-2.9044,-2.9641,-3.0072,-3.0007,-2.957,-2.9398,-2.9589,-2.8984,-2.8798,-2.904,-2.9081,-2.9193,-2.9351,-2.9551,-2.9717,-2.9888,-2.9888,-2.9888,-2.9888,-2.9926,-2.9926,-2.9888,-2.9943,-3.0083,-3.0369,-3.1155,-3.1646,-3.1826,-3.1742,-3.1744,-3.17,-3.0907,-3.0636,-3.0907,0.0,0.0,-1.3498,-1.4094,-1.4881,-1.5515,-1.5809,-1.5754,-1.5681,-1.5623,-1.527,-1.5043,-1.5074,-1.5225,-1.5389,-1.5551,-1.6373,-1.7098,-1.7562,-1.9289,-2.0815,-2.2014,-2.2976,-2.3526,-2.3576,-2.371,-2.3136,-2.18,-2.1799,-2.1078,-1.9726,-1.9851,-2.0486,-2.1559,-2.2323,-2.3214,-2.4213,-2.487,-2.5171,-2.5203,-2.5203,-2.5182,-2.516,0.0,0.0,0.0,0.0,0.0,0.0,0.0,0.0,0.0,0.0,0.0,0.0,0.0,0.0,0.0,0.0,0.0,0.0,0.0,0.0,0.0,0.0,0.0,0.0,0.0,0.0,0.0,0.0,0.0,0.0,0.0,-2.9519,-3.0545,-3.0761,-3.0798,-3.0684,-3.0392,-3.0435,-3.0346,-3.0023,-3.0054,-3.0007,-2.9805,-2.9626,-2.9475,-2.9395,-2.9768,-3.0017,-3.0083,-3.0849,-3.099,-3.0469,-3.0658,-3.048,-2.9888,-2.9888,-2.9888,-2.9907,-3.0549,-3.0511,-2.9943,-3.0665,-3.0729,-3.0369,-3.127,-3.2089,-3.2676,-3.2018,-3.1777,-3.17,-3.0907,-3.14,-3.2551,0.0,-1.2953,-1.3834,-1.4139,-1.4805,-1.5404,-1.5652,-1.5492,-1.5344,-1.5359,-1.5029,-1.4752,-1.4641,-1.4694,-1.4876,-1.533,-1.6105,-1.6945,-1.7845,-1.9452,-2.1104,-2.2712,-2.306,-2.3277,-2.3405,-2.3318,-2.2749,-2.1731,-2.1432,-2.0911,-2.0161,-2.0308,-2.101,-2.2193,-2.279,-2.3479,-2.4214,-2.4784,-2.4975,-2.4942,-2.4942,-2.4981,-2.5012,-2.5072,-2.5024,-2.4942,-2.4915,-2.4847,-2.4746,-2.4707,0.0,0.0,0.0,0.0,0.0,0.0,0.0,0.0,0.0,0.0,0.0,0.0,0.0,0.0,0.0,0.0,0.0,0.0,0.0,0.0,0.0,0.0,0.0,0.0,-2.997,-3.0839,-3.0799,-3.0777,-3.0739,-3.0678,-3.0518,-3.0392,-3.0325,-3.0128,-2.9956,-2.9805,-2.9662,-2.9551,-2.9435,-3.0099,-3.0485,-3.0485,-3.1453,-3.1781,-3.1411,-3.1186,-3.0861,-3.0438,-3.0059,-3.0078,-3.0457,-3.0985,-3.1118,-3.0985,-3.161,-3.1694,-3.1385,-3.1999,-3.2806,-3.3557,0.0,0.0,0.0,0.0,-3.169,-3.319,0.0,-1.3039,-1.3895,-1.417,-1.4522,-1.498,-1.5507,-1.5206,-1.4896,-1.4921,-1.4683,-1.447,-1.4268,-1.4045,-1.4281,-1.5121,-1.5996,-1.6991,0.0,0.0,-2.1525,-2.2686,-2.2695,-2.2867,-2.323,-2.2718,-2.2193,-2.1698,-2.1033,-2.0773,-2.0923,-2.104,-2.1943,-2.3457,-2.3568,-2.4007,-2.4657,-2.4775,-2.476,-2.4642,-2.4642,-2.4749,-2.4888,-2.4987,-2.4869,-2.4689,-2.479,-2.4749,-2.465,-2.465,0.0,0.0,0.0,0.0,0.0,0.0,0.0,0.0,0.0,0.0,0.0,0.0,0.0,0.0,0.0,0.0,0.0,0.0,0.0,0.0,0.0,0.0,0.0,0.0,-3.0337,-3.0879,-3.0812,-3.0739,-3.065,-3.0537,-3.0413,-3.029,-3.024,-3.0049,-2.994,-2.9905,-2.9828,-2.9832,-2.9907,-3.0523,0.0,0.0,0.0,-3.2339,-3.2409,-3.1807,-3.1487,-3.1478,-3.0717,-3.0698,-3.1362,-3.1569,-3.2003,-3.261,-3.2931,-3.3019,-3.2966,-3.3102,-3.3658,-3.4311,-3.3557,-3.3179,-3.2908,-3.1449,-3.1942,-3.3355,0.0,-1.3479,-1.3887,-1.4204,-1.4554,-1.4825,-1.4949,-1.5202,-1.5184,-1.4665,-1.468,-1.4525,-1.3974,-1.4095,-1.431,-1.455,-1.5843,-1.7454,0.0,0.0,-2.1222,-2.1744,-2.1977,-2.2313,-2.2884,-2.2359,-2.2196,-2.2421,-2.168,-2.1423,-2.1611,-2.1625,-2.2175,-2.3171,-2.3205,-2.365,-2.4375,-2.441,-2.4392,-2.4375,-2.4375,-2.4512,-2.4719,-2.4639,-2.4575,-2.4528,-2.4444,-2.4356,-2.4302,-2.4357,-2.4339,-2.4284,-2.4284,-2.4339,0.0,0.0,0.0,0.0,0.0,0.0,0.0,0.0,0.0,0.0,0.0,0.0,0.0,0.0,0.0,0.0,0.0,0.0,0.0,-2.9567,-3.0287,-3.08,-3.0794,-3.0734,-3.0683,-3.0649,-3.0537,-3.0432,-3.0364,-3.0234,-3.0098,-2.9988,-3.0551,-3.118,-3.1823,-3.2637,-3.3393,-3.4036,-3.4886,-3.5039,-3.4358,-3.4907,-3.451,-3.3221,-3.3173,0.0,-3.2384,-3.3846,-3.4251,-3.3849,-3.5331,-3.5193,-3.3942,-3.4063,-3.4243,-3.4369,-3.4214,-3.3712,-3.3073,-3.2793,-3.3384,-3.4333,-1.373,-1.3946,-1.4104,-1.4278,-1.4461,-1.4717,-1.5184,-1.5233,-1.5291,-1.5393,-1.5321,-1.5167,-1.4796,-1.4687,-1.4856,-1.5298,-1.6684,0.0,0.0,-2.0445,-2.0813,-2.1166,-2.1535,-2.1919,-2.2275,-2.1944,-2.1902,-2.2198,-2.1447,-2.147,-2.2154,-2.2209,-2.2776,-2.3694,-2.3694,-2.3915,-2.4303,-2.4229,-2.4192,-2.4192,-2.4192,-2.4248,-2.4301,-2.4284,-2.4247,-2.4174,-2.4117,-2.4078,-2.4057,-2.4077,-2.4057,-2.3979,-2.3917,-2.3998,-2.4168,0.0,0.0,0.0,0.0,0.0,0.0,0.0,0.0,0.0,0.0,0.0,0.0,0.0,0.0,-2.8276,-2.8718,0.0,-2.9707,-3.0175,-3.0583,-3.082,-3.0768,-3.0717,-3.0699,-3.0653,-3.053,-3.0614,-3.1014,-3.0945,-3.0992,-3.1369,-3.176,-3.2355,-3.3211,-3.4034,-3.4683,-3.5083,-3.6342,-3.659,-3.577,-3.6171,-3.5978,-3.5157,-3.4802,-3.4623,-3.4623,-3.5526,-3.594,-3.6012,-3.6978,-3.6903,-3.6106,-3.6281,-3.6082,-3.5695,-3.5745,-3.496,-3.375,-3.3345,-3.379,-3.4594,-1.4146,-1.4268,-1.4268,-1.43,-1.4395,-1.4725,-1.5472,-1.5441,-1.5515,-1.6118,-1.6063,-1.588,-1.5726,-1.5349,-1.5497,-1.6368,0.0,0.0,0.0,-1.9978,-2.0147,-2.0648,-2.1007,-2.1336,-2.1668,-2.1427,-2.1499,-2.1846,-2.1197,-2.1428,-2.2554,-2.2679,-2.3186,-2.4001,-2.402,-2.402,-2.4001,-2.3903,-2.3883,-2.3921,-2.3921,-2.3881,-2.3801,-2.386,-2.3862,-2.3862,-2.3821,-2.3819,-2.3813,-2.3813,-2.3792,-2.3728,-2.3549,-2.366,-2.3955,-2.4572,-2.4602,0.0,0.0,0.0,0.0,0.0,0.0,0.0,0.0,-2.8044,-2.817,-2.8627,-2.8646,-2.8861,-2.9736,-2.9943,-3.0195,-3.0781,-3.1034,-3.1054,-3.0763,-3.0715,-3.0694,-3.0604,-3.0646,-3.1017,-3.1862,-3.1994,-3.2307,-3.2999,-3.335,-3.3829,-3.4553,-3.5345,-3.5863,-3.6036,-3.736,-3.7744,-3.7076,-3.7245,-3.7245,-3.7072,-3.6449,-3.6407,-3.6887,-3.7074,-3.7531,-3.8146,-3.8271,-3.8317,-3.8311,-3.831,-3.7915,-3.7288,-3.7327,-3.6503,-3.5164,-3.4119,-3.4197,-3.4885,0.0,-1.4203,-1.4235,-1.43,-1.4734,-1.5135,-1.5237,-1.5932,-1.6291,-1.5912,-1.6199,-1.6255,-1.5742,-1.566,-1.5982,-1.6834,0.0,0.0,-1.8622,-1.8717,-1.9006,-1.9687,-1.9793,-2.0265,-2.1149,-2.0803,-2.1094,-2.2061,-2.1627,-2.1888,-2.2758,-2.2832,-2.2909,-2.2954,-2.3028,-2.3028,-2.2954,-2.2954,-2.3087,-2.3307,-2.3307,-2.3324,-2.3342,-2.3199,-2.3376,-2.3714,-2.3594,-2.3544,-2.3544,-2.3544,-2.3522,-2.3522,-2.3517,-2.3539,-2.3728,-2.4613,-2.4932,-2.5051,-2.5269,-2.5448,-2.6135,-2.8367,-2.8072,-2.7657,0.0,-2.9281,-2.9325,-3.0959,-3.0771,-3.0588,-3.1456,-3.1726,-3.1582,-3.0918,-3.1504,-3.1755,-3.0919,-3.0792,-3.0742,-3.0626,-3.1226,-3.1969,-3.2771,-3.3492,-3.3917,-3.3939,-3.534,-3.6209,-3.6324,-3.7091,-3.7878,-3.8649,-3.886,-3.8898,-3.8821,-3.9531,-3.9531,-3.8821,-3.8854,-3.8513,-3.7872,-3.8775,-3.9219,-3.9315,-3.9386,-3.9405,-3.9366,-3.8663,-3.8326,-3.824,-3.826,-3.8163,-3.7857,-3.6209,-3.5657,-3.5873,0.0,-1.3635,-1.3887,-1.4235,-1.4684,-1.5238,-1.5922,-1.6292,-1.6612,-1.6784,-1.6957,-1.6983,-1.6758,-1.6731,-1.6877,-1.7197,0.0,0.0,-1.8054,-1.8068,-1.833,-1.893,-1.914,-1.9441,-1.9873,-2.0139,-2.0528,-2.1037,-2.1117,-2.1458,-2.1978,-2.2006,-2.2201,-2.2513,-2.2556,-2.2635,-2.2797,-2.2721,-2.2998,-2.3493,-2.3493,-2.3719,-2.4053,-2.4053,-2.3884,-2.3587,-2.3235,-2.3126,0.0,0.0,-2.3313,-2.336,-2.3289,-2.3265,-2.3448,-2.4379,-2.4459,-2.4284,-2.4492,-2.5778,-2.7212,-2.7673,-2.8203,-2.8817,-2.9683,-3.0151,-3.0624,-3.146,-3.1465,-3.1584,-3.2493,-3.2295,-3.1889,-3.16,-3.1894,-3.1835,-3.0927,-3.0808,-3.0953,-3.1372,-3.2604,-3.3538,-3.3796,-3.4577,-3.5473,-3.6421,-3.7141,-3.7758,-3.826,-3.8607,-3.8954,-3.932,-3.9822,-3.986,-3.9339,-3.9673,-3.9673,-3.9339,-3.8884,-3.8505,-3.8196,-3.862,-3.8825,-3.8851,-3.889,-3.8894,-3.8926,-3.9135,-3.9204,-3.9228,-3.926,-3.9295,-3.9157,-3.7876,-3.7447,-3.7531,0.0,-1.3204,-1.3667,-1.4197,-1.4622,-1.5281,-1.644,-1.6679,-1.689,-1.7216,-1.7269,-1.7227,-1.7089,-1.7214,-1.7186,-1.7002,-1.696,0.0,0.0,-1.738,-1.7652,-1.808,-1.8444,-1.8712,-1.8864,-1.9483,-1.9823,-1.9943,-2.0333,-2.0668,-2.1037,-2.0958,-2.1336,-2.2137,-2.2045,-2.2279,-2.2773,-2.2659,-2.2996,-2.3545,-2.3667,-2.4007,-2.4438,-2.459,-2.43,-2.3743,-2.3423,-2.3284,0.0,-2.3241,-2.3342,-2.3407,-2.3098,-2.302,-2.3263,-2.4398,-2.4455,-2.4316,-2.4972,-2.6143,-2.7214,-2.7269,-2.8192,-2.9137,-2.9358,-3.0357,-3.1325,-3.1533,-3.1842,-3.2364,-3.3325,-3.3015,-3.2566,-3.2436,-3.2602,-3.2555,-3.1933,-3.1668,-3.1903,-3.2957,-3.419,-3.5097,-3.5474,-3.6279,-3.727,-3.847,-3.8779,-3.91,-3.9511,-3.9739,-3.9855,-3.9859,-4.0493,-4.0404,-3.9533,-3.9553,-3.9437,-3.9185,-3.8566,-3.8284,-3.8322,-3.8332,-3.8354,-3.8391,-3.8419,-3.844,-3.8474,-3.9168,-3.947,-3.9468,-3.9516,-3.9544,-3.9482,-3.9054,-3.8751,-3.8633,0.0,0.0,-1.3627,-1.4132,-1.4581,-1.5303,-1.6441,-1.7036,-1.7199,-1.6795,-1.671,-1.6552,-1.6076,-1.6454,-1.6497,-1.592,-1.5832,-1.5832,-1.5876,-1.6281,-1.6697,-1.7107,-1.7598,-1.8068,-1.85,-1.8864,-1.9037,-1.9037,-1.9396,-1.9738,-2.0119,-1.9813,-2.0389,-2.1692,-2.1385,-2.176,-2.2686,-2.2686,-2.2881,-2.3128,-2.3537,-2.3819,-2.4029,-2.4255,-2.4286,-2.4301,-2.4465,0.0,-2.3856,-2.3642,-2.3725,-2.3761,-2.3041,-2.2816,-2.3163,-2.4874,-2.5456,-2.5906,-2.762,-2.6509,-2.551,-2.8093,-2.8251,-2.788,-2.8334,-2.9738,-3.1031,-3.1426,-3.2179,-3.309,-3.4071,-3.4359,-3.4147,-3.3305,-3.3872,-3.4441,-3.4472,-3.3808,-3.394,-3.5591,-3.5838,-3.6506,-3.8112,-3.9014,-3.9487,-3.9468,-4.023,-4.0401,-3.9644,-4.0343,-4.0769,-4.0768,-4.0846,-4.0481,-3.9618,-3.9656,-3.927,-3.8431,-3.8411,-3.8392,-3.8404,-3.8397,-3.8397,-3.839,-3.8479,-3.8491,-3.8501,-3.8596,-3.8632,-3.8632,-3.8633,-3.8633,-3.875,-3.955,-3.9316,-3.8711,0.0,0.0,0.0,-1.4187,-1.4648,-1.5169,-1.5934,-1.62,-1.6324,-1.625,-1.625,0.0,0.0,0.0,0.0,0.0,-1.5788,-1.5788,-1.5788,-1.5964,-1.6095,-1.6244,-1.6386,-1.6544,-1.6714,-1.7392,-1.7927,-1.8357,-1.9031,-1.9639,-2.0142,-2.0062,-2.0364,-2.103,-2.0897,-2.1383,-2.2238,-2.2238,-2.3273,-2.4855,-2.4557,-2.5016,-2.5917,-2.581,-2.5226,-2.4541,0.0,0.0,-2.3568,-2.3591,-2.3344,-2.298,-2.2684,-2.2605,-2.2762,-2.358,-2.4723,-2.5743,-2.5753,-2.6458,-2.7256,-2.7551,-2.7942,-2.8388,-2.8722,-3.0199,-3.16,-3.1965,-3.2321,-3.3106,-3.4725,-3.4159,-3.374,-3.4693,-3.5095,-3.5311,-3.5391,-3.5113,-3.5389,-3.6621,-3.7221,-3.8012,-3.9214,-3.9524,-3.9874,-4.0401,-4.0738,-4.0815,-4.0477,-4.0752,-4.0923,-4.0924,-4.0397,-3.9971,-3.968,-3.8536,-3.7836,-3.7525,-3.7006,-3.6729,-3.6751,-3.6787,-3.6804,-3.6802,-3.684,-3.6844,-3.6887,-3.7497,-3.7734,-3.7793,-3.8379,-3.857,-3.8571,-3.8863,-3.8759,-3.8603,0.0,0.0,0.0,0.0,0.0,0.0,0.0,0.0,0.0,0.0,0.0,0.0,0.0,0.0,0.0,0.0,0.0,-1.5299,-1.5299,0.0,-1.5534,-1.5534,-1.57,-1.5872,-1.6032,-1.6593,-1.7182,-1.7726,-1.8285,-1.8806,-1.9373,-1.9408,-1.9926,-2.0878,-2.091,-2.1581,-2.2697,-2.2697,-2.3743,-2.5404,-2.5118,-2.5644,-2.6639,-2.6624,-2.6213,0.0,0.0,0.0,-2.4334,-2.389,-2.3515,-2.313,-2.2552,-2.2801,-2.3311,-2.3542,-2.4644,-2.5762,-2.5587,-2.6533,-2.7565,-2.7415,-2.7913,-2.8406,-2.8401,-2.9861,-3.1243,-3.1243,-3.1858,-3.288,-3.4457,-3.3999,-3.4007,-3.5952,-3.6189,-3.6356,-3.7032,-3.6828,-3.7063,-3.8332,-3.8697,-3.9181,-4.0066,-4.0129,-4.0326,-4.087,-4.0674,-4.0519,-4.0474,-4.0507,-4.0396,-4.0121,-3.9558,-3.9122,-3.8808,-3.7726,-3.7024,-3.6692,-3.6183,-3.593,-3.5937,-3.5982,-3.5991,-3.5951,-3.5951,-3.5949,-3.5966,-3.6532,-3.6767,-3.6825,-3.7372,-3.7571,-3.7559,-3.7878,-3.7783,-3.7644,0.0,0.0,0.0,0.0,0.0,0.0,0.0,0.0,0.0,0.0,0.0,0.0,0.0,0.0,0.0,0.0,0.0,0.0,0.0,0.0,0.0,-1.5062,-1.5513,-1.5975,-1.6443,-1.6456,-1.6729,-1.7191,-1.7203,-1.7496,-1.7954,-1.8015,-1.9158,-2.1113,-2.1171,-2.2177,-2.3817,-2.3817,-2.4198,-2.4785,-2.5224,-2.5741,-2.6228,-2.6704,0.0,0.0,0.0,0.0,-2.5966,-2.4513,-2.4179,-2.4115,-2.2668,-2.3338,-2.4671,-2.4671,-2.5217,-2.6031,-2.7051,-2.677,-2.6527,-2.7759,-2.8075,-2.7933,-2.7464,-2.881,-3.001,-2.9485,-3.0828,-3.241,-3.3358,-3.3849,-3.482,-3.6959,-3.7095,-3.7546,-3.932,-3.8838,-3.8934,-4.0596,-4.0118,-3.9956,-4.0733,-4.0752,-4.0755,-4.0822,-4.0124,-3.9686,-3.9683,-3.9666,-3.9286,-3.8517,-3.8458,-3.8023,-3.7212,-3.7207,-3.6816,-3.5996,-3.5996,-3.5996,-3.5996,-3.5996,-3.5966,-3.5899,-3.5889,-3.5862,-3.58,-3.58,-3.58,-3.58,-3.58,-3.58,-3.5905,-3.6726,-3.6499,-3.6037,0.0,0.0,0.0,0.0,0.0,0.0,0.0,0.0,0.0,0.0,0.0,0.0,0.0,0.0,0.0,0.0,0.0,0.0,0.0,0.0,0.0,0.0,0.0,-1.5348,-1.5423,-1.6137,-1.678,0.0,0.0,-1.8137,-1.8721,-1.8762,-1.9248,-2.0144,-2.0194,-2.1132,-2.2725,-2.2725,-2.3553,-2.4944,0.0,-2.5786,-2.606,0.0,0.0,0.0,0.0,0.0,-2.579,-2.4729,-2.4041,-2.3653,-2.3537,-2.3924,-2.4397,-2.4397,-2.5062,-2.5848,-2.6148,-2.6505,-2.6926,-2.7457,-2.7582,-2.7631,-2.7852,-2.8775,-2.9745,-3.018,-3.066,-3.1312,-3.2295,-3.2844,-3.4077,-3.6842,-3.7394,-3.817,-4.0053,-4.0102,-4.0135,-4.0668,-4.0544,-4.0524,-4.0781,-4.0208,-3.9855,-3.9935,-3.9735,-3.9621,-3.9637,-3.906,-3.8647,-3.844,-3.7809,-3.7352,-3.7127,-3.6498,-3.6064,-3.5849,-3.5849,-3.5849,-3.5849,-3.5849,-3.583,-3.5826,-3.5841,-3.582,-3.5805,-3.5805,-3.5805,-3.5805,-3.5805,-3.5766,-3.5747,-3.5987,-3.5927,-3.5792,0.0,0.0,0.0,0.0,0.0,0.0,0.0,0.0,0.0,0.0,0.0,0.0,0.0,0.0,0.0,0.0,0.0,0.0,0.0,0.0,0.0,0.0,0.0,-1.5203,-1.5421,-1.6361,-1.7015,0.0,0.0,0.0,0.0,-1.8467,-1.8901,-1.9485,-1.9649,-2.0569,-2.1944,-2.1944,0.0,0.0,0.0,0.0,0.0,0.0,0.0,0.0,0.0,0.0,0.0,-2.5242,-2.4349,-2.3511,-2.4061,-2.4431,-2.4712,-2.5046,-2.5531,-2.6,-2.6132,-2.647,-2.6925,-2.731,-2.7404,-2.7478,-2.784,-2.8439,-2.8998,-2.9268,-2.9515,-2.9927,-3.075,-3.1538,-3.3147,-3.65,-3.7336,-3.8209,-3.9998,-4.0319,-4.0406,-4.0457,-4.0554,-4.0488,-4.0176,-3.9693,-3.9274,-3.8929,-3.8966,-3.8863,-3.8478,-3.8027,-3.7611,-3.723,-3.6774,-3.6533,-3.6522,-3.6029,-3.5807,-3.581,-3.581,-3.5791,-3.5771,-3.5788,-3.5779,-3.5756,-3.5773,-3.5759,-3.5762,-3.5762,-3.5742,-3.5731,-3.5742,-3.5723,-3.5673,-3.5684,-3.5704,-3.5742,0.0,0.0,0.0,0.0,0.0,0.0,0.0,0.0,0.0,0.0,0.0,0.0,0.0,0.0,0.0,0.0,0.0,0.0,0.0,0.0,0.0,0.0,-1.4843,-1.5301,-1.5676,-1.6623,-1.7114,-1.7169,0.0,0.0,0.0,0.0,0.0,0.0,0.0,0.0,0.0,0.0,0.0,0.0,0.0,0.0,0.0,0.0,0.0,0.0,0.0,0.0,0.0,0.0,-2.4736,-2.3674,-2.4511,-2.4925,-2.5322,-2.6101,-2.6286,-2.6239,-2.6468,-2.6554,-2.6674,-2.7184,-2.7279,-2.7355,-2.7569,-2.7911,-2.8073,-2.7769,-2.8077,-2.8607,-2.9278,-3.0556,-3.2652,-3.6136,-3.7041,-3.7923,-3.957,-3.9983,-4.0139,-4.0139,-4.0206,-3.9964,-3.9272,-3.91,-3.8677,-3.7813,-3.7939,-3.7738,-3.7005,-3.686,-3.6464,-3.5708,-3.5736,-3.5776,-3.5762,-3.5781,-3.5767,-3.5777,-3.5777,-3.5739,-3.57,-3.5759,-3.5739,-3.5674,-3.5681,-3.5673,-3.5673,-3.5673,-3.5643,-3.5601,-3.5654,-3.5673,-3.5631,-3.5809,-3.5858,-3.5963,0.0,0.0,0.0,0.0,0.0,0.0,0.0,0.0,0.0,0.0,-1.4373,-1.4373,0.0,0.0,0.0,0.0,0.0,0.0,0.0,0.0,0.0,0.0,-1.4843,-1.5148,-1.5236,-1.5793,-1.6273,-1.6645,-1.6732,0.0,0.0,0.0,0.0,0.0,0.0,0.0,0.0,0.0,0.0,0.0,0.0,0.0,0.0,0.0,0.0,0.0,0.0,0.0,0.0,0.0,-2.4533,-2.438,-2.5796,-2.5848,-2.5672,-2.6776,-2.6667,-2.6203,-2.6239,-2.6274,-2.6345,-2.6674,-2.6742,-2.6809,-2.7206,-2.7355,-2.7457,-2.7644,-2.7765,-2.8147,-2.9202,-3.1758,-3.4333,-3.6374,-3.6911,-3.7709,-3.9529,-3.984,-3.9861,-3.9861,-3.9295,-3.8879,-3.8727,-3.8118,-3.7376,-3.6501,-3.6621,-3.6742,-3.6741,-3.6106,-3.5712,-3.5615,-3.5635,-3.5635,-3.5631,-3.5631,-3.5628,-3.5642,-3.5642,-3.5642,-3.5623,-3.5639,-3.5596,-3.5547,-3.5604,-3.5604,-3.554,-3.554,-3.5565,-3.5601,-3.5612,-3.5643,-3.5751,-3.6455,-3.6694,-3.6786,0.0,0.0,0.0,0.0,0.0,0.0,0.0,-1.3914,-1.4286,-1.4056,-1.4231,-1.4373,-1.4373,-1.4373,-1.4373,0.0,0.0,0.0,0.0,0.0,0.0,0.0,0.0,-1.5105,-1.5105,-1.6077,-1.6557,-1.6514,0.0,-1.7147,-1.6885,-1.7158,-1.7291,-1.7297,-1.7566,-1.8132,-1.8944,0.0,0.0,-2.0366,-2.2053,-2.2924,0.0,0.0,0.0,0.0,0.0,0.0,0.0,0.0,-2.5108,-2.463,-2.5644,-2.5632,-2.542,-2.6586,-2.6421,-2.5901,-2.6132,-2.622,-2.6239,-2.6554,-2.6606,-2.6691,-2.7009,-2.7098,-2.7217,-2.7608,-2.7707,-2.8372,-3.0548,-3.2475,-3.4091,-3.5231,-3.5702,-3.6621,-3.8533,-3.8945,-3.9165,-3.9599,-3.9012,-3.8416,-3.7979,-3.7183,-3.6387,-3.5552,-3.5552,-3.5713,-3.5914,-3.5652,-3.5734,-3.6196,-3.6228,-3.6209,-3.6233,-3.6233,-3.6009,-3.5547,-3.5547,-3.5547,-3.556,-3.5584,-3.5584,-3.5547,-3.5483,-3.5443,-3.5435,-3.5307,-3.5273,-3.534,-3.5302,-3.5571,-3.6017,-3.6385,-3.6792,-3.7274,0.0,0.0,0.0,0.0,0.0,0.0,0.0,-1.3674,-1.4133,-1.3871,-1.4155,-1.4373,-1.4373,-1.4373,-1.4373,0.0,0.0,0.0,0.0,0.0,0.0,0.0,0.0,-1.4952,-1.4952,0.0,0.0,-1.6372,-1.7256,0.0,0.0,0.0,0.0,0.0,-1.7092,-1.7534,-1.7941,-1.8038,-1.8632,0.0,0.0,-2.2024,0.0,0.0,0.0,0.0,0.0,0.0,0.0,0.0,-2.5342,-2.4548,-2.4788,-2.4828,-2.5005,-2.6142,-2.5954,-2.5443,-2.5828,-2.5917,-2.5957,-2.6112,-2.6265,-2.6469,-2.6757,-2.6835,-2.6994,-2.7587,-2.7701,-2.8659,-3.1817,-3.2798,-3.3241,-3.3723,-3.4566,-3.5781,-3.7544,-3.8111,-3.8646,-3.9333,-3.87,-3.7926,-3.7225,-3.6453,-3.5716,-3.5073,-3.5227,-3.5287,-3.5143,-3.5446,-3.594,-3.6622,-3.6834,-3.6925,-3.6935,-3.6743,-3.6306,-3.5624,-3.5465,-3.5369,-3.5369,-3.5416,-3.5449,-3.5449,-3.5288,-3.5243,-3.5289,-3.5064,-3.5013,-3.5051,-3.5011,-3.5491,-3.6216,-3.6388,-3.6958,-3.7774,0.0,0.0,0.0,0.0,0.0,0.0,0.0,-1.3401,-1.3892,-1.4264,-1.4351,-1.4373,-1.4373,-1.4373,-1.4373,0.0,0.0,0.0,0.0,0.0,0.0,0.0,0.0,0.0,0.0,0.0,0.0,-1.584,-1.6404,0.0,0.0,0.0,0.0,0.0,0.0,-1.7334,-1.7434,-1.7886,0.0,0.0,0.0,0.0,0.0,0.0,0.0,0.0,0.0,-2.5863,-2.5638,-2.4577,-2.4176,-2.3929,-2.3354,-2.3683,-2.4591,-2.5715,-2.5536,-2.4942,-2.502,-2.502,-2.4955,-2.4742,-2.5159,-2.573,-2.6148,-2.6286,-2.6539,-2.7505,-2.7708,-2.8657,-3.1836,-3.2465,-3.2501,-3.2577,-3.4292,-3.6061,-3.7287,-3.8099,-3.8715,-3.9082,-3.7806,-3.6838,-3.6763,-3.6019,-3.5516,-3.5442,-3.6293,-3.6252,-3.5003,-3.5647,-3.6084,-3.616,-3.6939,-3.7357,-3.7338,-3.6559,-3.6122,-3.6027,-3.5306,-3.4945,-3.4945,-3.4962,-3.4962,-3.4963,-3.4925,-3.4944,-3.4945,-3.4925,-3.4906,-3.4925,-3.498,-3.5493,-3.6293,-3.7034,-3.7792,-3.8586,0.0,0.0,0.0,0.0,0.0,0.0,-1.2106,-1.3237,-1.3958,-1.3565,-1.4013,-1.4373,-1.4373,-1.4373,-1.4373,-1.4373,0.0,0.0,0.0,0.0,0.0,0.0,0.0,0.0,0.0,0.0,-1.5771,-1.6241,-1.6732,0.0,0.0,0.0,0.0,0.0,0.0,-1.6994,-1.7312,-1.7201,0.0,0.0,0.0,0.0,0.0,0.0,0.0,0.0,0.0,0.0,-2.421,-2.4086,-2.3794,-2.34,-2.3131,-2.2982,-2.326,-2.4594,-2.4792,-2.4599,-2.4823,-2.4902,-2.4879,-2.4764,-2.5048,-2.5512,-2.6069,-2.6203,-2.6295,-2.6724,-2.6809,-2.7708,-3.0712,-3.1876,-3.2398,-3.2403,-3.3269,-3.4524,-3.617,-3.6656,-3.7345,-3.8649,-3.7588,-3.6919,-3.7384,-3.6509,-3.6019,-3.6222,-3.6584,-3.6571,-3.6012,-3.6524,-3.7067,-3.758,-3.794,-3.8111,-3.8111,-3.7769,-3.7353,-3.68,-3.6006,-3.5628,-3.5609,-3.5116,-3.4888,-3.4889,-3.4774,-3.4734,-3.4694,-3.4591,-3.4569,-3.4647,-3.5152,-3.5848,-3.6652,-3.7432,-3.8214,-3.894,0.0,0.0,0.0,0.0,0.0,-1.2345,-1.1964,-1.3084,-1.3805,-1.3412,-1.3947,-1.4373,-1.4373,-1.4504,-1.4591,-1.4591,-1.4777,0.0,0.0,0.0,0.0,0.0,0.0,0.0,0.0,0.0,-1.6144,-1.6514,-1.7027,-1.7092,0.0,0.0,-1.7082,-1.6743,0.0,0.0,0.0,0.0,0.0,0.0,0.0,0.0,0.0,0.0,0.0,0.0,0.0,0.0,0.0,0.0,0.0,-2.2636,-2.2603,0.0,0.0,-2.3493,-2.3909,-2.3994,-2.442,-2.4542,-2.4496,-2.4413,-2.4697,-2.5029,-2.5131,-2.5721,-2.6211,-2.622,-2.687,-2.8098,-3.0137,-3.132,-3.2039,-3.2004,-3.2492,-3.3484,-3.5187,-3.5699,-3.6544,-3.8227,-3.7271,-3.6757,-3.7514,-3.6861,-3.6564,-3.7081,-3.71,-3.71,-3.71,-3.7378,-3.7802,-3.8384,-3.8629,-3.8761,-3.8761,-3.8516,-3.8083,-3.7476,-3.6647,-3.6274,-3.6241,-3.545,-3.5073,-3.5073,-3.4661,-3.4483,-3.4483,-3.4344,-3.4316,-3.4433,-3.5286,-3.6081,-3.6875,-3.7623,-3.8414,-3.9101,0.0,0.0,0.0,0.0,0.0,0.0,-1.2737,-1.2889,-1.3249,-1.4242,-1.4373,-1.4373,-1.4373,-1.481,-1.5094,-1.5094,-1.4657,0.0,0.0,0.0,0.0,0.0,0.0,0.0,0.0,0.0,-1.6514,-1.6514,-1.7027,-1.7278,-1.7267,-1.7278,-1.7278,-1.7267,0.0,0.0,0.0,0.0,0.0,0.0,0.0,0.0,0.0,0.0,0.0,0.0,0.0,0.0,0.0,0.0,0.0,0.0,0.0,0.0,0.0,0.0,-2.2934,-2.3024,-2.3465,-2.3595,-2.3573,-2.3295,-2.3769,-2.4035,-2.2979,-2.4553,-2.6189,-2.6209,-2.8465,-3.0452,-3.0484,-3.0853,-3.11,-3.11,-3.2245,-3.3502,-3.4658,-3.5723,-3.6825,-3.7977,-3.6689,-3.6001,-3.6747,-3.6801,-3.7145,-3.8011,-3.8083,-3.8083,-3.8083,-3.8083,-3.8045,-3.7912,-3.8674,-3.9082,-3.9082,-3.8302,-3.7894,-3.7875,-3.7084,-3.6694,-3.6675,-3.5876,-3.5504,-3.5448,-3.4569,-3.4197,-3.4221,-3.4269,-3.4269,-3.4314,-3.5218,-3.6056,-3.6798,-3.7596,-3.8414,-3.9101,0.0,0.0,0.0,0.0,0.0,0.0,0.0,-1.3019,-1.3565,-1.3871,-1.4187,-1.4373,-1.4373,-1.481,-1.5236,-1.5524,-1.5465,0.0,0.0,0.0,0.0,0.0,0.0,0.0,0.0,0.0,-1.6688,-1.7038,-1.7202,-1.7278,-1.7278,-1.7278,-1.7278,-1.7267,-1.6918,-1.695,0.0,0.0,0.0,0.0,0.0,0.0,0.0,0.0,0.0,0.0,0.0,0.0,0.0,0.0,0.0,0.0,0.0,0.0,0.0,0.0,0.0,-2.3024,-2.3465,-2.3595,-2.3593,-2.351,-2.3658,-2.3716,-2.3376,-2.3875,-2.5322,-2.8494,-2.9844,-3.0509,-3.0505,-3.0835,-3.124,-3.1715,-3.2293,-3.3261,-3.4909,-3.5448,-3.6154,-3.7524,-3.7462,-3.7313,-3.7273,-3.7517,-3.7812,-3.8083,-3.8101,-3.8101,-3.8101,-3.8101,-3.782,-3.7253,-3.7691,-3.7937,-3.7948,-3.7923,-3.8172,-3.8711,-3.7894,-3.7522,-3.7466,-3.611,-3.5497,-3.5442,-3.4569,-3.4197,-3.4197,-3.4221,-3.4221,-3.4327,-3.5783,-3.6489,-3.6853,-3.8209,-3.8878,-3.9101,0.0,0.0,0.0,0.0,0.0,0.0,0.0,-1.2971,-1.3477,-1.3663,-1.4089,-1.4373,-1.4373,-1.4835,-1.53,-1.5771,-1.6171,0.0,0.0,0.0,0.0,0.0,0.0,0.0,-1.5774,-1.647,-1.6863,-1.6994,-1.6994,-1.6994,-1.6994,-1.6994,-1.7092,-1.7267,-1.695,-1.6983,0.0,0.0,0.0,0.0,0.0,0.0,0.0,0.0,0.0,0.0,0.0,0.0,0.0,0.0,0.0,0.0,0.0,0.0,0.0,0.0,-2.2314,-2.274,-2.3421,-2.3595,-2.3595,-2.3595,-2.3595,-2.3593,-2.3613,-2.3618,-2.4488,-2.772,-2.9029,-2.9709,-2.9942,-3.0453,-3.1009,-3.1424,-3.1972,-3.2849,-3.4281,-3.4956,-3.568,-3.673,-3.7345,-3.7452,-3.693,-3.7362,-3.7685,-3.7685,-3.7685,-3.7542,-3.7255,-3.7238,-3.6879,-3.609,-3.7098,-3.7533,-3.7199,-3.7728,-3.8239,-3.8718,-3.8221,-3.7982,-3.7927,-3.6591,-3.6086,-3.613,-3.486,-3.4389,0.0,-3.4363,-3.4318,-3.4457,-3.6094,-3.6842,-3.711,-3.8287,-3.8884,-3.9073,0.0,0.0,0.0,0.0,0.0,0.0,0.0,-1.2836,-1.3116,-1.3663,-1.4147,-1.4468,-1.4512,-1.4914,-1.5368,-1.5851,0.0,0.0,0.0,0.0,0.0,0.0,0.0,0.0,-1.5785,-1.6787,-1.7049,-1.6568,-1.6535,-1.6514,-1.6514,-1.6481,-1.6786,-1.7224,-1.7224,-1.7301,0.0,0.0,0.0,0.0,0.0,0.0,0.0,0.0,0.0,0.0,0.0,0.0,0.0,0.0,0.0,0.0,0.0,0.0,0.0,0.0,0.0,0.0,0.0,-2.3595,-2.3595,-2.3595,-2.3595,-2.3595,-2.3595,-2.3613,0.0,-2.4756,-2.6636,-2.8331,-2.8894,-2.9791,-3.0443,-3.0492,-3.1366,-3.2303,-3.3068,-3.4418,-3.5404,-3.5766,-3.6492,-3.6632,-3.5843,-3.6478,-3.6865,-3.6829,-3.6829,-3.6496,-3.5776,-3.5741,-3.539,-3.4635,-3.679,-3.7582,-3.687,-3.7631,-3.8047,-3.8101,-3.8101,-3.8101,-3.8065,-3.7199,-3.6999,-3.7241,-3.5399,-3.4739,-3.4999,-3.4654,-3.4521,-3.472,-3.6168,-3.6976,-3.7424,-3.7911,-3.8504,-3.8942,0.0,0.0,0.0,0.0,0.0,0.0,0.0,0.0,0.0,0.0,-1.4529,-1.4967,-1.5443,-1.5889,-1.6385,0.0,0.0,0.0,0.0,0.0,0.0,0.0,0.0,0.0,-1.5785,-1.6787,-1.7224,-1.7092,-1.7075,-1.6833,-1.6514,-1.6495,-1.6584,-1.6699,-1.6699,-1.7157,0.0,0.0,0.0,0.0,0.0,0.0,0.0,0.0,0.0,0.0,-2.0061,-1.9708,0.0,0.0,0.0,0.0,0.0,0.0,0.0,0.0,-2.2965,-2.3319,-2.3551,0.0,-2.3595,-2.3595,-2.3595,-2.3595,0.0,-2.3593,-2.3988,-2.5397,0.0,-2.768,-2.8243,-2.8942,-2.9704,-3.0672,-3.1034,-3.1644,-3.3026,-3.4252,-3.5204,-3.5796,-3.6323,-3.6313,-3.5514,-3.5815,-3.5846,-3.5267,-3.5232,-3.5144,-3.4969,-3.4951,-3.46,-3.3828,-3.5453,-3.6416,-3.652,-3.6919,-3.7434,-3.8101,-3.8101,-3.8101,-3.8065,-3.7199,-3.6852,-3.688,-3.5806,-3.5403,-3.5411,-3.4769,-3.4829,-3.5377,-3.5788,-3.6359,-3.7025,-3.7794,-3.8201,-3.8314,0.0,0.0,0.0,0.0,0.0,0.0,0.0,0.0,0.0,0.0,0.0,-1.503,-1.536,-1.6041,0.0,0.0,0.0,0.0,0.0,0.0,0.0,0.0,0.0,-1.6661,-1.6905,-1.7404,-1.7476,-1.7028,-1.7191,-1.6786,-1.5858,-1.6074,-1.6283,-1.6514,-1.6514,-1.6817,0.0,0.0,0.0,0.0,0.0,0.0,0.0,0.0,0.0,0.0,-1.9486,-1.9185,0.0,-1.8911,-1.9048,-1.9341,0.0,0.0,0.0,0.0,-2.2702,-2.3334,-2.3551,-2.3819,-2.4073,-2.4073,-2.4073,-2.4073,-2.4073,0.0,0.0,0.0,0.0,0.0,-2.7434,-2.817,-2.9019,-3.0218,-3.0668,-3.1553,-3.3453,-3.3956,-3.4449,-3.5326,-3.5349,-3.5087,-3.4639,-3.4782,-3.4727,-3.4328,-3.4391,-3.4327,-3.3995,-3.4071,-3.395,-3.3512,-3.4319,-3.5044,-3.5598,-3.647,-3.7131,-3.7613,-3.7613,-3.7613,-3.7559,-3.7113,-3.697,-3.7055,-3.6112,-3.5806,-3.5906,-3.5325,-3.5328,-3.5739,-3.6149,-3.6629,-3.7145,-3.7471,-3.7827,-3.8068,0.0,0.0,0.0,0.0,0.0,0.0,0.0,0.0,0.0,0.0,0.0,0.0,0.0,0.0,0.0,0.0,0.0,0.0,0.0,0.0,0.0,0.0,-1.7623,-1.7486,-1.7917,-1.7979,-1.7589,-1.6777,-1.7085,-1.6582,-1.5301,-1.5654,-1.6064,-1.6505,-1.666,-1.6769,0.0,0.0,0.0,0.0,0.0,0.0,0.0,0.0,0.0,0.0,0.0,0.0,0.0,-1.8649,-1.8726,-1.8874,-1.8967,0.0,0.0,0.0,0.0,0.0,-2.3142,-2.3837,-2.4507,-2.4448,-2.4477,-2.4477,-2.4477,0.0,0.0,0.0,0.0,0.0,0.0,-2.7319,-2.8221,-2.9271,-3.0141,-3.1487,-3.36,-3.3335,-3.3347,-3.4449,-3.4072,-3.3646,-3.3526,-3.3607,-3.3556,-3.3453,-3.368,-3.3519,-3.2913,-3.3084,-3.3211,-3.3265,-3.3334,-3.3771,-3.4688,-3.6092,-3.6865,-3.6987,-3.6987,-3.6987,-3.6987,-3.6987,-3.7147,-3.736,-3.6403,-3.6176,-3.647,-3.5998,-3.5881,-3.6057,-3.6584,-3.7079,-3.7413,-3.7108,-3.7411,-3.7862,0.0,0.0,0.0,0.0,0.0,0.0,0.0,0.0,0.0,0.0,0.0,0.0,0.0,0.0,0.0,0.0,0.0,0.0,0.0,0.0,0.0,-1.8784,-1.7394,-1.6693,-1.6775,-1.7157,-1.7272,-1.7139,-1.681,-1.6515,-1.6264,-1.5962,-1.6051,-1.6539,-1.7461,-1.8094,-1.856,0.0,0.0,0.0,-2.0549,0.0,0.0,0.0,0.0,0.0,0.0,0.0,0.0,-1.746,-1.7948,-1.8641,-1.9155,0.0,0.0,0.0,0.0,0.0,-2.1623,-2.2797,-2.3948,-2.3806,-2.3759,-2.3759,-2.3759,0.0,0.0,0.0,0.0,0.0,-2.4927,-2.5983,-2.7035,-2.7612,-2.8984,-3.044,-3.1818,-3.1938,-3.2137,-3.294,-3.3168,-3.3035,-3.2411,-3.2627,-3.253,-3.1914,-3.1884,-3.1888,-3.1768,-3.1788,-3.1901,-3.214,-3.2541,-3.3381,-3.4688,-3.5548,-3.6338,-3.6987,-3.6987,-3.6987,-3.6987,-3.6987,-3.7009,-3.7087,-3.6886,-3.6833,-3.6858,-3.613,-3.6197,-3.6742,-3.6197,-3.6429,-3.7087,-3.7009,-3.7087,-3.7164,0.0,0.0,0.0,0.0,0.0,0.0,0.0,0.0,0.0,0.0,0.0,0.0,0.0,0.0,0.0,0.0,0.0,0.0,0.0,0.0,-1.8466,-1.8466,-1.7454,-1.7149,-1.7798,-1.7733,-1.7557,-1.7315,-1.7359,-1.6938,-1.6138,-1.618,-1.6152,-1.6152,-1.7255,-1.7872,-1.8154,-1.9058,0.0,0.0,0.0,0.0,0.0,0.0,0.0,0.0,0.0,0.0,0.0,0.0,-1.7475,-1.7842,-1.8112,0.0,0.0,0.0,0.0,0.0,-2.1583,-2.2241,-2.2916,-2.2797,-2.3466,-2.4163,-2.4163,-2.3864,0.0,0.0,0.0,-2.4267,-2.4849,-2.5819,-2.698,-2.8413,-2.92,-3.0061,-3.1411,-3.0924,-3.0841,-3.1984,-3.1881,-3.1625,-3.125,-3.1364,-3.1311,-3.0975,-3.1117,-3.1252,-3.1252,-3.1406,-3.1542,-3.1691,-3.1905,-3.2698,-3.4142,-3.4506,-3.5466,-3.6987,-3.6987,-3.6987,-3.6987,-3.6987,-3.6987,-3.6987,-3.6987,-3.6987,-3.6952,-3.6584,-3.6654,-3.6935,-3.6584,-3.6654,-3.6987,-3.6987,-3.6987,-3.6987,0.0,0.0,0.0,0.0,0.0,0.0,0.0,0.0,0.0,0.0,0.0,0.0,0.0,0.0,0.0,0.0,0.0,0.0,0.0,0.0,-1.7891,-1.7891,-1.7447,-1.7617,-1.8479,-1.8099,-1.7718,-1.737,-1.758,-1.7111,-1.5988,-1.6569,-1.6696,-1.6384,-1.7466,-1.7945,-1.8031,-1.903,-1.9673,0.0,0.0,0.0,0.0,0.0,0.0,0.0,0.0,0.0,0.0,0.0,0.0,0.0,0.0,0.0,0.0,-1.9083,-1.9852,-2.0645,-2.1094,-2.1454,-2.1732,-2.1732,0.0,-2.4058,-2.4163,-2.3792,-2.3465,-2.3551,-2.3595,-2.3889,-2.475,-2.5582,-2.6832,-2.9002,-2.9146,-2.9477,-3.0882,-3.0129,-2.9897,-3.1163,-3.0815,-3.0526,-3.0526,-3.0526,-3.0526,-3.0526,-3.0733,-3.0895,-3.0895,-3.1117,-3.1312,-3.1389,-3.1312,-3.1981,-3.343,-3.3536,-3.4661,-3.6753,-3.6753,-3.6794,-3.6891,-3.6891,-3.6948,-3.6987,-3.6987,-3.6987,-3.6987,-3.6987,-3.6987,-3.6987,-3.6987,-3.6987,-3.6987,-3.6987,-3.6987,-3.6987,0.0,0.0,0.0,0.0,0.0,0.0,0.0,0.0,0.0,0.0,0.0,0.0,0.0,0.0,0.0,0.0,0.0,0.0,0.0,0.0,-1.7264,-1.7264,-1.7225,-1.7238,-1.7316,-1.7274,-1.7252,-1.721,-1.6823,-1.6559,-1.6479,-1.7509,-1.7987,-1.7987,-1.9131,-1.9638,-1.9677,-2.0299,-2.061,-2.0649,0.0,0.0,0.0,0.0,0.0,0.0,0.0,0.0,0.0,0.0,0.0,0.0,0.0,0.0,-1.8531,-1.857,-1.8453,-1.8455,-1.8956,-1.9833,-2.0647,-2.0647,-2.1458,-2.2385,-2.2917,-2.2963,-2.3068,-2.3508,-2.3595,-2.361,-2.3713,-2.4618,-2.6001,-2.7829,-2.7881,-2.816,-2.9386,-2.9483,-2.9715,-3.051,-3.0543,-3.0526,-3.0526,-3.0526,-3.0526,-3.0526,-3.051,-3.0526,-3.0526,-3.0551,-3.0716,-3.1015,-3.0716,-3.1247,-3.2684,-3.3042,-3.4168,-3.5994,-3.5994,-3.6182,-3.6544,-3.6544,-3.6708,-3.6987,-3.6987,-3.6987,-3.6987,-3.6987,-3.6987,-3.6987,-3.6987,-3.6987,-3.6987,-3.6987,-3.6987,-3.6987,0.0,0.0,0.0,0.0,0.0,0.0,0.0,0.0,0.0,0.0,0.0,0.0,0.0,0.0,0.0,0.0,0.0,0.0,0.0,-1.7199,-1.7199,-1.7199,-1.7199,-1.7199,-1.7199,-1.7199,-1.7219,-1.72,-1.7037,-1.6947,-1.6947,-1.7349,-1.7539,-1.7578,-1.8388,-1.8741,-1.878,-1.9329,-1.9564,-1.959,-1.9969,0.0,0.0,0.0,0.0,0.0,0.0,0.0,0.0,0.0,-1.85,-1.8539,-1.8669,-1.863,-1.8553,-1.8784,-1.867,-1.8578,-1.9037,-1.9588,-1.9966,-1.9595,-2.0348,0.0,0.0,-2.2658,-2.3024,-2.3508,-2.3595,-2.3816,-2.4585,-2.5483,-2.6468,-2.765,-2.7973,-2.8392,-2.9277,-2.9417,-2.9682,-3.0427,-3.0526,-3.0526,-3.0526,-3.0526,-3.0526,-3.0526,-3.0526,-3.0526,-3.0526,-3.0526,-3.0568,-3.0692,-3.0568,-3.1,-3.1968,-3.2126,-3.2994,-3.4583,-3.5467,-3.5994,-3.6156,-3.6156,-3.6182,-3.6308,-3.6308,-3.6451,-3.6708,-3.6708,-3.6708,-3.665,-3.6409,-3.6451,-3.6708,-3.6708,-3.6829,-3.6987,0.0,0.0,0.0,0.0,0.0,0.0,0.0,0.0,0.0,0.0,0.0,0.0,0.0,0.0,0.0,0.0,0.0,0.0,-1.725,-1.7277,-1.7397,-1.7585,-1.7598,-1.7557,-1.7393,-1.7393,-1.7323,-1.7199,-1.7199,-1.7199,-1.7199,-1.7395,-1.7486,-1.7512,-1.8087,-1.8349,-1.8375,-1.8741,-1.8911,-1.8937,-1.9495,-1.9178,0.0,0.0,0.0,0.0,0.0,0.0,0.0,0.0,-1.8769,-1.8693,-1.8846,-1.8769,-1.8707,-1.886,-1.8911,-1.9003,-1.9336,-1.9574,-1.9701,-1.94,0.0,0.0,-2.1097,-2.1816,-2.2497,-2.2914,-2.3018,-2.3507,-2.4889,-2.5738,-2.6478,-2.7338,-2.7987,-2.8622,-2.9317,-2.9417,-2.9682,-3.0427,-3.0526,-3.0526,-3.0526,-3.0526,-3.0526,-3.0526,-3.0526,-3.0526,-3.0526,-3.0526,-3.0526,-3.0526,-3.0526,-3.0758,-3.1229,-3.1461,-3.2232,-3.3458,-3.4684,-3.5423,-3.5732,-3.5732,-3.582,-3.5907,-3.5907,-3.6054,-3.6301,-3.6301,-3.6301,-3.6301,-3.6011,-3.6054,-3.6301,-3.6301,-3.6468,-3.6655,0.0,0.0,0.0,0.0,0.0,0.0,0.0,0.0,0.0,0.0,0.0,0.0,0.0,0.0,0.0,0.0,0.0,0.0,-1.7469,-1.7511,-1.7791,-1.8472,-1.85,-1.8266,-1.7828,-1.7787,-1.7598,-1.7199,-1.7199,-1.7199,-1.7212,-1.7813,-1.8087,-1.8114,-1.8649,-1.8885,-1.8885,-1.8885,-1.8885,-1.8943,-1.9409,-1.9222,0.0,0.0,0.0,0.0,0.0,0.0,0.0,0.0,-1.9435,-1.9176,-1.9581,-1.9435,-1.9026,-1.863,-1.8951,-1.9432,-1.9645,-1.9677,-1.9809,-2.0159,0.0,0.0,-1.9572,-2.0315,-2.1309,-2.1628,-2.1818,-2.2469,-2.4268,-2.4952,-2.5656,-2.6819,-2.777,-2.8622,-2.9277,-2.9376,-2.9658,-3.0402,-3.0468,-3.0485,-3.0526,-3.0526,-3.0526,-3.0468,-3.0526,-3.0526,-3.0468,-3.0526,-3.0526,-3.0526,-3.0526,-3.0526,-3.0526,-3.1196,-3.1967,-3.2696,-3.3425,-3.4339,-3.5379,-3.5379,-3.5588,-3.5907,-3.5907,-3.589,-3.5907,-3.5907,-3.5907,-3.589,-3.5907,-3.589,-3.5907,-3.5907,-3.5907,-3.5907,0.0,0.0,0.0,0.0,0.0,0.0,0.0,0.0,0.0,0.0,0.0,0.0,0.0,0.0,0.0,0.0,0.0,0.0,-1.678,-1.7236,-1.7595,-1.7777,-1.8236,-1.8422,-1.8305,-1.8305,-1.7908,-1.7199,-1.7199,-1.7199,-1.7199,-1.7661,-1.7907,-1.792,-1.8413,-1.8604,-1.8604,-1.8604,-1.8604,-1.8673,-1.9197,-1.9045,0.0,0.0,0.0,0.0,0.0,0.0,0.0,0.0,0.0,0.0,-1.9639,-1.9945,-2.0131,-1.9531,-1.9613,-1.9749,-1.9053,-1.9127,-1.9266,-1.8673,-1.9417,-2.0074,-1.9355,-2.0286,-2.1281,-2.1272,-2.1901,-2.2604,-2.3176,-2.3979,-2.4837,-2.566,-2.6714,-2.7666,-2.8313,-2.8842,-2.9376,-2.9951,-3.0027,-3.0113,-3.0485,-3.0526,-3.0342,-3.0027,-3.03,-3.0342,-3.0027,-3.0342,-3.0526,-3.0526,-3.0526,-3.0526,-3.0526,-3.0742,-3.147,-3.268,-3.2911,-3.3719,-3.5071,-3.5071,-3.5102,-3.5195,-3.5195,-3.5316,-3.5543,-3.5543,-3.5543,-3.5543,-3.527,-3.5316,-3.5543,-3.5543,-3.5705,-3.5907,0.0,0.0,0.0,0.0,0.0,0.0,0.0,0.0,0.0,0.0,0.0,0.0,0.0,0.0,0.0,0.0,0.0,0.0,0.0,-1.7596,-1.8101,-1.8367,-1.9036,-1.9325,-1.9148,-1.8841,-1.8433,-1.7921,-1.7585,-1.7352,-1.7199,-1.7434,-1.7639,-1.7787,-1.8108,-1.8344,-1.85,-1.85,-1.85,-1.8542,-1.8959,-1.8967,-1.8788,0.0,0.0,0.0,0.0,0.0,0.0,0.0,0.0,0.0,-2.0135,0.0,-2.0382,-1.9816,-1.999,-2.0167,-1.9333,-1.9387,-1.9492,-1.9044,-1.9551,-2.0002,-1.9366,-1.9947,-2.0633,-2.0477,-2.1038,-2.1765,-2.2298,-2.3288,-2.4319,-2.521,-2.6526,-2.7601,-2.7968,-2.8632,-2.9116,-2.9099,-2.9367,-2.9504,-2.9534,-2.9778,-2.9853,-2.9528,-2.9793,-2.9793,-2.9528,-2.9984,-3.0113,-2.9941,-3.03,-3.0426,-3.0199,-3.0426,-3.1255,-3.268,-3.268,-3.3458,-3.4899,-3.4899,-3.4899,-3.4899,-3.4899,-3.5024,-3.5195,-3.5195,-3.5195,-3.5195,-3.4994,-3.5024,-3.5195,-3.5195,-3.5316,-3.5526,0.0,0.0,0.0,0.0,0.0,0.0,0.0,0.0,0.0,0.0,0.0,0.0,0.0,0.0,0.0,0.0,0.0,0.0,0.0,0.0,-1.8963,-1.9594,-2.0383,-2.0614,-2.0184,-1.9498,-1.9148,-1.9096,-1.8277,-1.7679,-1.7323,-1.7352,-1.7585,-1.7988,-1.8014,-1.8291,-1.8717,-1.8664,-1.8664,-1.8703,-1.8896,-1.9059,-1.9258,-1.9624,0.0,0.0,0.0,0.0,0.0,0.0,0.0,0.0,-2.0794,-2.0577,-2.025,-1.9788,-2.0175,-2.0654,-2.0143,-2.005,-2.0128,-2.0466,-2.0298,-1.9879,-1.9426,-1.9455,-1.9546,-1.9298,-1.9561,-2.0298,-2.1669,-2.2714,-2.3814,-2.5109,-2.6736,-2.7834,-2.7942,-2.8541,-2.8745,-2.8176,-2.8649,-2.8791,-2.825,-2.8756,-2.9074,-2.9028,-2.9074,-2.9074,-2.9028,-2.9483,-2.9528,-2.912,-2.9941,-3.0156,-2.975,-3.0156,-3.111,-3.2529,-3.259,-3.3412,-3.4851,-3.4899,-3.4899,-3.4899,-3.4899,-3.4899,-3.4899,-3.4899,-3.4899,-3.4899,-3.4899,-3.4899,-3.4899,-3.4899,-3.4899,-3.4899,0.0,0.0,0.0,0.0,0.0,0.0,0.0,0.0,0.0,0.0,0.0,0.0,0.0,0.0,0.0,0.0,0.0,0.0,0.0,0.0,-1.8772,-1.893,-2.0131,-2.0745,-2.0663,-2.0481,-2.023,-1.9858,-1.8864,-1.8305,-1.8226,-1.8553,-1.8884,-1.9214,-1.9543,-1.9914,-2.0277,-2.007,-1.9989,-1.9959,-1.966,-1.979,-2.0141,-2.0224,-2.0436,0.0,0.0,0.0,0.0,0.0,0.0,0.0,-2.0794,-2.1075,-2.1202,-2.0327,-2.0559,-2.0825,-1.9662,-1.9567,-1.9716,-1.9493,-1.938,-1.9228,-1.8789,-1.8715,-1.8644,-1.8233,-1.8876,-1.9859,-2.1061,-2.1571,-2.2439,-2.4462,-2.5224,-2.5926,-2.6786,-2.7485,-2.803,-2.8247,-2.8403,-2.8576,-2.8869,-2.9041,-2.8935,-2.8496,-2.8889,-2.8935,-2.8496,-2.8982,-2.9212,-2.9074,-2.9303,-2.9348,-2.9257,-2.9348,-3.008,-3.1454,-3.1931,-3.2899,-3.43,-3.4707,-3.4899,-3.4899,-3.4899,-3.4899,-3.4899,-3.4899,-3.4899,-3.4899,-3.4899,-3.4899,-3.4899,-3.4899,-3.4899,-3.4899,0.0,0.0,0.0,0.0,0.0,0.0,0.0,0.0,0.0,0.0,0.0,0.0,0.0,0.0,0.0,0.0,0.0,0.0,0.0,-1.8611,-1.9756,-2.0492,-2.122,-2.1554,-2.1415,-2.1276,-2.1023,-2.0667,-1.9969,-1.9398,-1.8962,-1.92,-1.9492,-1.9834,-1.9867,-2.019,-2.0602,-2.0602,-2.0586,-2.0522,-1.9949,-2.0063,-2.0622,-2.0956,-2.1103,-2.1131,-2.1071,0.0,0.0,0.0,0.0,0.0,0.0,0.0,-2.1553,-2.1022,-2.0782,-2.0548,-1.9822,-1.9675,-1.9654,-1.9435,-1.925,-1.8988,-1.8592,-1.8344,-1.8028,-1.7598,-1.8275,-1.9176,-1.9864,-2.0458,-2.1309,-2.2773,-2.3591,-2.4428,-2.5634,-2.6382,-2.6812,-2.697,-2.7598,-2.7832,-2.7473,-2.7997,-2.8271,-2.7978,-2.8222,-2.8271,-2.7978,-2.8448,-2.8591,-2.8367,-2.8842,-2.8982,-2.8732,-2.925,-3.0069,-3.1112,-3.1756,-3.2606,-3.3697,-3.4529,-3.4899,-3.4899,-3.4899,-3.4899,-3.4899,-3.4899,-3.4899,-3.4899,-3.4899,-3.4899,-3.4899,-3.4899,-3.4899,-3.4899,0.0,0.0,0.0,0.0,0.0,0.0,0.0,0.0,0.0,0.0,0.0,0.0,0.0,0.0,0.0,0.0,0.0,0.0,0.0,-1.947,-2.0906,-2.2295,-2.2466,-2.2436,-2.2169,-2.1895,-2.1675,-2.1495,-2.123,-2.0699,-2.002,-1.9808,-1.9928,-2.0255,-1.9983,-2.0151,-2.0638,-2.0894,-2.0974,-2.091,-2.032,-2.0416,-2.1051,-2.1761,-2.1861,-2.1611,-2.1519,-2.1945,-2.2443,-2.2061,0.0,0.0,0.0,0.0,-2.1748,-2.1628,-2.1039,-2.0431,-2.0311,-2.005,-1.9782,-1.9782,-1.942,-1.9026,-1.8669,-1.8187,-1.772,-1.7352,-1.7828,-1.8408,-1.8877,-1.9568,-2.0353,-2.1302,-2.2325,-2.3378,-2.4586,-2.5386,-2.5883,-2.5797,-2.6852,-2.7141,-2.6048,-2.6931,-2.7625,-2.7625,-2.7625,-2.7625,-2.7625,-2.7978,-2.7978,-2.761,-2.8415,-2.8654,-2.8158,-2.9119,-2.9937,-3.0707,-3.1558,-3.2415,-3.3251,-3.4202,-3.4626,-3.4626,-3.4739,-3.4691,-3.4626,-3.4739,-3.4739,-3.4787,-3.4835,-3.4899,-3.4899,-3.4899,-3.4899,-3.4899,0.0,0.0,0.0,0.0,0.0,0.0,0.0,0.0,0.0,0.0,-1.7101,-1.7296,-1.7526,-1.7772,0.0,0.0,0.0,0.0,-1.842,0.0,0.0,-2.1683,-2.2391,-2.2669,-2.2443,-2.2415,-2.236,-2.2332,-2.2304,-2.2215,-2.2068,-2.1086,-2.0764,-2.0974,-2.0911,-2.1179,-2.1628,-2.1661,-2.1661,-2.1645,-2.1562,-2.1599,-2.1769,-2.2604,-2.2603,-2.2139,-2.2281,-2.2415,-2.2487,-2.2415,-2.246,0.0,0.0,0.0,-2.2287,-2.1748,-2.1521,-2.1306,-2.0844,-2.0429,-2.0139,-2.0139,-1.9624,-1.9101,-1.9026,-1.8383,-1.7787,-1.772,-1.7557,-1.7821,-1.932,-1.9311,-1.9745,-2.1681,-2.227,-2.2862,-2.3977,-2.5171,-2.6054,-2.652,-2.7151,-2.755,-2.732,-2.747,-2.7625,-2.7625,-2.7625,-2.7625,-2.7625,-2.766,-2.766,-2.7625,-2.771,-2.776,-2.771,-2.7836,-2.8278,-2.8921,-3.0676,-3.208,-3.3198,-3.3355,-3.3459,-3.3459,-3.3968,-3.3917,-3.3459,-3.3968,-3.4201,-3.425,-3.4691,-3.4899,-3.4899,-3.4899,-3.4899,-3.4899,0.0,0.0,0.0,0.0,0.0,0.0,0.0,0.0,0.0,0.0,0.0,-1.781,-1.7967,-1.817,0.0,0.0,0.0,0.0,-1.9638,-2.0245,0.0,-2.2174,-2.2535,-2.2592,-2.2341,-2.2317,-2.2268,-2.2171,-2.1599,-2.179,-2.2625,-2.1575,-2.1317,-2.1703,-2.1558,-2.1628,-2.1804,-2.1804,-2.181,-2.1792,-2.179,-2.2088,-2.2565,-2.2945,-2.305,-2.2933,-2.2615,-2.2747,-2.2985,-2.2632,-2.2659,-2.2816,-2.2712,0.0,0.0,0.0,-2.1936,-2.146,-2.0942,-2.0679,-2.0462,-2.0243,-1.9965,-1.9624,-1.9199,-1.8784,-1.8461,-1.8226,-1.7828,-1.7783,-1.8662,-1.8837,-1.9311,-2.0617,-2.118,-2.1928,-2.3334,-2.4002,-2.4732,-2.5578,-2.6504,-2.6953,-2.6571,-2.7184,-2.7625,-2.7625,-2.7625,-2.7625,-2.7625,-2.7625,-2.7625,-2.7625,-2.7625,-2.7625,-2.7625,-2.7949,-2.8667,-2.9669,-3.0513,-3.1393,-3.2256,-3.2586,-3.2895,-3.3182,-3.3475,-3.3475,-3.3235,-3.3475,-3.3815,-3.4151,-3.4349,-3.4659,-3.4899,-3.4899,-3.4899,-3.4899,0.0,0.0,0.0,0.0,0.0,0.0,0.0,0.0,0.0,0.0,0.0,0.0,-1.8362,0.0,0.0,0.0,0.0,0.0,-2.041,0.0,0.0,0.0,0.0,-2.2574,-2.2066,-2.2262,-2.218,-2.1797,-2.1242,-2.1552,-2.2746,-2.1986,-2.1915,-2.2418,-2.2106,-2.2034,-2.2143,-2.2131,-2.2134,-2.2065,-2.1284,-2.1948,-2.3442,-2.3309,-2.3443,-2.362,-2.3052,-2.314,-2.3508,-2.301,-2.3035,-2.3253,-2.3109,-2.301,0.0,0.0,0.0,-2.1718,-2.1276,-2.1215,-2.1149,-2.0595,-2.0485,-2.0284,-1.956,-1.9236,-1.8988,-1.8592,-1.8108,-1.7868,-1.807,-1.8545,-1.9107,-1.9708,-2.0283,-2.1191,-2.2587,-2.2999,-2.3573,-2.459,-2.5739,-2.6323,-2.5988,-2.6689,-2.724,-2.7575,-2.7473,-2.7357,-2.7357,-2.7524,-2.7524,-2.7357,-2.7524,-2.7625,-2.7625,-2.8248,-2.916,-3.0268,-3.0432,-3.0866,-3.1539,-3.1966,-3.2382,-3.2772,-3.2933,-3.2879,-3.2772,-3.2933,-3.3266,-3.3662,-3.3815,-3.4118,-3.448,-3.4643,-3.4691,-3.4707,0.0,0.0,0.0,0.0,0.0,0.0,0.0,0.0,0.0,0.0,0.0,0.0,-1.8858,-1.9102,-1.9346,-1.9525,0.0,0.0,0.0,0.0,0.0,0.0,0.0,0.0,-2.1754,-2.2409,-2.2374,-2.1516,-2.2165,-2.254,-2.2612,-2.2556,-2.2733,-2.3049,-2.2639,-2.2695,-2.3027,-2.3035,-2.3038,-2.277,-1.9837,-2.0973,-2.437,-2.393,-2.3847,-2.3958,-2.3789,-2.3753,-2.3774,-2.3753,-2.3753,-2.3753,-2.3753,-2.362,-2.3417,0.0,0.0,0.0,-2.2096,-2.2319,-2.2374,-2.1471,-2.1234,-2.1044,-2.0327,-1.9588,-1.8988,-1.8592,-1.8108,-1.7868,-1.807,-1.8545,-1.9107,-1.9708,-2.0283,-2.0908,-2.1524,-2.2496,-2.3416,-2.4055,-2.5134,-2.6054,-2.6573,-2.6215,-2.6375,-2.7509,-2.7049,-2.6736,-2.6736,-2.7306,-2.7357,-2.6774,-2.7306,-2.7625,-2.7625,-2.8248,-2.8951,-2.9639,-3.0223,-3.0866,-3.1482,-3.1524,-3.1582,-3.164,-3.2176,-3.212,-3.164,-3.2231,-3.2437,-3.2547,-3.3055,-3.3251,-3.3355,-3.3917,-3.4151,-3.4201,0.0,0.0,0.0,0.0,0.0,0.0,0.0,0.0,0.0,0.0,0.0,0.0,0.0,-1.9532,-1.9684,-1.9832,-2.0026,0.0,0.0,0.0,0.0,0.0,0.0,0.0,-2.2206,-2.2476,-2.2429,-2.2074,-2.1131,-2.1501,-2.3039,-2.2385,-2.2043,-2.1971,-2.2599,-2.3312,-2.3968,-2.3352,-2.344,-2.3909,-2.2803,-2.3313,-2.4743,-2.456,-2.4469,-2.4353,-2.4137,-2.4081,-2.41,-2.3967,-2.3864,-2.3795,-2.3795,-2.3753,-2.3606,-2.323,-2.2989,-2.2824,-2.2463,-2.2474,-2.2509,-2.2271,-2.2216,-2.2063,-2.1636,-2.0996,-2.031,-1.9657,-1.886,-1.8176,-1.7962,-1.8447,-1.9107,-1.9708,-1.9969,-2.044,-2.1381,-2.1825,-2.2459,-2.3427,-2.4569,-2.537,-2.5605,-2.5742,-2.6,-2.6428,-2.6215,-2.6283,-2.6669,-2.6878,-2.693,-2.6736,-2.7306,-2.7625,-2.7625,-2.7814,-2.8487,-2.9579,-2.9804,-3.0477,-3.1482,-3.1482,-3.1482,-3.1524,-3.1754,-3.1697,-3.1539,-3.1739,-3.2079,-3.2453,-3.2586,-3.2895,-3.3251,-3.3407,-3.3764,-3.4151,0.0,0.0,0.0,0.0,0.0,0.0,0.0,0.0,0.0,-1.9401,0.0,0.0,0.0,0.0,-2.0023,-2.0158,-2.0279,-2.0394,-2.0426,-2.0385,0.0,0.0,0.0,0.0,0.0,-2.2468,-2.2441,-2.2089,-2.0782,-2.0979,-2.2539,-2.2187,-2.2193,-2.2548,-2.2787,-2.3493,-2.4463,-2.3823,-2.3934,-2.4505,-2.4504,-2.4594,-2.4793,-2.4954,-2.4867,-2.4613,-2.4476,-2.446,-2.4482,-2.4348,-2.4245,-2.4155,-2.4117,-2.4001,-2.3819,-2.3437,-2.3346,-2.3253,-2.2816,-2.2876,-2.3052,-2.3026,-2.3052,-2.3031,-2.2869,-2.231,-2.162,-2.0807,-1.9905,-1.9016,-1.8289,-1.8521,-1.8922,-1.9205,-1.9708,-2.0296,-2.0858,-2.1433,-2.2073,-2.2831,-2.3957,-2.4778,-2.5005,-2.5147,-2.5412,-2.5783,-2.5632,-2.5701,-2.6082,-2.6297,-2.651,-2.6683,-2.71,-2.7423,-2.7625,-2.7799,-2.8472,-2.9579,-2.9789,-3.0462,-3.1482,-3.1482,-3.1482,-3.1482,-3.1482,-3.1482,-3.1482,-3.1482,-3.1754,-3.212,-3.212,-3.2327,-3.2664,-3.2841,-3.3177,-3.3559,0.0,0.0,0.0,0.0,0.0,0.0,0.0,0.0,-1.9749,-1.9893,0.0,0.0,0.0,0.0,0.0,-2.0527,-2.0536,-2.0538,-2.0494,-2.0509,0.0,0.0,0.0,0.0,-2.1749,-2.2472,-2.2409,-2.1552,-2.1321,-2.1173,-2.1138,-2.1976,-2.3309,-2.4892,-2.3309,-2.3253,-2.4383,-2.4492,-2.4521,-2.4531,-2.453,-2.4521,-2.4572,-2.5102,-2.504,-2.4719,-2.4861,-2.4915,-2.4915,-2.4915,-2.4902,-2.4874,-2.4749,-2.4442,-2.4078,-2.386,-2.3816,-2.3714,0.0,0.0,0.0,-2.3708,-2.3728,-2.3819,-2.3918,-2.34,-2.2697,-2.1918,-2.1181,-2.0306,-1.9086,-1.8835,-1.865,-1.8245,-1.9559,-2.0463,-1.9878,-2.125,-2.2376,-2.2415,-2.338,-2.4319,-2.4892,-2.4447,-2.4549,-2.5687,-2.5272,-2.5005,-2.5005,-2.5467,-2.6068,-2.6669,-2.6669,-2.6945,-2.756,-2.8233,-2.8906,-2.9579,-3.0193,-3.0851,-3.1482,-3.1482,-3.1482,-3.1482,-3.1482,-3.1482,-3.1482,-3.1482,-3.1482,-3.1482,-3.1482,-3.1482,-3.1582,-3.2176,-3.2398,-3.2492,0.0,0.0,0.0,0.0,0.0,-1.9992,-1.9992,-2.0079,-2.0155,0.0,0.0,0.0,-2.0386,-2.0906,-2.1328,-2.1366,-2.1404,-2.1155,-2.0477,-2.0463,-2.0487,-2.0475,-2.2101,-2.2862,-2.2577,-2.3423,-2.3436,-2.2516,-2.1874,-2.1543,-2.1536,-2.1772,-2.2667,-2.4077,-2.4494,-2.3484,-2.1618,-2.4055,-2.5086,-2.5069,-2.5072,-2.5088,-2.5063,-2.5024,-2.5072,-2.5138,-2.519,-2.5126,-2.5037,-2.5037,-2.4975,-2.4902,-2.4861,-2.47,-2.4493,-2.4228,-2.408,-2.3961,-2.3674,0.0,0.0,0.0,0.0,0.0,-2.4447,-2.3604,-2.278,-2.284,-2.1675,-2.0584,-2.0472,-2.0543,-2.0381,-1.9877,-1.957,-1.9486,-1.9773,-2.057,-2.1485,-2.231,-2.3014,-2.3686,-2.4292,-2.4229,-2.4229,-2.4549,-2.4447,-2.4563,-2.5005,-2.516,-2.5481,-2.6014,-2.5701,-2.5756,-2.6269,-2.6895,-2.7832,-2.8987,-2.9565,-3.0432,-3.1482,-3.1482,-3.1482,-3.1482,-3.1482,-3.1482,-3.1482,-3.1482,-3.1482,-3.1482,-3.1482,-3.1482,-3.1524,-3.1697,-3.2023,-3.2453,0.0,0.0,0.0,-2.0652,-2.0476,-2.0507,-2.1196,-2.077,-2.0623,0.0,0.0,0.0,-2.1453,-2.1874,-2.2003,-2.1644,-2.1621,-2.1251,-2.0376,-2.0378,-2.043,-2.0425,-2.2075,-2.2971,-2.2949,-2.3821,-2.4023,-2.348,-2.2649,-2.2246,-2.225,-2.2241,-2.2654,-2.3431,-2.3915,-2.35,-2.2608,-2.4621,-2.5399,-2.5301,-2.5301,-2.531,-2.5269,-2.5138,-2.5128,-2.5214,-2.5274,-2.5253,-2.5182,-2.5182,-2.5084,-2.4975,-2.4975,-2.4888,-2.4731,-2.4538,-2.4405,-2.4302,-2.4001,-2.3837,-2.3847,-2.4271,0.0,0.0,-2.4765,-2.4173,-2.357,-2.3871,-2.2875,-2.1962,-2.2013,-2.1727,-2.1296,-2.0795,-2.0237,-2.0003,-2.0381,-2.0775,-2.1445,-2.2565,-2.2968,-2.3459,-2.406,-2.4112,-2.4112,-2.4112,-2.4112,-2.4229,-2.462,-2.462,-2.4878,-2.5481,-2.516,-2.5272,-2.5783,-2.6176,-2.696,-2.8286,-2.891,-2.9882,-3.1106,-3.1347,-3.1482,-3.1482,-3.1482,-3.1482,-3.1482,-3.1482,-3.1482,-3.1482,-3.1482,-3.1482,-3.1482,-3.1482,-3.1739,-3.2007,0.0,0.0,-2.0704,-2.1479,-2.115,-2.1274,-2.2763,-2.1748,-2.1305,0.0,-2.2356,-2.2236,-2.3064,-2.3026,-2.2604,-2.1826,-2.1627,-2.1205,-2.038,-2.0304,-2.0299,-2.0283,-2.202,-2.2921,-2.2842,-2.3879,-2.433,-2.416,-2.3379,-2.2941,-2.2851,-2.276,-2.2734,-2.2715,-2.2332,-2.3205,-2.4985,-2.5492,-2.5565,-2.5346,-2.5329,-2.5335,-2.534,-2.534,-2.5253,-2.5163,-2.5274,-2.5313,-2.5303,-2.5293,-2.5222,-2.5126,-2.5126,-2.5101,-2.5034,-2.4926,-2.4885,-2.4789,-2.4413,-2.4228,-2.4205,-2.4487,-2.4444,0.0,-2.4823,-2.4735,-2.4632,-2.4746,-2.4182,-2.3634,-2.3472,-2.2624,-2.1813,-2.1465,-2.1484,-2.1508,-2.1304,-2.1477,-2.1942,-2.3053,-2.3231,-2.355,-2.4208,-2.4274,-2.4274,-2.4229,-2.4112,-2.4112,-2.4112,-2.4112,-2.4332,-2.4892,-2.4892,-2.516,-2.5632,-2.5687,-2.6325,-2.7515,-2.8332,-2.9295,-3.041,-3.1168,-3.1482,-3.1482,-3.1482,-3.1482,-3.1482,-3.1482,-3.1482,-3.1482,-3.1482,-3.1482,-3.1482,-3.1482,-3.1482,-3.1482,0.0,-2.1006,-2.1558,-2.1729,-2.2174,-2.2614,-2.2943,-2.2713,-2.2636,-2.2968,-2.2775,-2.3144,-2.4589,-2.4119,-2.361,-2.3437,-2.2825,-2.2087,-2.1215,-2.0561,-2.0214,-2.023,-2.1899,-2.2516,-2.1809,-2.4063,-2.4599,-2.3252,-2.3088,-2.267,-2.2021,-2.1328,-2.1015,-2.109,-2.1684,-2.1819,-2.1746,-2.4512,-2.5679,-2.5629,-2.562,-2.5628,-2.5602,-2.5499,-2.5447,-2.5427,-2.546,-2.5425,-2.5374,-2.5313,-2.5274,-2.5253,-2.5253,-2.5639,-2.6098,-2.6072,-2.5996,-2.5873,-2.5759,-2.504,-2.4335,-2.4376,-2.4691,0.0,-2.4527,-2.4435,-2.4471,-2.4628,-2.3664,-2.3178,-2.4297,-2.392,-2.3373,-2.3281,-2.3182,-2.2658,-2.1464,-2.1709,-2.2443,-2.3668,-2.3854,-2.4263,-2.5356,-2.5467,-2.5314,-2.4835,-2.439,-2.4112,-2.4112,-2.4112,-2.4171,-2.4287,-2.4287,-2.4345,-2.4447,-2.4878,-2.5574,-2.6351,-2.7925,-2.9141,-2.9884,-3.0981,-3.1482,-3.1482,-3.1482,-3.1482,-3.1482,-3.1482,-3.1482,-3.1482,-3.1482,-3.1482,-3.1482,-3.1482,-3.1482,-3.1482,-2.0495,-2.12,-2.1942,-2.2371,-2.2786,-2.3335,-2.4178,-2.3563,-2.3285,-2.4088,-2.408,-2.4291,-2.5069,-2.4752,-2.432,-2.3835,-2.3435,-2.2653,-2.1384,-2.0948,-2.0575,-2.0164,-2.143,-2.2153,-2.2153,-2.3914,-2.4643,-2.4258,-2.3847,-2.3435,-2.3013,-2.1742,-2.1391,-2.1836,-2.1385,-2.0973,-2.0719,-2.2429,-2.4143,-2.5705,-2.5694,-2.5706,-2.5683,-2.5625,-2.5565,-2.5504,-2.5504,-2.548,-2.5439,-2.5374,-2.5367,-2.5464,-2.5832,-2.6205,-2.6565,-2.6933,-2.7,-2.6937,-2.6844,-2.6344,-2.5818,-2.5686,-2.58,0.0,0.0,-2.5337,-2.541,-2.5607,-2.477,-2.4258,-2.5144,-2.4457,-2.3887,-2.4241,-2.4241,-2.3948,-2.3212,-2.2814,-2.3025,-2.4234,-2.4431,-2.4826,-2.5699,-2.5783,-2.5577,-2.5061,-2.4447,-2.4112,-2.4112,-2.4112,-2.4112,-2.4112,-2.4112,-2.4112,-2.4112,-2.439,-2.4869,-2.551,-2.7371,-2.8612,-2.9245,-3.0774,-3.1482,-3.1482,-3.1482,-3.1482,-3.1482,-3.1482,-3.1482,-3.1482,-3.1482,-3.1482,-3.1482,-3.1482,-3.1482,-3.1482,-2.0527,-2.1357,-2.2238,-2.2759,-2.3269,-2.3997,-2.5172,-2.4297,-2.3931,-2.5207,-2.5261,-2.5164,-2.5088,-2.5076,-2.4784,-2.4024,-2.3803,-2.312,-2.1775,-2.1586,-2.1249,-2.0593,-2.1318,-2.1982,-2.2521,-2.3636,-2.4467,-2.5008,-2.4358,-2.4031,-2.4025,-2.2498,-2.2168,-2.2786,-2.1425,-2.0937,-2.1071,-2.0749,-2.2561,-2.5691,-2.5707,-2.5696,-2.5691,-2.5691,-2.5632,-2.5537,-2.5526,-2.5521,-2.551,-2.5439,-2.5456,-2.5604,-2.6198,-2.6477,-2.6746,-2.7336,-2.7516,-2.7512,-2.7555,-2.7246,-2.6938,-2.7048,-2.6952,-2.6784,0.0,0.0,0.0,-2.6627,-2.6011,-2.5578,-2.5962,-2.4884,-2.4182,-2.4929,-2.4956,-2.4891,-2.4875,-2.4279,-2.4119,-2.4897,-2.5243,-2.5621,-2.6105,-2.596,-2.5687,-2.5328,-2.4563,-2.4171,-2.4287,-2.4171,-2.4112,-2.4112,-2.4112,-2.4112,-2.4112,-2.4112,-2.4345,-2.4848,-2.6703,-2.7911,-2.8595,-3.0436,-3.1347,-3.1482,-3.1482,-3.1482,-3.1482,-3.1482,-3.1482,-3.1482,-3.1482,-3.1482,-3.1482,-3.1482,-3.1482,-3.1482,-2.0583,-2.1911,-2.281,-2.2072,-2.3855,-2.519,-2.4541,-2.4888,-2.523,-2.5224,-2.5164,-2.5088,-2.5018,-2.5004,-2.4972,-2.4858,-2.4144,-2.3613,-2.3423,-2.2754,-2.2317,-2.2235,-2.2439,-2.2249,-2.1578,-2.3292,-2.3867,-2.319,-2.3093,-2.3088,-2.3133,-2.2165,-2.1797,-2.1948,-2.1998,-2.2344,-2.2793,-2.126,-2.2566,-2.5698,-2.5691,-2.5705,-2.5703,-2.5703,-2.5681,-2.5676,-2.5605,-2.5593,-2.5585,-2.551,-2.5486,-2.5503,-2.5522,-2.6072,-2.6717,-2.6786,-2.6815,-2.694,-2.7582,-2.6666,-2.5822,-2.7044,-2.7339,-2.7213,-2.6842,0.0,-2.7553,-2.6611,0.0,-2.595,-2.665,0.0,0.0,-2.5829,-2.5313,-2.4814,-2.48,-2.5823,-2.6445,-2.6061,-2.6626,-2.7122,-2.7384,-2.6443,-2.6014,-2.6457,-2.4991,-2.4345,-2.4892,-2.439,-2.4112,-2.4112,-2.4112,-2.4112,-2.4112,-2.4112,-2.4112,-2.4229,-2.6031,-2.7258,-2.7938,-2.9748,-3.0956,-3.1482,-3.1482,-3.1482,-3.1482,-3.1482,-3.1482,-3.1482,-3.1482,-3.1482,-3.1482,-3.1482,-3.1482,-3.1482,-2.0549,-2.1942,-2.2853,-2.192,-2.3867,-2.5279,-2.4377,-2.4866,-2.5313,-2.5203,-2.5106,-2.5031,-2.501,-2.501,-2.501,-2.501,-2.4655,-2.4238,-2.3727,-2.3386,-2.2988,-2.2514,-2.2639,-2.2758,-2.2911,-2.3265,-2.3751,-2.4409,-2.3403,-2.2907,-2.2926,-2.2571,-2.2436,-2.2507,-2.2608,-2.3393,-2.4609,-2.3866,-2.4392,-2.5699,-2.5691,-2.5707,-2.5707,-2.5691,-2.5691,-2.5705,-2.5676,-2.5651,-2.5651,-2.5577,-2.5582,-2.5682,-2.6036,-2.6428,-2.6949,-2.7913,-2.8203,-2.8377,-2.9187,-2.8482,-2.7761,-2.881,-2.8579,-2.8175,-2.8514,-2.8765,-2.8759,-2.8162,0.0,0.0,0.0,0.0,0.0,0.0,-2.6354,-2.6313,-2.6328,-2.737,-2.7809,-2.6785,-2.7639,-2.8233,-2.8046,-2.7004,-2.6457,-2.6669,-2.5687,-2.5203,-2.5481,-2.4935,-2.462,-2.462,-2.4287,-2.4112,-2.4112,-2.4112,-2.4112,-2.4125,-2.5905,-2.6947,-2.7286,-2.9498,-3.0657,-3.0956,-3.1302,-3.1482,-3.1482,-3.1482,-3.1482,-3.1482,-3.1482,-3.1482,-3.1482,-3.1482,-3.1739,-3.2007,-2.0791,-2.1859,-2.2504,-2.1823,-2.3608,-2.5027,-2.4621,-2.4928,-2.5192,-2.5192,-2.5069,-2.501,-2.501,-2.501,-2.501,-2.501,-2.52,-2.5053,-2.4428,-2.439,-2.4119,-2.3556,-2.3212,-2.3343,-2.4005,-2.3523,-2.3886,-2.5143,-2.3886,-2.3267,-2.3267,-2.3267,-2.3287,-2.3364,-2.3592,-2.4439,-2.5703,-2.5703,-2.5703,-2.5701,-2.5693,-2.5709,-2.5693,-2.5693,-2.5691,-2.5707,-2.5707,-2.5707,-2.5687,-2.5633,-2.5664,-2.5782,-2.6242,-2.6579,-2.6994,-2.7951,-2.8396,-2.8782,-2.9641,-2.9187,-2.875,-2.9998,-2.9513,-2.8954,-2.976,-2.9839,-2.9663,-2.9455,-2.8871,0.0,0.0,0.0,-2.6525,-2.7094,0.0,-2.7297,-2.7482,-2.8299,-2.8457,-2.7453,-2.8383,-2.8889,-2.8336,-2.7449,-2.6916,-2.6945,-2.6229,-2.5837,-2.6068,-2.5536,-2.516,-2.5005,-2.4563,-2.4287,-2.4112,-2.4112,-2.4171,-2.4345,-2.5797,-2.6708,-2.7143,-2.926,-3.0342,-3.0537,-3.124,-3.1482,-3.1482,-3.1482,-3.1482,-3.1482,-3.1482,-3.1482,-3.1482,-3.1482,-3.1811,-3.2176,-2.1507,-2.1704,-2.1746,-2.1712,-2.3164,-2.459,-2.5337,-2.5313,-2.5192,-2.5192,-2.5069,-2.501,-2.501,-2.501,-2.501,-2.501,-2.5712,-2.6148,-2.6129,-2.6129,-2.6151,-2.6174,-2.4686,-2.3938,-2.4081,-2.4138,-2.4196,-2.4234,-2.4196,-2.4157,-2.4157,-2.4157,-2.4184,-2.4288,-2.5074,-2.5527,-2.5703,-2.5703,-2.5703,-2.5703,-2.5694,-2.5693,-2.5699,-2.5691,-2.5707,-2.5707,-2.5707,-2.5707,-2.5709,-2.5698,-2.5696,-2.5697,-2.5648,-2.617,-2.6629,-2.5788,-2.6116,-2.6975,-2.7851,-2.7445,-2.7333,-2.9712,-2.9687,-2.9255,-2.9945,-3.0095,-3.0052,-2.9921,-2.9695,-2.9495,-2.9357,-2.8461,-2.7944,-2.8537,-2.7677,0.0,0.0,-2.8229,-2.8441,-2.8189,-2.8726,-2.8889,-2.8336,-2.7784,-2.75,-2.7575,-2.6481,-2.6068,-2.6616,-2.6122,-2.5536,-2.5005,-2.5005,-2.4677,-2.4112,-2.4112,-2.439,-2.5005,-2.555,-2.6463,-2.7708,-2.901,-2.9939,-3.0537,-3.124,-3.1482,-3.1482,-3.1482,-3.1482,-3.1482,-3.1482,-3.1482,-3.1482,-3.1482,-3.1524,-3.164,-2.2388,-2.2431,-2.2443,-2.2493,-2.3416,-2.4411,-2.5188,-2.5233,-2.5179,-2.5138,-2.5094,-2.5082,-2.5082,-2.5082,-2.5266,-2.5749,-2.556,-2.5663,-2.623,-2.6214,-2.6274,-2.6431,-2.6416,-2.6203,-2.5755,-2.5305,-2.5066,-2.5066,-2.4486,-2.4196,-2.4215,-2.4795,-2.4757,-2.4281,-2.5163,-2.557,-2.5561,-2.5655,-2.5703,-2.5703,-2.5702,-2.5702,-2.5703,-2.5702,-2.5697,-2.5707,-2.5707,-2.5707,-2.5709,-2.5702,-2.57,-2.5683,-2.5629,-2.5788,-2.6036,-2.621,-2.6462,-2.6887,-2.7755,-2.7368,-2.7157,-2.9149,-2.8925,-2.8599,-2.9939,-2.9717,-2.9393,-2.9923,-2.9444,-2.9072,-2.9457,-2.9153,-2.8873,-2.8956,-2.8565,-2.8281,0.0,-2.8752,-2.8767,-2.8441,-2.8692,-2.8806,-2.8586,-2.8575,-2.8432,-2.8076,-2.77,-2.7399,-2.7306,-2.6721,-2.6122,-2.5536,-2.516,-2.4892,-2.4677,-2.4677,-2.4991,-2.5536,-2.6122,-2.6625,-2.7084,-2.8788,-2.9699,-2.9953,-3.1061,-3.1754,-3.2064,-3.164,-3.1754,-3.2079,-3.164,-3.1739,-3.2064,-3.1826,-3.1925,-3.2327,-2.3276,-2.3,-2.2923,-2.3268,-2.4009,-2.4713,-2.5207,-2.5262,-2.5231,-2.5171,-2.5145,-2.5141,-2.5141,-2.5409,-2.5786,-2.6269,-2.6085,-2.6327,-2.7159,-2.665,-2.6479,-2.6907,-2.7182,-2.7101,-2.6641,-2.6472,-2.6246,-2.5936,-2.5356,-2.495,-2.4679,-2.524,-2.5201,-2.4699,-2.5318,-2.5588,-2.5546,-2.5648,-2.5691,-2.5703,-2.5703,-2.5703,-2.5703,-2.5703,-2.5702,-2.5696,-2.5709,-2.5707,-2.5691,-2.5702,-2.5703,-2.5681,-2.5615,-2.5788,-2.6118,-2.6575,-2.6702,-2.6895,-2.7755,-2.7368,-2.7031,-2.847,-2.8348,-2.8231,-2.9629,-2.9429,-2.9116,-2.9582,-2.9641,-2.9507,-2.9246,-2.9832,-3.0199,-2.9715,-2.9547,-2.9361,0.0,-2.8792,-2.8652,-2.8355,-2.8873,-2.9189,-2.8927,-2.9182,-2.9166,-2.8638,-2.84,-2.8158,-2.7894,-2.7342,-2.6721,-2.6122,-2.5756,-2.5481,-2.5272,-2.5258,-2.5591,-2.6122,-2.651,-2.6841,-2.7078,-2.8553,-2.9355,-2.9639,-3.0702,-3.1626,-3.2398,-3.1966,-3.2176,-3.2641,-3.2272,-3.2312,-3.2641,-3.2247,-3.2602,-3.3339,-2.4254,-2.3584,-2.3302,-2.4137,-2.4945,-2.5464,-2.5455,-2.5361,-2.5303,-2.5303,-2.5243,-2.5203,-2.5203,-2.597,-2.6527,-2.6565,-2.7263,-2.8032,-2.8802,-2.7414,-2.6887,-2.7616,-2.7024,-2.6679,-2.6702,-2.7561,-2.7542,-2.6644,-2.6683,-2.6296,-2.5511,-2.5511,-2.5492,-2.5499,-2.5608,-2.5666,-2.5685,-2.5701,-2.5697,-2.5703,-2.5703,-2.5703,-2.5703,-2.5703,-2.5703,-2.5703,-2.5694,-2.5709,-2.5691,-2.5703,-2.5703,-2.57,-2.5662,-2.6196,-2.6784,-2.6729,-2.6702,-2.6876,-2.7658,-2.731,-2.6895,-2.7735,-2.7976,-2.8227,-2.905,-2.9205,-2.911,-2.89,-3.0109,-3.0639,-2.8815,-3.0434,-3.1745,-3.0814,-3.0663,-3.0275,-2.9117,-2.8554,-2.8209,-2.8109,-2.9314,-2.9901,-2.9287,-2.9583,-2.9613,-2.9118,-2.8607,-2.8336,-2.8336,-2.7894,-2.7357,-2.6774,-2.6721,-2.6404,-2.5837,-2.5837,-2.6176,-2.6721,-2.6721,-2.7049,-2.764,-2.8278,-2.8951,-2.9663,-3.0293,-3.1258,-3.2492,-3.2453,-3.2749,-3.3251,-3.3198,-3.3235,-3.3198,-3.2788,-3.3495,-3.4528,-2.6033,-2.6323,-2.6669,-2.6881,-2.6583,-2.6255,-2.6165,-2.5646,-2.5283,-2.5234,-2.5245,-2.5265,-2.5265,-2.6063,-2.6802,-2.7351,-2.7639,-2.7881,-2.8145,-2.7689,-2.7262,-2.6968,-2.7345,-2.7325,-2.6779,-2.758,-2.7282,-2.5815,-2.6404,-2.6296,-2.5511,-2.5511,-2.5531,-2.56,-2.6268,-2.6695,-2.6885,-2.6057,-2.5697,-2.5703,-2.5703,-2.5703,-2.5703,-2.5703,-2.5703,-2.5703,-2.5703,-2.5702,-2.5702,-2.5703,-2.5696,-2.5807,-2.6379,-2.6669,-2.6787,-2.6721,-2.6702,-2.6625,-2.6246,-2.642,-2.6741,-2.6981,-2.7522,-2.8073,-2.8285,-2.7788,-2.7431,-2.7975,-2.8261,-2.8666,-2.9385,-3.0452,-3.1315,-3.165,-3.1621,-3.1147,-2.9965,-3.0184,-3.0202,-2.9431,-3.0396,-3.0401,-2.8506,-2.9349,-2.9689,-2.8925,-2.8894,-2.8889,-2.8889,-2.8091,-2.7494,-2.7282,-2.6916,-2.6616,-2.6457,-2.6457,-2.6774,-2.7357,-2.7357,-2.7458,-2.764,-2.8278,-2.9184,-3.0225,-3.0876,-3.2126,-3.361,-3.3161,-3.3319,-3.3815,-3.3371,-3.3547,-3.402,-3.3547,-3.3919,-3.4658,-2.7354,-2.7894,-2.8409,-2.8409,-2.7758,-2.7046,-2.6559,-2.6168,-2.5755,-2.5341,-2.5648,-2.5916,-2.5916,-2.7025,-2.7952,-2.8364,-2.8422,-2.8606,-2.8972,-2.7911,-2.7258,-2.7238,-2.7344,-2.7228,-2.6799,-2.7981,-2.7973,-2.6668,-2.7127,-2.6923,-2.6099,-2.6099,-2.6125,-2.6201,-2.7118,-2.7463,-2.7336,-2.6185,-2.5703,-2.5703,-2.5703,-2.6122,0.0,-2.6751,-2.6757,-2.6702,-2.6355,-2.5991,-2.5756,-2.611,-2.6225,-2.6379,-2.7162,-2.7404,-2.7359,-2.729,-2.7,-2.6605,-2.6141,-2.6102,-2.6257,-2.6605,-2.7078,-2.763,-2.8319,-2.8067,-2.7676,-2.7642,-2.8103,-2.8547,-2.869,-3.0207,-3.171,-3.2536,-3.2524,-3.2028,-3.0912,-3.1066,-3.1049,-3.0396,-3.088,-3.0576,-2.8739,-2.954,-2.9952,-2.9453,-2.9176,-2.9191,-2.954,-2.8764,-2.8273,-2.8227,-2.7685,-2.7515,-2.7765,-2.7515,-2.7665,-2.8286,-2.8304,-2.8304,-2.8286,-2.867,-2.9562,-3.0744,-3.1185,-3.2399,-3.4101,-3.3783,-3.3951,-3.4448,-3.4152,-3.435,-3.4754,-3.4529,-3.469,-3.5071,-2.8361,-2.8792,-2.9289,-2.9289,-2.8657,-2.7883,-2.7075,-2.6718,-2.6311,-2.5663,-2.6221,-2.6741,-2.6857,-2.8315,-2.9302,-2.9302,-2.9399,-2.968,-3.0227,-2.8232,-2.7256,-2.773,-2.714,-2.6741,-2.6671,-2.8351,-2.8849,-2.8031,-2.8252,-2.7865,-2.6908,-2.7024,-2.7009,-2.6961,-2.7993,-2.8242,-2.7788,-2.679,-2.6383,-2.6385,-2.6385,-2.7207,-2.8442,-2.8434,-2.8303,-2.8004,-2.7318,-2.6617,-2.6115,-2.6707,-2.6967,-2.7185,-2.7876,-2.8085,-2.8046,-2.789,-2.729,-2.6683,-2.6566,-2.6102,-2.584,-2.6528,-2.6771,-2.7199,-2.8613,-2.8895,-2.86,-2.759,-2.8544,-2.9141,-2.7783,-3.0021,-3.2386,-3.3269,-3.3256,-3.2747,-3.1584,-3.1569,-3.1477,-3.103,-3.1184,0.0,-2.9804,-3.0103,-3.0289,-3.0097,-2.9486,-2.9452,-3.0192,-2.9569,-2.9239,-2.9329,-2.8748,-2.867,-2.912,-2.8685,-2.8685,-2.912,-2.921,-2.9225,-2.912,-2.921,-2.9957,-3.1244,-3.139,-3.2514,-3.425,-3.4301,-3.4561,-3.4947,-3.5088,-3.5245,-3.5337,-3.5492,-3.5566,-3.5515,-2.9201,-2.9752,-3.024,-3.024,-2.9554,-2.8945,-2.8836,-2.7055,-2.589,-2.6408,-2.661,-2.6966,-2.7681,-2.8693,-2.9302,-2.9302,-2.9959,-3.0124,-2.9535,-2.908,-2.8287,-2.7052,-2.6876,-2.6517,-2.5917,-2.7546,-2.7989,-2.7137,-2.8513,-2.8398,-2.6928,-2.764,-2.7618,-2.7044,-2.8652,-2.9718,-3.0265,-3.0064,-2.9985,-2.9991,-2.9991,-3.0087,-3.0236,-3.0186,-2.9302,-2.8073,-2.7934,-2.7791,-2.7608,-2.7083,-2.7334,-2.7907,-2.8055,-2.8055,-2.7871,-2.7136,-2.6818,-2.6566,-2.5898,-2.6083,-2.6508,-2.6663,-2.7161,-2.7689,-2.7956,-2.7867,-2.7652,-2.7441,-2.756,-2.799,-2.9081,-3.0809,-3.2386,-3.3269,-3.3379,-3.2708,-3.0872,-3.2293,-3.2897,-3.1202,-3.2162,-3.2622,-3.1779,-3.1126,-3.0422,-2.9539,-2.9742,-3.0178,-3.0716,-2.9865,-2.9524,-2.9935,-2.9435,-2.9271,-2.9377,-2.9271,-2.9271,-2.9377,-2.9361,-2.9361,-2.9377,-2.9361,-3.0341,-3.2069,-3.2115,-3.3244,-3.5088,-3.5088,-3.5135,-3.5245,-3.54,-3.5446,-3.5492,-3.5549,-3.5577,-3.5577,-3.0077,-3.0321,-3.0552,-3.0552,-2.9897,-2.9361,-2.9342,-2.7964,-2.7034,-2.7377,-2.7807,-2.8244,-2.8635,-2.9447,-2.9959,-2.9959,-3.0366,-3.0443,-3.0056,-2.9602,-2.8983,-2.8182,-2.7744,-2.7152,-2.6339,-2.7597,-2.804,-2.7637,-2.8429,-2.8645,-2.8306,-2.8735,-2.8728,-2.8398,-2.9705,-3.0516,-3.0897,-3.0791,-3.0729,-3.0749,-3.0749,-3.071,-3.0644,-3.0615,-3.0105,-2.9342,-2.8887,-2.9012,-2.9263,-2.8431,-2.8403,-2.8713,-2.8713,-2.8702,-2.8412,-2.7089,-2.6702,-2.6508,-2.5724,-2.5782,-2.6268,-2.7065,-2.7545,-2.7988,-2.8714,-2.8783,-2.8566,-2.8034,-2.7876,-2.8218,-2.9476,-3.1016,-3.2236,-3.2668,-3.3118,-3.2823,-3.1261,-3.2391,-3.2941,-3.1764,-3.2669,-3.2922,-3.1691,-3.1385,-3.1062,-3.0547,-3.0229,-3.0523,-3.1568,-3.1099,-3.0824,-3.0891,-3.0352,-3.0117,-3.0182,-2.9908,-2.9908,-3.0182,-3.0208,-3.0208,-3.0182,-3.0208,-3.0945,-3.2177,-3.2619,-3.3567,-3.4772,-3.514,-3.5337,-3.54,-3.5492,-3.5537,-3.5549,-3.5577,-3.5622,-3.5622,-3.0993,-3.0945,-3.0834,-3.0639,-3.0003,-2.9537,-2.9659,-2.9015,-2.8463,-2.8392,-2.8973,-2.945,-2.9583,-3.0211,-3.0617,-3.0617,-3.0615,-3.064,-3.0699,-3.007,-2.9599,-2.9438,-2.8816,-2.807,-2.7213,-2.8283,-2.8748,-2.8559,-2.8944,-2.9277,-2.957,-2.9785,-2.988,-2.9918,-3.0591,-3.0898,-3.0898,-3.0685,-3.0588,-3.0588,-3.0598,-3.0598,-3.0598,-3.0598,-3.0598,-3.0501,-2.9824,-3.0017,-3.0501,-2.9805,-2.9573,-2.9534,-2.936,-2.9302,-2.8992,-2.7426,-2.6981,-2.6807,-2.5975,-2.5746,-2.6022,-2.7246,-2.7624,-2.8045,-2.9345,-2.9758,-2.9635,-2.8837,-2.867,-2.8894,-2.957,-3.0734,-3.1654,-3.1823,-3.2424,-3.2449,-3.1238,-3.2072,-3.2585,-3.2018,-3.2651,-3.2705,-3.1618,-3.148,-3.1601,-3.1959,-3.0893,-3.0843,-3.2247,-3.2196,-3.2004,-3.175,-3.1308,-3.1094,-3.1196,-3.0771,-3.0771,-3.1196,-3.1257,-3.1257,-3.1196,-3.1257,-3.1726,-3.2584,-3.3277,-3.4016,-3.481,-3.5385,-3.5711,-3.5817,-3.5701,-3.5684,-3.5756,-3.5622,-3.5622,-3.5622,-3.1972,-3.19,-3.1617,-3.0838,-3.002,-2.9745,-3.0477,-2.9946,-2.9416,-2.9296,-2.9361,-2.969,-3.0481,-3.0637,-3.0694,-3.0694,-3.0685,-3.0697,-3.0697,-3.0619,-3.0251,-2.9525,-2.9419,-2.9007,-2.8181,-2.9804,-3.0247,-2.9395,-3.1028,-3.1035,-2.9531,-3.0371,-3.0778,-3.0781,-3.0856,-3.0904,-3.0886,-3.0694,-3.0588,-3.0588,-3.0588,-3.0598,-3.0598,-3.0598,-3.0598,-3.0598,-3.0501,-3.052,-3.0598,-3.0501,-3.0482,-3.0346,-2.9553,-2.9302,-2.9108,-2.8161,-2.7871,-2.7696,-2.6818,-2.6534,-2.6535,-2.6669,-2.7083,-2.7679,-2.8594,-2.9278,-2.9682,-2.9589,-2.957,-2.9589,-2.9683,-2.9814,-3.0152,-3.0903,-3.1071,-3.071,-2.9481,-3.1315,-3.2383,-3.1238,-3.1818,-3.2542,-3.3121,-3.188,-3.1663,-3.3099,-3.1835,-3.1372,-3.2264,-3.2283,-3.2283,-3.2248,-3.2196,-3.2162,-3.2179,-3.2127,-3.2127,-3.2179,-3.2179,-3.2162,-3.2179,-3.2179,-3.2984,-3.4364,-3.4434,-3.529,-3.6636,-3.6706,-3.6741,-3.6741,-3.6367,-3.6216,-3.6174,-3.5756,-3.5622,-3.5622,-3.2151,-3.2435,-3.2518,-3.1631,-3.1655,-3.1897,-3.2215,-3.204,-3.1693,-3.1142,-3.0591,-3.036,-3.0665,-3.0704,-3.0715,-3.0762,-3.0765,-3.0781,-3.0825,-3.0829,-3.0684,-3.0342,-3.0342,-3.0175,-2.9817,-3.0477,-3.0886,-3.1008,-3.1242,-3.1267,-3.1067,-3.1437,-3.1715,-3.1872,-3.2193,-3.1804,-3.1021,-3.287,-3.2483,-3.0588,-3.0598,-3.0608,-3.0598,-3.0598,-3.0608,-3.0598,-3.0598,-3.0598,-3.0598,-3.0598,-3.0598,-3.0443,-2.9573,-2.9302,-2.9128,-2.8266,-2.7942,-2.7798,-2.7441,-2.7281,-2.7178,-2.7103,-2.7243,-2.7604,-2.8355,-2.8741,-2.9082,-2.9589,-2.9701,-2.9701,-2.9701,-3.0096,-3.0377,-3.0208,-3.0487,-3.0327,-2.9259,-3.0722,-3.1686,-3.1075,-3.2144,-3.2669,-3.2017,-3.1799,-3.1781,-3.1944,-3.184,-3.212,-3.2908,-3.2943,-3.2862,-3.2601,-3.2601,-3.2502,-3.2317,-3.2317,-3.2317,-3.2317,-3.2317,-3.2317,-3.2317,-3.2317,-3.3125,-3.4618,-3.4618,-3.5478,-3.69,-3.69,-3.69,-3.69,-3.6701,-3.6678,-3.6638,-3.6457,-3.6224,-3.6002,-3.2849,-3.3258,-3.3405,-3.2511,-3.2884,-3.3291,-3.3298,-3.3337,-3.3161,-3.2596,-3.1951,-3.1348,-3.081,-3.0765,-3.0782,-3.0834,-3.1061,-3.1118,-3.0899,-3.1106,-3.1133,-3.0853,-3.0834,-3.0946,-3.1139,-3.1399,-3.1806,-3.2343,-3.2046,-3.2068,-3.2406,-3.2278,-3.2406,-3.2725,-3.2638,-3.2491,-3.2452,-3.4738,-3.4302,-3.2095,-3.2095,-3.2106,-3.2038,-3.1526,-3.1342,-3.1333,-3.1333,-3.1333,-3.1333,-3.1333,-3.1303,-3.109,-2.995,-2.9777,-2.9844,-2.9196,-2.8929,-2.879,-2.8541,-2.8205,-2.7785,-2.7172,-2.7188,-2.7409,-2.7635,-2.805,-2.8651,-2.9514,-2.9701,-2.9701,-2.9701,-3.0171,-3.0359,-2.9795,-2.9998,-2.9986,-2.92,-3.0356,-3.1217,-3.1012,-3.2198,-3.2687,-3.1781,-3.1999,-3.2053,-3.1727,-3.2234,-3.2795,-3.3375,-3.3176,-3.2925,-3.2629,-3.2629,-3.2505,-3.2282,-3.2512,-3.2619,-3.2619,-3.2619,-3.2619,-3.2636,-3.3115,-3.3931,-3.4978,-3.5457,-3.629,-3.7264,-3.7264,-3.7264,-3.7264,-3.7132,-3.7094,-3.7055,-3.6939,-3.6719,-3.6451,-3.4486,-3.4525,-3.4296,-3.3355,-3.3248,-3.3303,-3.3295,-3.3307,-3.3307,-3.3287,-3.3287,-3.2662,-3.1074,-3.0898,-3.0898,-3.0898,-3.1699,-3.1794,-3.0866,-3.1612,-3.167,-3.0745,-3.0691,-3.1111,-3.1971,-3.2821,-3.3235,-3.3198,-3.4039,-3.4023,-3.3174,-3.2716,-3.2789,-3.3225,-3.1637,-3.2681,-3.5646,-3.5687,-3.5678,-3.5639,-3.5649,-3.5649,-3.5456,-3.3741,-3.3063,-3.3063,-3.3063,-3.3063,-3.3063,-3.3063,-3.2987,-3.2571,-3.0833,-3.0891,-3.1533,-3.1398,-3.1374,-3.1168,-3.0295,-2.9387,-2.8271,-2.6555,-2.666,-2.6998,-2.6207,-2.7261,-2.8651,-2.9514,-2.9701,-2.9701,-2.9701,-2.9701,-2.9701,-2.9701,-2.9531,-2.9332,-2.9126,-3.0356,-3.1217,-3.1012,-3.1709,-3.2524,-3.3302,-3.2651,-3.2524,-3.3302,-3.3375,-3.3393,-3.3393,-3.2651,-3.2216,-3.2216,-3.2216,-3.2216,-3.2216,-3.2995,-3.3411,-3.3411,-3.3411,-3.3411,-3.3447,-3.501,-3.577,-3.586,-3.7486,-3.8174,-3.8174,-3.8174,-3.8174,-3.814,-3.7667,-3.7505,-3.7414,-3.7055,-3.69,-3.6821,-3.368,-3.404,-3.4186,-3.3286,-3.4118,-3.4933,-3.4941,-3.498,-3.4787,-3.4196,-3.4119,-3.371,-3.2652,-3.2547,-3.2533,-3.2533,-3.2787,-3.2825,-3.2519,-3.2762,-3.2774,-3.248,-3.2469,-3.2867,-3.3683,-3.3993,-3.4386,-3.4911,-3.4629,-3.4253,-3.3819,-3.3856,-3.4251,-3.4919,-3.4406,-3.4734,-3.5704,-3.5695,-3.5695,-3.5695,-3.5695,-3.5706,-3.5639,-3.5087,-3.4128,-3.3091,-3.2995,-3.296,-3.2947,-3.2807,-3.2737,-3.2584,-3.1943,-3.1974,-3.2259,-3.2233,-3.2159,-3.2022,-3.1737,-3.0954,-2.9943,-2.8815,-2.7859,-2.7129,-2.6866,-2.7204,-2.7824,-2.865,-2.8819,-2.8951,-2.9418,-2.9511,-2.9453,-2.9314,-2.9625,-2.9853,-2.9806,-3.0998,-3.1901,-3.1818,-3.2524,-3.2904,-3.2614,-3.285,-3.2904,-3.2596,-3.3085,-3.3393,-3.3393,-3.2632,-3.2198,-3.2198,-3.2198,-3.2198,-3.2198,-3.2995,-3.3393,-3.3393,-3.3393,-3.3393,-3.3429,-3.3936,-3.4769,-3.5838,-3.6345,-3.7196,-3.8192,-3.8192,-3.8192,-3.8192,-3.802,-3.7967,-3.7967,-3.7828,-3.7559,-3.7266,-3.3235,-3.3497,-3.3721,-3.3219,-3.4052,-3.4749,-3.4729,-3.4787,-3.4728,-3.4494,-3.4455,-3.4397,-3.4232,-3.4195,-3.3969,-3.3359,-3.3573,-3.3619,-3.3289,-3.3567,-3.3596,-3.3247,-3.3228,-3.3604,-3.4436,-3.4455,-3.4861,-3.5704,-3.519,-3.4861,-3.4696,-3.4881,-3.5209,-3.5704,-3.5704,-3.5704,-3.5704,-3.5704,-3.5704,-3.5704,-3.5697,-3.5608,-3.5473,-3.5463,-3.479,-3.384,-3.3766,-3.3738,-3.3724,-3.3582,-3.3522,-3.3439,-3.3372,-3.3335,-3.3295,-3.2991,-3.2844,-3.2789,-3.2789,-3.2071,-3.1091,-2.9983,-2.8913,-2.8049,-2.773,-2.7655,-2.7863,-2.8615,-2.8783,-2.8876,-2.9221,-2.9291,-2.9363,-2.9533,-2.9866,-3.0198,-3.0508,-3.1519,-3.2198,-3.2198,-3.2904,-3.3194,-3.2705,-3.3103,-3.3194,-3.2687,-3.319,-3.3491,-3.3491,-3.2399,-3.189,-3.218,-3.1908,-3.189,-3.2198,-3.3063,-3.3481,-3.3393,-3.3393,-3.3393,-3.3429,-3.4027,-3.486,-3.5838,-3.6453,-3.7268,-3.8192,-3.8192,-3.8192,-3.8192,-3.8192,-3.8192,-3.8192,-3.8192,-3.8002,-3.7756,-3.3003,-3.2929,-3.301,-3.3141,-3.3277,-3.3335,-3.3276,-3.3326,-3.3635,-3.4399,-3.4485,-3.4795,-3.5607,-3.5704,-3.5093,-3.3592,-3.4144,-3.4232,-3.342,-3.4137,-3.4195,-3.3314,-3.3276,-3.3654,-3.4466,-3.4485,-3.4891,-3.5704,-3.5704,-3.5704,-3.5704,-3.5704,-3.5684,-3.5654,-3.5673,-3.5673,-3.5662,-3.5662,-3.5662,-3.5651,-3.5695,-3.5468,-3.5095,-3.5066,-3.5078,-3.5098,-3.5098,-3.5081,-3.5081,-3.5081,-3.498,-3.4889,-3.4889,-3.4751,-3.4451,-3.37,-3.3494,-3.3494,-3.3494,-3.2856,-3.1823,-3.0321,-2.987,-2.9551,-2.8613,-2.8389,-2.8559,-2.917,-2.9299,-2.9256,-2.92,-2.9156,-2.9433,-3.0222,-3.0277,-3.0501,-3.125,-3.1892,-3.227,-3.227,-3.2886,-3.3339,-3.3393,-3.3357,-3.3339,-3.3393,-3.3577,-3.3698,-3.3698,-3.2056,-3.1474,-3.2218,-3.1511,-3.1474,-3.2236,-3.3214,-3.3633,-3.3452,-3.3452,-3.3422,-3.3477,-3.5023,-3.5765,-3.5892,-3.7431,-3.8138,-3.8192,-3.8192,-3.8192,-3.8192,-3.8192,-3.8192,-3.8192,-3.8192,-3.8192,-3.814,-3.1813,-3.2272,-3.2694,-3.2741,-3.393,-3.4873,-3.4867,-3.499,-3.5173,-3.5375,-3.5394,-3.5472,-3.5684,-3.5704,-3.5549,-3.5171,-3.5317,-3.5336,-3.5123,-3.5298,-3.5317,-3.5085,-3.5085,-3.5182,-3.5394,-3.5394,-3.5491,-3.5704,-3.5704,-3.5704,-3.5704,-3.5704,-3.5543,-3.5252,-3.5348,-3.5339,-3.5243,-3.5243,-3.5243,-3.5262,-3.5592,-3.5426,-3.5009,-3.4808,-3.4887,-3.5081,-3.498,-3.4963,-3.4908,-3.4772,-3.4691,-3.4668,-3.4668,-3.4626,-3.4564,-3.4358,-3.432,-3.432,-3.432,-3.3719,-3.3006,-3.263,-3.156,-3.0189,-2.8614,-2.8259,-2.8239,-2.8264,-2.826,-2.8566,-2.9659,-2.985,-3.0076,-3.0735,-3.1329,-3.1774,-3.1974,-3.2643,-3.3121,-3.3121,-3.2741,-3.2723,-3.3339,-3.2832,-3.2741,-3.3357,-3.3577,-3.3698,-3.3698,-3.2878,-3.2452,-3.2636,-3.247,-3.247,-3.2654,-3.3515,-3.3895,-3.386,-3.386,-3.378,-3.3651,-3.4673,-3.5357,-3.5874,-3.6852,-3.7612,-3.8192,-3.8192,-3.8192,-3.8192,-3.8192,-3.8192,-3.8192,-3.8192,-3.8192,-3.8174,-3.1324,-3.1607,-3.206,-3.2504,-3.3436,-3.4108,-3.4108,-3.4197,-3.4424,-3.4828,-3.4885,-3.502,-3.5386,-3.5424,-3.5424,-3.5424,-3.5577,-3.5704,-3.5704,-3.5704,-3.5704,-3.5704,-3.5704,-3.5704,-3.5704,-3.5704,-3.5643,-3.5565,-3.5464,-3.5424,-3.5424,-3.5424,-3.5306,-3.5085,-3.5124,-3.5117,-3.504,-3.4926,-3.4868,-3.4907,-3.5126,-3.5377,-3.5569,-3.542,-3.542,-3.5457,-3.5376,-3.5111,-3.4751,-3.4645,-3.4602,-3.4602,-3.4602,-3.4602,-3.4602,-3.4602,-3.4602,-3.4602,-3.4602,-3.4282,-3.3848,-3.3387,-3.2281,-3.1042,-2.9941,-2.9712,-2.9558,-2.9012,-2.8911,-2.9122,-2.9831,-2.9944,-3.0301,-3.1392,-3.1908,-3.2325,-3.2705,-3.3121,-3.3266,-3.2904,-3.2469,-3.2361,-3.2814,-3.2451,-3.2524,-3.3339,-3.3577,-3.3698,-3.3698,-3.3573,-3.3456,-3.3358,-3.2988,-3.297,-3.3358,-3.3776,-3.4049,-3.4148,-3.4049,-3.4149,-3.443,-3.5117,-3.5823,-3.6521,-3.7243,-3.7794,-3.8192,-3.8192,-3.8192,-3.8192,-3.8192,-3.8192,-3.8192,-3.8192,-3.8192,-3.8246,-3.1012,-3.1085,-3.1535,-3.239,-3.2762,-3.295,-3.295,-3.2966,-3.323,-3.399,-3.4085,-3.4334,-3.5021,-3.5114,-3.5114,-3.5114,-3.5424,-3.5608,-3.5608,-3.5608,-3.5608,-3.5608,-3.5608,-3.5608,-3.5608,-3.5608,-3.5521,-3.5345,-3.5178,-3.5114,-3.5114,-3.5114,-3.5098,-3.5064,-3.5007,-3.5047,-3.5108,-3.4899,-3.4863,-3.4977,-3.4889,-3.5493,-3.6419,-3.6494,-3.6351,-3.6085,-3.6085,-3.5615,-3.4977,-3.4977,-3.4902,-3.4789,-3.4789,-3.4695,-3.4602,-3.4602,-3.458,-3.4539,-3.4539,-3.4539,-3.4304,-3.345,-3.2678,-3.2057,-3.1715,-3.163,-3.136,-3.0417,-3.0246,-3.0232,-3.0186,-3.0242,-3.0822,-3.2325,-3.256,-3.2795,-3.3502,-3.3375,-3.2977,-3.227,-3.1981,-3.189,-3.1999,-3.2017,-3.2343,-3.3158,-3.3504,-3.3698,-3.3698,-3.4049,-3.4197,-3.4049,-3.3414,-3.3395,-3.408,-3.4099,-3.4173,-3.434,-3.4303,-3.4611,-3.5269,-3.6001,-3.6692,-3.7339,-3.7944,-3.8192,-3.8192,-3.8192,-3.8192,-3.8192,-3.8192,-3.8192,-3.8192,-3.8192,-3.8192,-3.8282,-3.0058,-3.0998,-3.1995,-3.2146,-3.3488,-3.4547,-3.4547,-3.4651,-3.4754,-3.4887,-3.4907,-3.4945,-3.5095,-3.5114,-3.5114,-3.5114,-3.5162,-3.5193,-3.5193,-3.5193,-3.5193,-3.5193,-3.5193,-3.5193,-3.5193,-3.5193,-3.5178,-3.5146,-3.5114,-3.5114,-3.5114,-3.5114,-3.5049,-3.4926,-3.4908,-3.5229,-3.5762,-3.5703,-3.6101,-3.6663,-3.6224,-3.6408,-3.7036,-3.7487,-3.7351,-3.6892,-3.6892,-3.6817,-3.6704,-3.6704,-3.6254,-3.5709,-3.5709,-3.5184,-3.4602,-3.4602,-3.4473,-3.434,-3.434,-3.4221,-3.4055,-3.3901,-3.3771,-3.3444,-3.2559,-3.2342,-3.207,-3.1074,-3.0857,-3.1075,-3.1691,-3.2379,-3.3158,-3.4081,-3.4226,-3.428,-3.4407,-3.3248,-3.2343,-3.2216,-3.0985,-3.0423,-3.1111,-3.1184,-3.151,-3.2325,-3.3204,-3.3698,-3.3698,-3.3921,-3.4124,-3.4245,-3.4297,-3.4386,-3.4517,-3.4517,-3.4517,-3.4558,-3.5267,-3.5549,-3.551,-3.6777,-3.7334,-3.7339,-3.7944,-3.8192,-3.8192,-3.8192,-3.8192,-3.8192,-3.8192,-3.8192,-3.8192,-3.8192,-3.8192,-3.821,-3.1767,-3.218,-3.278,-3.3344,-3.416,-3.4751,-3.4751,-3.4793,-3.4832,-3.4832,-3.4832,-3.4832,-3.4832,-3.4832,-3.4832,-3.4832,-3.4832,-3.4832,-3.4832,-3.4996,-3.5114,-3.5114,-3.5114,-3.5114,-3.5114,-3.5032,-3.498,-3.498,-3.487,-3.4832,-3.4851,-3.5305,-3.5247,-3.4788,-3.5673,-3.6026,-3.5935,-3.6366,-3.6761,-3.708,-3.6836,-3.7155,-3.7774,-3.8023,-3.7967,-3.7756,-3.7756,-3.7455,-3.7099,-3.7099,-3.6573,-3.5874,-3.5726,-3.5123,-3.4427,-3.4316,-3.4293,-3.4269,-3.4173,-3.4074,-3.3972,-3.3868,-3.3842,-3.3697,-3.3131,-3.2984,-3.2738,-3.1827,-3.1636,-3.1763,-3.2125,-3.285,-3.352,-3.39,-3.4317,-3.4461,-3.4009,-3.294,-3.2035,-3.16,-3.0514,-2.9961,-3.0314,-3.0731,-3.1329,-3.2144,-3.3037,-3.3549,-3.3549,-3.3726,-3.3868,-3.3972,-3.4386,-3.4602,-3.4602,-3.4602,-3.4827,-3.5315,-3.5709,-3.6283,-3.7012,-3.7423,-3.7819,-3.8162,-3.8209,-3.8192,-3.8192,-3.8192,-3.8192,-3.8192,-3.8192,-3.8192,-3.8192,-3.8192,-3.8192,-3.8246,-3.3137,-3.31,-3.3362,-3.417,-3.447,-3.4602,-3.4602,-3.4602,-3.4602,-3.4602,-3.4602,-3.4602,-3.4602,-3.4602,-3.4602,-3.4602,-3.4602,-3.4602,-3.4602,-3.4832,-3.4978,-3.4978,-3.4978,-3.4978,-3.4978,-3.487,-3.4831,-3.4831,-3.4668,-3.4695,-3.4921,-3.5597,-3.5634,-3.524,-3.6517,-3.6855,-3.6498,-3.7117,-3.7493,-3.7685,-3.7685,-3.8037,-3.8601,-3.8601,-3.8601,-3.8601,-3.8601,-3.8182,-3.759,-3.759,-3.7023,-3.6222,-3.5833,-3.5151,-3.4439,-3.4104,-3.4074,-3.4124,-3.3972,-3.3895,-3.3815,-3.3671,-3.3633,-3.3605,-3.3422,-3.3393,-3.323,-3.2614,-3.2488,-3.2488,-3.2488,-3.314,-3.3683,-3.3683,-3.4208,-3.4389,-3.3773,-3.2832,-3.189,-3.1093,-3.0278,-2.9816,-2.9816,-3.0514,-3.1329,-3.2144,-3.294,-3.3393,-3.3393,-3.3549,-3.3643,-3.3726,-3.4221,-3.4495,-3.4495,-3.4561,-3.5033,-3.5878,-3.6043,-3.6888,-3.8233,-3.796,-3.8177,-3.8773,-3.8372,-3.8192,-3.8192,-3.8192,-3.8192,-3.8192,-3.8192,-3.8192,-3.8192,-3.8192,-3.8301,-3.8554,-3.2349,-3.2837,-3.34,-3.3475,-3.4095,-3.4602,-3.4602,-3.4602,-3.4602,-3.4602,-3.4602,-3.4602,-3.4602,-3.4602,-3.4602,-3.4602,-3.4602,-3.4602,-3.4602,-3.4626,-3.4647,-3.4647,-3.4647,-3.4647,-3.4647,-3.4626,-3.4604,-3.4604,-3.4623,-3.5015,-3.5803,-3.5878,-3.6254,-3.6911,-3.7024,-3.7474,-3.8131,-3.8188,-3.8676,-3.9432,-3.9432,-3.947,-3.9483,-3.9483,-3.9483,-3.9483,-3.9483,-3.9301,-3.9043,-3.9043,-3.8331,-3.7332,-3.6574,-3.5779,-3.4977,-3.422,-3.3868,-3.3753,-3.3726,-3.3577,-3.3452,-3.3422,-3.3422,-3.3422,-3.3393,-3.3393,-3.3375,-3.3321,-3.3302,-3.3302,-3.3302,-3.3973,-3.4516,-3.4516,-3.457,-3.4588,-3.4534,-3.3176,-3.189,-3.1093,-3.0278,-2.9816,-2.9816,-3.0514,-3.1329,-3.2144,-3.294,-3.3393,-3.3393,-3.3393,-3.352,-3.378,-3.4023,-3.4148,-3.4148,-3.445,-3.4996,-3.5825,-3.6503,-3.7285,-3.8103,-3.8335,-3.8486,-3.851,-3.8307,-3.8192,-3.8192,-3.8192,-3.8192,-3.8192,-3.8192,-3.8192,-3.8192,-3.8192,-3.8663,-3.9315,-3.3486,-3.3843,-3.4132,-3.4132,-3.4395,-3.4602,-3.4602,-3.4602,-3.4602,-3.4602,-3.4602,-3.4602,-3.4602,-3.4602,-3.4602,-3.4602,-3.4602,-3.4602,-3.4602,-3.4602,-3.4602,-3.4602,-3.4602,-3.4602,-3.4602,-3.4602,-3.4602,-3.4602,-3.4602,-3.5052,-3.5916,-3.6404,-3.6798,-3.7136,-3.8193,-3.8507,-3.8338,-3.8882,-3.9295,-3.9602,-3.9602,-3.9602,-3.9602,-3.9602,-3.9502,-3.9362,-3.9362,-3.9202,-3.9007,-3.9007,-3.8376,-3.7534,-3.7077,-3.6046,-3.4825,-3.3908,-3.3577,-3.3491,-3.3491,-3.3452,-3.3393,-3.3393,-3.3393,-3.3393,-3.3393,-3.3393,-3.3393,-3.3393,-3.3393,-3.3393,-3.3393,-3.4063,-3.4443,-3.3936,-3.428,-3.4443,-3.3936,-3.2904,-3.2089,-3.1781,-3.1021,-3.0532,-3.0532,-3.1256,-3.1872,-3.218,-3.294,-3.3393,-3.3393,-3.3452,-3.3491,-3.3605,-3.378,-3.3947,-3.4173,-3.4293,-3.503,-3.6354,-3.6559,-3.737,-3.8654,-3.8559,-3.851,-3.8478,-3.8307,-3.8192,-3.8192,-3.8192,-3.8192,-3.8192,-3.8192,-3.8192,-3.8246,-3.8753,-3.9134,-3.946,-3.4173,-3.4316,-3.4427,-3.4427,-3.4427,-3.4431,-3.4495,-3.4517,-3.4517,-3.4583,-3.4602,-3.4602,-3.4602,-3.4602,-3.4602,-3.4602,-3.4602,-3.4602,-3.4602,-3.4602,-3.4602,-3.4602,-3.4602,-3.4602,-3.4602,-3.4602,-3.4602,-3.4602,-3.4864,-3.5428,-3.6291,-3.7099,-3.7606,-3.7948,-3.9094,-3.9258,-3.8751,-3.9333,-3.9602,-3.9577,-3.9527,-3.9458,-3.9458,-3.9406,-3.9256,-3.912,-3.912,-3.896,-3.8755,-3.8755,-3.8327,-3.7723,-3.7314,-3.6267,-3.5016,-3.4039,-3.3791,-3.3719,-3.3465,-3.3393,-3.3393,-3.3393,-3.3393,-3.3393,-3.3393,-3.3393,-3.3393,-3.3393,-3.3393,-3.3393,-3.3393,-3.3846,-3.4045,-3.3502,-3.3864,-3.4027,-3.3484,-3.2922,-3.2488,-3.2234,-3.1709,-3.1365,-3.1365,-3.1872,-3.2288,-3.256,-3.3085,-3.3393,-3.3393,-3.3481,-3.352,-3.352,-3.3643,-3.3842,-3.4074,-3.4148,-3.5033,-3.6712,-3.6525,-3.7322,-3.8942,-3.8572,-3.8401,-3.8401,-3.8274,-3.8192,-3.8192,-3.8192,-3.8337,-3.8572,-3.8572,-3.8717,-3.8989,-3.9532,-3.9912,-4.0202,-3.3998,-3.3998,-3.3998,-3.3998,-3.3998,-3.4074,-3.4269,-3.4293,-3.4363,-3.4561,-3.4602,-3.4602,-3.4602,-3.4602,-3.4602,-3.4602,-3.4602,-3.4602,-3.4602,-3.4602,-3.4602,-3.4602,-3.4602,-3.4602,-3.4602,-3.4602,-3.4602,-3.4602,-3.5484,-3.631,-3.7117,-3.7925,-3.877,-3.9602,-3.9596,-3.9596,-3.9596,-3.9596,-3.9577,-3.9577,-3.9309,-3.9183,-3.9183,-3.8979,-3.891,-3.891,-3.891,-3.8725,-3.851,-3.851,-3.8387,-3.8047,-3.7232,-3.6453,-3.5657,-3.4842,-3.4606,-3.4425,-3.3628,-3.3393,-3.3393,-3.3393,-3.3393,-3.3393,-3.3393,-3.3393,-3.3393,-3.3393,-3.3393,-3.3393,-3.3393,-3.3393,-3.3393,-3.3393,-3.3393,-3.3393,-3.3393,-3.3393,-3.3103,-3.2288,-3.2198,-3.2198,-3.2198,-3.2198,-3.2542,-3.3339,-3.3393,-3.3393,-3.3393,-3.352,-3.3605,-3.3605,-3.3726,-3.3807,-3.3807,-3.4074,-3.5033,-3.6694,-3.6426,-3.7173,-3.8789,-3.8368,-3.8192,-3.8192,-3.8192,-3.8192,-3.8192,-3.8192,-3.8663,-3.9387,-3.9405,-3.9858,-4.051,-4.0528,-4.1017,-4.1723,-3.378,-3.3807,-3.3815,-3.3972,-3.3998,-3.4023,-3.4074,-3.4099,-3.4124,-3.4173,-3.4173,-3.4221,-3.4363,-3.4386,-3.445,-3.4602,-3.4602,-3.4602,-3.4602,-3.4602,-3.4602,-3.4602,-3.4602,-3.4602,-3.4602,-3.4602,-3.4902,-3.5503,-3.5766,-3.661,-3.7943,-3.8188,-3.877,-3.9577,-3.9388,-3.9309,-3.9309,-3.9175,-3.9092,-3.9092,-3.9007,-3.8979,-3.8979,-3.8921,-3.8773,-3.8634,-3.8634,-3.8496,-3.8289,-3.8289,-3.8241,-3.8047,-3.7232,-3.6834,-3.6363,-3.5005,-3.4606,-3.4425,-3.3628,-3.3393,-3.3393,-3.3393,-3.3393,-3.3393,-3.3393,-3.3393,-3.3393,-3.3393,-3.3393,-3.3393,-3.3393,-3.3393,-3.3393,-3.3393,-3.3393,-3.3393,-3.3393,-3.3393,-3.3302,-3.3067,-3.3049,-3.3049,-3.3049,-3.3049,-3.314,-3.3375,-3.3393,-3.3393,-3.3393,-3.3481,-3.352,-3.352,-3.3643,-3.3982,-3.4577,-3.4706,-3.5275,-3.6268,-3.6721,-3.7454,-3.8446,-3.8274,-3.8192,-3.8192,-3.8192,-3.8192,-3.8228,-3.8808,-3.917,-3.9441,-3.9967,-4.0311,-4.0582,-4.1144,-4.1506,-4.1796,-3.3549,-3.3577,-3.3633,-3.3753,-3.378,-3.3807,-3.3868,-3.3868,-3.3895,-3.3998,-3.3998,-3.4049,-3.4173,-3.4173,-3.4221,-3.434,-3.4363,-3.4363,-3.4363,-3.4363,-3.4363,-3.4363,-3.4363,-3.445,-3.4602,-3.494,-3.5371,-3.5897,-3.6535,-3.7361,-3.8319,-3.8521,-3.8945,-3.9432,-3.9202,-3.9073,-3.9073,-3.895,-3.891,-3.8892,-3.8773,-3.8743,-3.8725,-3.8652,-3.8528,-3.8368,-3.8368,-3.8289,-3.8192,-3.8192,-3.8192,-3.8101,-3.7612,-3.7449,-3.7142,-3.5548,-3.5077,-3.4842,-3.3719,-3.3393,-3.3393,-3.3393,-3.3393,-3.3393,-3.3393,-3.3393,-3.3393,-3.3393,-3.3393,-3.3393,-3.3393,-3.3393,-3.3393,-3.3393,-3.3393,-3.3393,-3.3393,-3.3393,-3.3393,-3.3393,-3.3393,-3.3393,-3.3393,-3.3393,-3.3393,-3.3393,-3.3393,-3.3393,-3.3393,-3.3452,-3.3509,-3.3509,-3.3915,-3.4383,-3.4897,-3.5546,-3.6113,-3.6589,-3.6978,-3.754,-3.8307,-3.8225,-3.8192,-3.8192,-3.8192,-3.8373,-3.8699,-3.9188,-3.9767,-4.0365,-4.0818,-4.118,-4.1506,-4.1995,-4.2176,-4.2248,-3.3393,-3.3393,-3.3393,-3.3393,-3.3393,-3.3452,-3.3661,-3.3671,-3.3753,-3.3921,-3.3947,-3.3947,-3.3972,-3.3972,-3.3972,-3.3998,-3.3998,-3.3998,-3.3998,-3.3998,-3.3998,-3.3998,-3.3998,-3.421,-3.4652,-3.5439,-3.5908,-3.6058,-3.7521,-3.8289,-3.8359,-3.8928,-3.9183,-3.9156,-3.895,-3.8862,-3.8862,-3.8851,-3.8851,-3.8822,-3.8572,-3.8478,-3.8446,-3.8274,-3.8192,-3.8192,-3.8192,-3.8192,-3.8192,-3.8192,-3.8192,-3.8192,-3.8192,-3.8192,-3.7866,-3.6272,-3.582,-3.5457,-3.3846,-3.3393,-3.3393,-3.3393,-3.3393,-3.3393,-3.3393,-3.3393,-3.3393,-3.3393,-3.3393,-3.3393,-3.3393,-3.3393,-3.3393,-3.3393,-3.3393,-3.3393,-3.3393,-3.3393,-3.3393,-3.3393,-3.3393,-3.3393,-3.3393,-3.3393,-3.3393,-3.3393,-3.3393,-3.3393,-3.3393,-3.3452,-3.3509,-3.3509,-3.435,-3.4856,-3.4997,-3.6462,-3.7228,-3.729,-3.7226,-3.7598,-3.8307,-3.8225,-3.8192,-3.8192,-3.8264,-3.8717,-3.9405,-3.955,-4.0437,-4.1723,-4.1796,-4.2248,-4.2882,-4.2882,-4.2882,-4.2882,-3.3393,-3.3393,-3.3393,-3.3393,-3.3393,-3.3393,-3.3452,-3.3481,-3.3481,-3.352,-3.352,-3.3605,-3.3753,-3.378,-3.3815,-3.3998,-3.3998,-3.3998,-3.3998,-3.3998,-3.3998,-3.3998,-3.3998,-3.4319,-3.5043,-3.5247,-3.5977,-3.7238,-3.759,-3.8109,-3.8776,-3.8886,-3.8979,-3.895,-3.8695,-3.8603,-3.8572,-3.8419,-3.834,-3.834,-3.8307,-3.8274,-3.8274,-3.8225,-3.8192,-3.8192,-3.8192,-3.8192,-3.8192,-3.8192,-3.8192,-3.8192,-3.8192,-3.8192,-3.7866,-3.6272,-3.582,-3.5457,-3.3846,-3.3393,-3.3393,-3.3393,-3.3393,-3.3393,-3.3393,-3.3393,-3.3393,-3.3393,-3.3393,-3.3393,-3.3393,-3.3393,-3.3393,-3.3393,-3.3393,-3.3393,-3.3393,-3.3393,-3.3393,-3.3393,-3.3393,-3.3393,-3.3393,-3.3393,-3.3393,-3.3393,-3.3393,-3.3393,-3.3393,-3.3393,-3.3422,-3.3422,-3.4261,-3.503,-3.5678,-3.663,-3.7153,-3.7247,-3.7776,-3.8111,-3.8225,-3.8225,-3.8192,-3.8228,-3.8862,-3.9224,-3.9478,-4.0709,-4.1415,-4.1778,-4.2393,-4.2737,-4.2882,-4.2882,-4.2882,-4.2882,-3.3393,-3.3393,-3.3393,-3.3393,-3.3393,-3.3393,-3.3393,-3.3393,-3.3393,-3.3393,-3.3393,-3.3452,-3.3549,-3.3549,-3.3605,-3.3698,-3.3726,-3.3726,-3.3726,-3.3726,-3.3726,-3.3726,-3.3726,-3.4265,-3.5473,-3.5491,-3.6193,-3.7589,-3.8024,-3.8449,-3.891,-3.8773,-3.8713,-3.8713,-3.8465,-3.8354,-3.8354,-3.8241,-3.8192,-3.8192,-3.8192,-3.8192,-3.8192,-3.8192,-3.8192,-3.8192,-3.8192,-3.8192,-3.8192,-3.8192,-3.8192,-3.8192,-3.8192,-3.8192,-3.7957,-3.6725,-3.6109,-3.5548,-3.4317,-3.3701,-3.3393,-3.3393,-3.3393,-3.3393,-3.3393,-3.3393,-3.3393,-3.3393,-3.3393,-3.3393,-3.3393,-3.3393,-3.3393,-3.3393,-3.3393,-3.3393,-3.3393,-3.3393,-3.3393,-3.3393,-3.3393,-3.3393,-3.3393,-3.3393,-3.3393,-3.3393,-3.3393,-3.3393,-3.3393,-3.3755,-3.3973,-3.3973,-3.5144,-3.6023,-3.6453,-3.7239,-3.7671,-3.7735,-3.8074,-3.8241,-3.8192,-3.8192,-3.8391,-3.879,-3.9206,-3.9822,-4.0564,-4.1379,-4.194,-4.2321,-4.2737,-4.2882,-4.2882,-4.2882,-4.2882,-4.2882,-3.3393,-3.3393,-3.3393,-3.3393,-3.3393,-3.3393,-3.3393,-3.3393,-3.3393,-3.3393,-3.3393,-3.3393,-3.3393,-3.3393,-3.3393,-3.3393,-3.3393,-3.3393,-3.3393,-3.3393,-3.3393,-3.3393,-3.3393,-3.4099,-3.5566,-3.5747,-3.6406,-3.7695,-3.8442,-3.8773,-3.8792,-3.8541,-3.8446,-3.8446,-3.8256,-3.8192,-3.8192,-3.8192,-3.8192,-3.8192,-3.8192,-3.8192,-3.8192,-3.8192,-3.8192,-3.8192,-3.8192,-3.8192,-3.8192,-3.8192,-3.8192,-3.8192,-3.8192,-3.8192,-3.8029,-3.7232,-3.6526,-3.5802,-3.486,-3.4117,-3.3574,-3.3429,-3.3502,-3.361,-3.361,-3.3502,-3.3393,-3.3393,-3.3393,-3.3393,-3.3393,-3.3393,-3.3393,-3.3393,-3.3393,-3.3393,-3.3393,-3.3393,-3.3393,-3.3393,-3.3393,-3.3393,-3.3393,-3.3393,-3.3393,-3.3393,-3.3393,-3.3393,-3.3393,-3.4172,-3.4606,-3.4606,-3.6146,-3.7043,-3.7089,-3.7809,-3.8225,-3.8274,-3.8225,-3.8192,-3.8192,-3.8192,-3.8627,-3.9405,-3.9532,-4.0401,-4.1723,-4.1868,-4.2303,-4.2882,-4.2882,-4.2882,-4.2882,-4.2882,-4.2882,-4.2882,-3.3393,-3.3393,-3.3393,-3.3393,-3.3393,-3.3393,-3.3393,-3.3393,-3.3393,-3.3393,-3.3393,-3.3393,-3.3393,-3.3393,-3.3393,-3.3393,-3.3393,-3.3393,-3.3393,-3.3393,-3.3393,-3.3393,-3.3393,-3.3828,-3.4751,-3.5457,-3.6558,-3.8111,-3.8252,-3.8307,-3.8307,-3.8241,-3.8241,-3.8241,-3.8225,-3.8192,-3.8192,-3.8192,-3.8192,-3.8192,-3.8192,-3.8192,-3.8192,-3.8192,-3.8192,-3.8192,-3.8192,-3.8192,-3.8192,-3.8192,-3.8192,-3.8192,-3.8192,-3.8192,-3.8029,-3.7232,-3.6906,-3.6508,-3.5005,-3.4534,-3.428,-3.3574,-3.3918,-3.4443,-3.4443,-3.39,-3.3393,-3.3393,-3.3393,-3.3393,-3.3393,-3.3393,-3.3393,-3.3393,-3.3393,-3.3393,-3.3393,-3.3393,-3.3393,-3.3393,-3.3393,-3.3393,-3.3393,-3.3393,-3.3393,-3.3393,-3.3393,-3.3393,-3.3393,-3.4172,-3.4606,-3.4606,-3.6146,-3.7011,-3.7011,-3.7809,-3.8192,-3.8225,-3.8192,-3.8192,-3.8192,-3.8192,-3.8627,-3.9441,-4.0075,-4.0872,-4.1759,-4.2448,-4.2792,-4.2882,-4.2882,-4.2882,-4.2882,-4.2882,-4.2882,-4.2844,-3.3393,-3.3393,-3.3393,-3.3393,-3.3393,-3.3393,-3.3393,-3.3393,-3.3393,-3.3393,-3.3393,-3.3393,-3.3393,-3.3393,-3.3393,-3.3393,-3.3393,-3.3393,-3.3393,-3.3393,-3.3393,-3.3393,-3.3393,-3.3791,-3.4588,-3.5403,-3.6363,-3.7522,-3.7975,-3.8192,-3.8192,-3.8192,-3.8192,-3.8192,-3.8192,-3.8192,-3.8192,-3.8192,-3.8192,-3.8192,-3.8192,-3.8192,-3.8192,-3.8192,-3.8192,-3.8192,-3.8192,-3.8192,-3.8192,-3.8192,-3.8192,-3.8192,-3.8192,-3.8192,-3.8119,-3.7757,-3.7341,-3.6816,-3.6127,-3.5602,-3.5204,-3.4842,-3.5023,-3.5276,-3.5276,-3.4661,-3.4208,-3.4661,-3.4751,-3.4606,-3.4154,-3.4081,-3.3918,-3.3465,-3.3393,-3.3393,-3.3393,-3.3393,-3.3393,-3.3393,-3.3393,-3.3393,-3.3393,-3.3393,-3.3393,-3.3393,-3.3828,-3.4081,-3.4081,-3.5258,-3.5928,-3.5928,-3.7051,-3.7649,-3.7649,-3.8011,-3.8192,-3.8192,-3.8192,-3.8427,-3.8844,-3.8391,-3.9097,-4.0691,-4.0564,-4.1051,-4.2013,-4.2354,-4.2498,-4.2498,-4.2498,-4.2673,-4.2882,-4.2882,-4.2882,-4.2844]}]]